Wetterdaten: Dienstag, 06.11.2018
Datum Zeit Temp. A. Feuchte A. Luftdruck Regen Wind Richtung Richtung Sonnenschein ET UV Solar Taupunkt Windchill Windböen
06.11.2018 00:00 11,2 °C 57 % 1007,7 hPa 0,0 mm 0,0 km/h (0 Bft) S 191 ° 0 min 0,000 mm 0,0 UV-I 0 W/m² 3,0 °C 11,2 °C 0,0 km/h (0 Bft)
06.11.2018 00:01 11,1 °C 57 % 1007,7 hPa 0,0 mm 0,0 km/h (0 Bft) S 191 ° 0 min 0,000 mm 0,0 UV-I 0 W/m² 2,9 °C 11,1 °C 0,0 km/h (0 Bft)
06.11.2018 00:02 10,8 °C 58 % 1007,7 hPa 0,0 mm 0,0 km/h (0 Bft) S 191 ° 0 min 0,000 mm 0,0 UV-I 0 W/m² 2,9 °C 10,8 °C 0,0 km/h (0 Bft)
06.11.2018 00:03 10,7 °C 58 % 1007,8 hPa 0,0 mm 1,3 km/h (1 Bft) S 191 ° 0 min 0,000 mm 0,0 UV-I 0 W/m² 2,8 °C 10,7 °C 6,4 km/h (2 Bft)
06.11.2018 00:04 10,8 °C 57 % 1007,7 hPa 0,0 mm 3,1 km/h (1 Bft) S 191 ° 0 min 0,000 mm 0,0 UV-I 0 W/m² 2,6 °C 10,8 °C 6,4 km/h (2 Bft)
06.11.2018 00:05 10,9 °C 57 % 1007,8 hPa 0,0 mm 4,0 km/h (1 Bft) S-SW 192 ° 0 min 0,000 mm 0,0 UV-I 0 W/m² 2,7 °C 10,9 °C 6,4 km/h (2 Bft)
06.11.2018 00:06 11,2 °C 56 % 1007,8 hPa 0,0 mm 2,8 km/h (1 Bft) S-SW 203 ° 0 min 0,000 mm 0,0 UV-I 0 W/m² 2,8 °C 11,2 °C 4,8 km/h (1 Bft)
06.11.2018 00:07 11,4 °C 55 % 1007,8 hPa 0,0 mm 3,6 km/h (1 Bft) S-SW 202 ° 0 min 0,000 mm 0,0 UV-I 0 W/m² 2,7 °C 11,4 °C 4,8 km/h (1 Bft)
06.11.2018 00:08 11,6 °C 55 % 1007,8 hPa 0,0 mm 2,7 km/h (1 Bft) S-SW 202 ° 0 min 0,000 mm 0,0 UV-I 0 W/m² 2,9 °C 11,6 °C 4,8 km/h (1 Bft)
06.11.2018 00:09 11,8 °C 53 % 1007,8 hPa 0,0 mm 3,8 km/h (1 Bft) SW 235 ° 0 min 0,000 mm 0,0 UV-I 0 W/m² 2,5 °C 11,8 °C 6,4 km/h (2 Bft)
06.11.2018 00:10 12,1 °C 52 % 1007,8 hPa 0,0 mm 4,0 km/h (1 Bft) W-SW 248 ° 0 min 0,000 mm 0,0 UV-I 0 W/m² 2,5 °C 12,1 °C 6,4 km/h (2 Bft)
06.11.2018 00:11 12,3 °C 52 % 1007,9 hPa 0,0 mm 3,3 km/h (1 Bft) W-SW 248 ° 0 min 0,000 mm 0,0 UV-I 0 W/m² 2,7 °C 12,3 °C 4,8 km/h (1 Bft)
06.11.2018 00:12 12,4 °C 51 % 1007,9 hPa 0,0 mm 1,6 km/h (1 Bft) W-SW 248 ° 0 min 0,000 mm 0,0 UV-I 0 W/m² 2,6 °C 12,4 °C 3,2 km/h (1 Bft)
06.11.2018 00:13 12,6 °C 52 % 1007,8 hPa 0,0 mm 1,7 km/h (1 Bft) SW 227 ° 0 min 0,000 mm 0,0 UV-I 0 W/m² 3,0 °C 12,6 °C 3,2 km/h (1 Bft)
06.11.2018 00:14 12,7 °C 52 % 1007,8 hPa 0,0 mm 0,6 km/h (0 Bft) SW 227 ° 0 min 0,000 mm 0,0 UV-I 0 W/m² 3,1 °C 12,7 °C 3,2 km/h (1 Bft)
06.11.2018 00:15 12,7 °C 52 % 1007,8 hPa 0,0 mm 0,0 km/h (0 Bft) SW 227 ° 0 min 0,000 mm 0,0 UV-I 0 W/m² 3,1 °C 12,7 °C 0,0 km/h (0 Bft)
06.11.2018 00:16 12,7 °C 52 % 1007,8 hPa 0,0 mm 1,6 km/h (1 Bft) SW 230 ° 0 min 0,000 mm 0,0 UV-I 0 W/m² 3,1 °C 12,7 °C 3,2 km/h (1 Bft)
06.11.2018 00:17 12,7 °C 51 % 1007,8 hPa 0,0 mm 2,2 km/h (1 Bft) W-SW 238 ° 0 min 0,000 mm 0,0 UV-I 0 W/m² 2,8 °C 12,7 °C 4,8 km/h (1 Bft)
06.11.2018 00:18 12,6 °C 51 % 1007,8 hPa 0,0 mm 0,0 km/h (0 Bft) W-SW 238 ° 0 min 0,000 mm 0,0 UV-I 0 W/m² 2,7 °C 12,6 °C 0,0 km/h (0 Bft)
06.11.2018 00:19 12,6 °C 52 % 1007,8 hPa 0,0 mm 1,9 km/h (1 Bft) W-SW 250 ° 0 min 0,000 mm 0,0 UV-I 0 W/m² 3,0 °C 12,6 °C 6,4 km/h (2 Bft)
06.11.2018 00:20 12,6 °C 52 % 1007,9 hPa 0,0 mm 5,6 km/h (1 Bft) W 260 ° 0 min 0,000 mm 0,0 UV-I 0 W/m² 3,0 °C 12,6 °C 6,4 km/h (2 Bft)
06.11.2018 00:21 12,5 °C 52 % 1007,9 hPa 0,0 mm 5,4 km/h (1 Bft) W-SW 239 ° 0 min 0,000 mm 0,0 UV-I 0 W/m² 2,9 °C 12,5 °C 8,0 km/h (2 Bft)
06.11.2018 00:22 12,5 °C 51 % 1007,9 hPa 0,0 mm 4,4 km/h (1 Bft) SW 225 ° 0 min 0,000 mm 0,0 UV-I 0 W/m² 2,6 °C 12,5 °C 6,4 km/h (2 Bft)
06.11.2018 00:23 12,6 °C 51 % 1007,8 hPa 0,0 mm 4,3 km/h (1 Bft) W 279 ° 0 min 0,000 mm 0,0 UV-I 0 W/m² 2,7 °C 12,6 °C 8,0 km/h (2 Bft)
06.11.2018 00:24 12,7 °C 51 % 1007,8 hPa 0,0 mm 2,7 km/h (1 Bft) W 271 ° 0 min 0,000 mm 0,0 UV-I 0 W/m² 2,8 °C 12,7 °C 4,8 km/h (1 Bft)
06.11.2018 00:25 12,7 °C 52 % 1007,9 hPa 0,0 mm 2,8 km/h (1 Bft) W 271 ° 0 min 0,000 mm 0,0 UV-I 0 W/m² 3,1 °C 12,7 °C 4,8 km/h (1 Bft)
06.11.2018 00:26 12,6 °C 52 % 1007,9 hPa 0,0 mm 0,9 km/h (0 Bft) W 271 ° 0 min 0,000 mm 0,0 UV-I 0 W/m² 3,0 °C 12,6 °C 1,6 km/h (1 Bft)
06.11.2018 00:27 12,5 °C 52 % 1007,9 hPa 0,0 mm 0,1 km/h (0 Bft) W 271 ° 0 min 0,000 mm 0,0 UV-I 0 W/m² 2,9 °C 12,5 °C 1,6 km/h (1 Bft)
06.11.2018 00:28 12,4 °C 53 % 1007,9 hPa 0,0 mm 0,0 km/h (0 Bft) W 271 ° 0 min 0,000 mm 0,0 UV-I 0 W/m² 3,1 °C 12,4 °C 0,0 km/h (0 Bft)
06.11.2018 00:29 12,3 °C 53 % 1007,8 hPa 0,0 mm 0,7 km/h (0 Bft) W 271 ° 0 min 0,000 mm 0,0 UV-I 0 W/m² 3,0 °C 12,3 °C 3,2 km/h (1 Bft)
06.11.2018 00:30 12,3 °C 52 % 1007,8 hPa 0,0 mm 0,6 km/h (0 Bft) W 271 ° 0 min 0,000 mm 0,0 UV-I 0 W/m² 2,7 °C 12,3 °C 1,6 km/h (1 Bft)
06.11.2018 00:31 12,3 °C 52 % 1007,7 hPa 0,0 mm 2,7 km/h (1 Bft) W-SW 240 ° 0 min 0,000 mm 0,0 UV-I 0 W/m² 2,7 °C 12,3 °C 6,4 km/h (2 Bft)
06.11.2018 00:32 12,5 °C 51 % 1007,7 hPa 0,0 mm 4,9 km/h (1 Bft) W-SW 254 ° 0 min 0,000 mm 0,0 UV-I 0 W/m² 2,6 °C 12,5 °C 11,3 km/h (2 Bft)
06.11.2018 00:33 12,7 °C 50 % 1007,7 hPa 0,0 mm 4,7 km/h (1 Bft) W-SW 257 ° 0 min 0,000 mm 0,0 UV-I 0 W/m² 2,6 °C 12,7 °C 6,4 km/h (2 Bft)
06.11.2018 00:34 12,8 °C 50 % 1007,8 hPa 0,0 mm 2,3 km/h (1 Bft) W-SW 243 ° 0 min 0,000 mm 0,0 UV-I 0 W/m² 2,6 °C 12,8 °C 3,2 km/h (1 Bft)
06.11.2018 00:35 12,9 °C 52 % 1007,8 hPa 0,0 mm 1,6 km/h (1 Bft) W-SW 243 ° 0 min 0,000 mm 0,0 UV-I 0 W/m² 3,3 °C 12,9 °C 3,2 km/h (1 Bft)
06.11.2018 00:36 12,9 °C 52 % 1007,7 hPa 0,0 mm 0,0 km/h (0 Bft) W-SW 243 ° 0 min 0,000 mm 0,0 UV-I 0 W/m² 3,3 °C 12,9 °C 0,0 km/h (0 Bft)
06.11.2018 00:37 12,8 °C 51 % 1007,8 hPa 0,0 mm 4,3 km/h (1 Bft) W 263 ° 0 min 0,000 mm 0,0 UV-I 0 W/m² 2,9 °C 12,8 °C 4,8 km/h (1 Bft)
06.11.2018 00:38 12,9 °C 50 % 1007,7 hPa 0,0 mm 4,2 km/h (1 Bft) W 281 ° 0 min 0,000 mm 0,0 UV-I 0 W/m² 2,7 °C 12,9 °C 9,7 km/h (2 Bft)
06.11.2018 00:39 13,1 °C 49 % 1007,8 hPa 0,0 mm 3,2 km/h (1 Bft) W-SW 245 ° 0 min 0,000 mm 0,0 UV-I 0 W/m² 2,6 °C 13,1 °C 9,7 km/h (2 Bft)
06.11.2018 00:40 13,1 °C 51 % 1007,8 hPa 0,0 mm 0,7 km/h (0 Bft) W-SW 245 ° 0 min 0,000 mm 0,0 UV-I 0 W/m² 3,2 °C 13,1 °C 1,6 km/h (1 Bft)
06.11.2018 00:41 13,1 °C 51 % 1007,8 hPa 0,0 mm 2,0 km/h (1 Bft) W-SW 245 ° 0 min 0,000 mm 0,0 UV-I 0 W/m² 3,2 °C 13,1 °C 4,8 km/h (1 Bft)
06.11.2018 00:42 13,2 °C 49 % 1007,7 hPa 0,0 mm 2,6 km/h (1 Bft) W-SW 240 ° 0 min 0,000 mm 0,0 UV-I 0 W/m² 2,7 °C 13,2 °C 4,8 km/h (1 Bft)
06.11.2018 00:43 13,3 °C 48 % 1007,7 hPa 0,0 mm 3,3 km/h (1 Bft) W 271 ° 0 min 0,000 mm 0,0 UV-I 0 W/m² 2,5 °C 13,3 °C 4,8 km/h (1 Bft)
06.11.2018 00:44 13,4 °C 48 % 1007,8 hPa 0,0 mm 5,6 km/h (1 Bft) S 175 ° 0 min 0,000 mm 0,0 UV-I 0 W/m² 2,6 °C 13,4 °C 9,7 km/h (2 Bft)
06.11.2018 00:45 13,5 °C 49 % 1007,7 hPa 0,0 mm 2,6 km/h (1 Bft) W-SW 238 ° 0 min 0,000 mm 0,0 UV-I 0 W/m² 3,0 °C 13,5 °C 4,8 km/h (1 Bft)
06.11.2018 00:46 13,6 °C 48 % 1007,7 hPa 0,0 mm 2,1 km/h (1 Bft) W-SW 238 ° 0 min 0,000 mm 0,0 UV-I 0 W/m² 2,8 °C 13,6 °C 3,2 km/h (1 Bft)
06.11.2018 00:47 13,5 °C 49 % 1007,7 hPa 0,0 mm 4,3 km/h (1 Bft) W-SW 239 ° 0 min 0,000 mm 0,0 UV-I 0 W/m² 3,0 °C 13,5 °C 4,8 km/h (1 Bft)
06.11.2018 00:48 13,6 °C 48 % 1007,7 hPa 0,0 mm 3,9 km/h (1 Bft) S-SW 212 ° 0 min 0,000 mm 0,0 UV-I 0 W/m² 2,8 °C 13,6 °C 6,4 km/h (2 Bft)
06.11.2018 00:49 13,6 °C 49 % 1007,7 hPa 0,0 mm 2,4 km/h (1 Bft) S-SW 203 ° 0 min 0,000 mm 0,0 UV-I 0 W/m² 3,1 °C 13,6 °C 6,4 km/h (2 Bft)
06.11.2018 00:50 13,4 °C 49 % 1007,7 hPa 0,0 mm 0,0 km/h (0 Bft) S-SW 203 ° 0 min 0,000 mm 0,0 UV-I 0 W/m² 2,9 °C 13,4 °C 0,0 km/h (0 Bft)
06.11.2018 00:51 13,2 °C 53 % 1007,7 hPa 0,0 mm 0,3 km/h (0 Bft) S-SW 203 ° 0 min 0,000 mm 0,0 UV-I 0 W/m² 3,8 °C 13,2 °C 1,6 km/h (1 Bft)
06.11.2018 00:52 13,1 °C 53 % 1007,7 hPa 0,0 mm 0,9 km/h (0 Bft) S-SW 203 ° 0 min 0,000 mm 0,0 UV-I 0 W/m² 3,7 °C 13,1 °C 1,6 km/h (1 Bft)
06.11.2018 00:53 12,8 °C 53 % 1007,7 hPa 0,0 mm 0,8 km/h (0 Bft) S-SW 203 ° 0 min 0,000 mm 0,0 UV-I 0 W/m² 3,5 °C 12,8 °C 3,2 km/h (1 Bft)
06.11.2018 00:54 12,7 °C 52 % 1007,8 hPa 0,0 mm 0,5 km/h (0 Bft) S-SW 203 ° 0 min 0,000 mm 0,0 UV-I 0 W/m² 3,1 °C 12,7 °C 1,6 km/h (1 Bft)
06.11.2018 00:55 12,5 °C 53 % 1007,7 hPa 0,0 mm 0,0 km/h (0 Bft) S-SW 203 ° 0 min 0,000 mm 0,0 UV-I 0 W/m² 3,2 °C 12,5 °C 0,0 km/h (0 Bft)
06.11.2018 00:56 12,4 °C 53 % 1007,8 hPa 0,0 mm 0,1 km/h (0 Bft) S-SW 203 ° 0 min 0,000 mm 0,0 UV-I 0 W/m² 3,1 °C 12,4 °C 1,6 km/h (1 Bft)
06.11.2018 00:57 12,3 °C 53 % 1007,8 hPa 0,0 mm 0,0 km/h (0 Bft) S-SW 203 ° 0 min 0,000 mm 0,0 UV-I 0 W/m² 3,0 °C 12,3 °C 0,0 km/h (0 Bft)
06.11.2018 00:58 12,2 °C 53 % 1007,7 hPa 0,0 mm 1,0 km/h (0 Bft) S-SW 201 ° 0 min 0,000 mm 0,0 UV-I 0 W/m² 2,9 °C 12,2 °C 3,2 km/h (1 Bft)
06.11.2018 00:59 12,2 °C 53 % 1007,7 hPa 0,0 mm 2,7 km/h (1 Bft) S-SO 155 ° 0 min 0,000 mm 0,0 UV-I 0 W/m² 2,9 °C 12,2 °C 3,2 km/h (1 Bft)
06.11.2018 01:00 12,2 °C 53 % 1007,7 hPa 0,0 mm 0,5 km/h (0 Bft) S-SO 155 ° 0 min 0,051 mm 0,0 UV-I 0 W/m² 2,9 °C 12,2 °C 3,2 km/h (1 Bft)
06.11.2018 01:01 12,2 °C 53 % 1007,7 hPa 0,0 mm 0,1 km/h (0 Bft) SO 128 ° 0 min 0,000 mm 0,0 UV-I 0 W/m² 2,9 °C 12,2 °C 3,2 km/h (1 Bft)
06.11.2018 01:02 12,2 °C 53 % 1007,7 hPa 0,0 mm 1,5 km/h (1 Bft) N-NO 20 ° 0 min 0,000 mm 0,0 UV-I 0 W/m² 2,9 °C 12,2 °C 4,8 km/h (1 Bft)
06.11.2018 01:03 12,2 °C 53 % 1007,6 hPa 0,0 mm 0,1 km/h (0 Bft) N-NO 20 ° 0 min 0,000 mm 0,0 UV-I 0 W/m² 2,9 °C 12,2 °C 1,6 km/h (1 Bft)
06.11.2018 01:04 12,1 °C 54 % 1007,6 hPa 0,0 mm 0,0 km/h (0 Bft) N-NO 20 ° 0 min 0,000 mm 0,0 UV-I 0 W/m² 3,1 °C 12,1 °C 0,0 km/h (0 Bft)
06.11.2018 01:05 12,0 °C 54 % 1007,7 hPa 0,0 mm 0,7 km/h (0 Bft) NO 40 ° 0 min 0,000 mm 0,0 UV-I 0 W/m² 3,0 °C 12,0 °C 1,6 km/h (1 Bft)
06.11.2018 01:06 12,0 °C 53 % 1007,7 hPa 0,0 mm 0,0 km/h (0 Bft) NO 40 ° 0 min 0,000 mm 0,0 UV-I 0 W/m² 2,7 °C 12,0 °C 0,0 km/h (0 Bft)
06.11.2018 01:07 12,1 °C 53 % 1007,6 hPa 0,0 mm 1,3 km/h (1 Bft) NO 40 ° 0 min 0,000 mm 0,0 UV-I 0 W/m² 2,8 °C 12,1 °C 3,2 km/h (1 Bft)
06.11.2018 01:08 12,1 °C 54 % 1007,6 hPa 0,0 mm 1,5 km/h (1 Bft) N-NW 340 ° 0 min 0,000 mm 0,0 UV-I 0 W/m² 3,1 °C 12,1 °C 3,2 km/h (1 Bft)
06.11.2018 01:09 12,1 °C 54 % 1007,6 hPa 0,0 mm 1,7 km/h (1 Bft) N-NW 340 ° 0 min 0,000 mm 0,0 UV-I 0 W/m² 3,1 °C 12,1 °C 3,2 km/h (1 Bft)
06.11.2018 01:10 12,1 °C 53 % 1007,6 hPa 0,0 mm 0,9 km/h (0 Bft) N-NW 340 ° 0 min 0,000 mm 0,0 UV-I 0 W/m² 2,8 °C 12,1 °C 3,2 km/h (1 Bft)
06.11.2018 01:11 12,1 °C 53 % 1007,6 hPa 0,0 mm 0,0 km/h (0 Bft) N-NW 340 ° 0 min 0,000 mm 0,0 UV-I 0 W/m² 2,8 °C 12,1 °C 0,0 km/h (0 Bft)
06.11.2018 01:12 12,2 °C 54 % 1007,6 hPa 0,0 mm 0,3 km/h (0 Bft) N-NW 341 ° 0 min 0,000 mm 0,0 UV-I 0 W/m² 3,2 °C 12,2 °C 1,6 km/h (1 Bft)
06.11.2018 01:13 12,2 °C 53 % 1007,6 hPa 0,0 mm 0,0 km/h (0 Bft) N-NW 341 ° 0 min 0,000 mm 0,0 UV-I 0 W/m² 2,9 °C 12,2 °C 0,0 km/h (0 Bft)
06.11.2018 01:14 12,2 °C 54 % 1007,6 hPa 0,0 mm 0,0 km/h (0 Bft) N-NW 341 ° 0 min 0,000 mm 0,0 UV-I 0 W/m² 3,2 °C 12,2 °C 0,0 km/h (0 Bft)
06.11.2018 01:15 12,1 °C 55 % 1007,5 hPa 0,0 mm 0,7 km/h (0 Bft) N-NW 341 ° 0 min 0,000 mm 0,0 UV-I 0 W/m² 3,3 °C 12,1 °C 1,6 km/h (1 Bft)
06.11.2018 01:16 11,9 °C 55 % 1007,5 hPa 0,0 mm 0,0 km/h (0 Bft) N-NW 341 ° 0 min 0,000 mm 0,0 UV-I 0 W/m² 3,2 °C 11,9 °C 0,0 km/h (0 Bft)
06.11.2018 01:17 11,9 °C 54 % 1007,5 hPa 0,0 mm 0,0 km/h (0 Bft) N-NW 341 ° 0 min 0,000 mm 0,0 UV-I 0 W/m² 2,9 °C 11,9 °C 0,0 km/h (0 Bft)
06.11.2018 01:18 11,9 °C 54 % 1007,5 hPa 0,0 mm 0,8 km/h (0 Bft) N-NW 340 ° 0 min 0,000 mm 0,0 UV-I 0 W/m² 2,9 °C 11,9 °C 1,6 km/h (1 Bft)
06.11.2018 01:19 11,9 °C 54 % 1007,4 hPa 0,0 mm 1,7 km/h (1 Bft) N-NW 340 ° 0 min 0,000 mm 0,0 UV-I 0 W/m² 2,9 °C 11,9 °C 3,2 km/h (1 Bft)
06.11.2018 01:20 12,0 °C 53 % 1007,4 hPa 0,0 mm 0,0 km/h (0 Bft) N-NW 341 ° 0 min 0,000 mm 0,0 UV-I 0 W/m² 2,7 °C 12,0 °C 0,0 km/h (0 Bft)
06.11.2018 01:21 11,9 °C 55 % 1007,4 hPa 0,0 mm 0,0 km/h (0 Bft) N-NW 341 ° 0 min 0,000 mm 0,0 UV-I 0 W/m² 3,2 °C 11,9 °C 0,0 km/h (0 Bft)
06.11.2018 01:22 11,9 °C 56 % 1007,4 hPa 0,0 mm 0,5 km/h (0 Bft) N-NW 341 ° 0 min 0,000 mm 0,0 UV-I 0 W/m² 3,4 °C 11,9 °C 1,6 km/h (1 Bft)
06.11.2018 01:23 11,9 °C 54 % 1007,3 hPa 0,0 mm 0,0 km/h (0 Bft) N-NW 341 ° 0 min 0,000 mm 0,0 UV-I 0 W/m² 2,9 °C 11,9 °C 0,0 km/h (0 Bft)
06.11.2018 01:24 12,0 °C 54 % 1007,3 hPa 0,0 mm 0,0 km/h (0 Bft) N-NW 341 ° 0 min 0,000 mm 0,0 UV-I 0 W/m² 3,0 °C 12,0 °C 0,0 km/h (0 Bft)
06.11.2018 01:25 12,1 °C 53 % 1007,3 hPa 0,0 mm 0,0 km/h (0 Bft) N-NW 341 ° 0 min 0,000 mm 0,0 UV-I 0 W/m² 2,8 °C 12,1 °C 0,0 km/h (0 Bft)
06.11.2018 01:26 12,2 °C 53 % 1007,3 hPa 0,0 mm 0,6 km/h (0 Bft) N-NW 341 ° 0 min 0,000 mm 0,0 UV-I 0 W/m² 2,9 °C 12,2 °C 1,6 km/h (1 Bft)
06.11.2018 01:27 12,1 °C 53 % 1007,3 hPa 0,0 mm 0,0 km/h (0 Bft) N-NW 341 ° 0 min 0,000 mm 0,0 UV-I 0 W/m² 2,8 °C 12,1 °C 0,0 km/h (0 Bft)
06.11.2018 01:28 12,1 °C 54 % 1007,3 hPa 0,0 mm 0,0 km/h (0 Bft) N-NW 341 ° 0 min 0,000 mm 0,0 UV-I 0 W/m² 3,1 °C 12,1 °C 0,0 km/h (0 Bft)
06.11.2018 01:29 11,9 °C 55 % 1007,4 hPa 0,0 mm 0,0 km/h (0 Bft) N-NW 341 ° 0 min 0,000 mm 0,0 UV-I 0 W/m² 3,2 °C 11,9 °C 0,0 km/h (0 Bft)
06.11.2018 01:30 11,7 °C 56 % 1007,4 hPa 0,0 mm 2,0 km/h (1 Bft) N-NW 341 ° 0 min 0,000 mm 0,0 UV-I 0 W/m² 3,2 °C 11,7 °C 3,2 km/h (1 Bft)
06.11.2018 01:31 11,7 °C 54 % 1007,4 hPa 0,0 mm 0,5 km/h (0 Bft) N-NW 340 ° 0 min 0,000 mm 0,0 UV-I 0 W/m² 2,7 °C 11,7 °C 3,2 km/h (1 Bft)
06.11.2018 01:32 11,8 °C 54 % 1007,4 hPa 0,0 mm 2,3 km/h (1 Bft) W-SW 244 ° 0 min 0,000 mm 0,0 UV-I 0 W/m² 2,8 °C 11,8 °C 3,2 km/h (1 Bft)
06.11.2018 01:33 12,0 °C 53 % 1007,4 hPa 0,0 mm 0,6 km/h (0 Bft) W-SW 244 ° 0 min 0,000 mm 0,0 UV-I 0 W/m² 2,7 °C 12,0 °C 1,6 km/h (1 Bft)
06.11.2018 01:34 12,1 °C 53 % 1007,4 hPa 0,0 mm 0,0 km/h (0 Bft) W-SW 244 ° 0 min 0,000 mm 0,0 UV-I 0 W/m² 2,8 °C 12,1 °C 0,0 km/h (0 Bft)
06.11.2018 01:35 12,2 °C 54 % 1007,4 hPa 0,0 mm 0,5 km/h (0 Bft) W-SW 243 ° 0 min 0,000 mm 0,0 UV-I 0 W/m² 3,2 °C 12,2 °C 1,6 km/h (1 Bft)
06.11.2018 01:36 12,1 °C 55 % 1007,4 hPa 0,0 mm 2,0 km/h (1 Bft) W-SW 243 ° 0 min 0,000 mm 0,0 UV-I 0 W/m² 3,3 °C 12,1 °C 3,2 km/h (1 Bft)
06.11.2018 01:37 11,9 °C 56 % 1007,5 hPa 0,0 mm 2,5 km/h (1 Bft) W-SW 243 ° 0 min 0,000 mm 0,0 UV-I 0 W/m² 3,4 °C 11,9 °C 4,8 km/h (1 Bft)
06.11.2018 01:38 12,0 °C 54 % 1007,5 hPa 0,0 mm 4,4 km/h (1 Bft) S-SO 165 ° 0 min 0,000 mm 0,0 UV-I 0 W/m² 3,0 °C 12,0 °C 6,4 km/h (2 Bft)
06.11.2018 01:39 12,2 °C 52 % 1007,5 hPa 0,0 mm 2,4 km/h (1 Bft) S-SO 164 ° 0 min 0,000 mm 0,0 UV-I 0 W/m² 2,6 °C 12,2 °C 8,0 km/h (2 Bft)
06.11.2018 01:40 12,2 °C 56 % 1007,3 hPa 0,0 mm 1,1 km/h (1 Bft) S-SO 154 ° 0 min 0,000 mm 0,0 UV-I 0 W/m² 3,7 °C 12,2 °C 3,2 km/h (1 Bft)
06.11.2018 01:41 12,2 °C 54 % 1007,4 hPa 0,0 mm 3,7 km/h (1 Bft) S 172 ° 0 min 0,000 mm 0,0 UV-I 0 W/m² 3,2 °C 12,2 °C 8,0 km/h (2 Bft)
06.11.2018 01:42 12,1 °C 54 % 1007,4 hPa 0,0 mm 1,1 km/h (1 Bft) S 172 ° 0 min 0,000 mm 0,0 UV-I 0 W/m² 3,1 °C 12,1 °C 3,2 km/h (1 Bft)
06.11.2018 01:43 11,9 °C 54 % 1007,3 hPa 0,0 mm 0,9 km/h (0 Bft) S 172 ° 0 min 0,000 mm 0,0 UV-I 0 W/m² 2,9 °C 11,9 °C 1,6 km/h (1 Bft)
06.11.2018 01:44 11,9 °C 54 % 1007,3 hPa 0,0 mm 1,5 km/h (1 Bft) S 172 ° 0 min 0,000 mm 0,0 UV-I 0 W/m² 2,9 °C 11,9 °C 3,2 km/h (1 Bft)
06.11.2018 01:45 11,9 °C 54 % 1007,4 hPa 0,0 mm 1,7 km/h (1 Bft) S 172 ° 0 min 0,000 mm 0,0 UV-I 0 W/m² 2,9 °C 11,9 °C 3,2 km/h (1 Bft)
06.11.2018 01:46 12,1 °C 53 % 1007,3 hPa 0,0 mm 0,3 km/h (0 Bft) S 172 ° 0 min 0,000 mm 0,0 UV-I 0 W/m² 2,8 °C 12,1 °C 3,2 km/h (1 Bft)
06.11.2018 01:47 12,1 °C 57 % 1007,3 hPa 0,0 mm 0,7 km/h (0 Bft) S 172 ° 0 min 0,000 mm 0,0 UV-I 0 W/m² 3,8 °C 12,1 °C 3,2 km/h (1 Bft)
06.11.2018 01:48 11,9 °C 56 % 1007,3 hPa 0,0 mm 3,4 km/h (1 Bft) S 171 ° 0 min 0,000 mm 0,0 UV-I 0 W/m² 3,4 °C 11,9 °C 6,4 km/h (2 Bft)
06.11.2018 01:49 12,0 °C 54 % 1007,4 hPa 0,0 mm 1,9 km/h (1 Bft) S 171 ° 0 min 0,000 mm 0,0 UV-I 0 W/m² 3,0 °C 12,0 °C 3,2 km/h (1 Bft)
06.11.2018 01:50 12,2 °C 53 % 1007,4 hPa 0,0 mm 1,5 km/h (1 Bft) S 171 ° 0 min 0,000 mm 0,0 UV-I 0 W/m² 2,9 °C 12,2 °C 6,4 km/h (2 Bft)
06.11.2018 01:51 12,3 °C 53 % 1007,3 hPa 0,0 mm 0,0 km/h (0 Bft) S 171 ° 0 min 0,000 mm 0,0 UV-I 0 W/m² 3,0 °C 12,3 °C 0,0 km/h (0 Bft)
06.11.2018 01:52 12,3 °C 53 % 1007,3 hPa 0,0 mm 2,4 km/h (1 Bft) S 171 ° 0 min 0,000 mm 0,0 UV-I 0 W/m² 3,0 °C 12,3 °C 6,4 km/h (2 Bft)
06.11.2018 01:53 12,2 °C 54 % 1007,3 hPa 0,0 mm 0,1 km/h (0 Bft) S 171 ° 0 min 0,000 mm 0,0 UV-I 0 W/m² 3,2 °C 12,2 °C 1,6 km/h (1 Bft)
06.11.2018 01:54 11,9 °C 55 % 1007,2 hPa 0,0 mm 0,0 km/h (0 Bft) S 171 ° 0 min 0,000 mm 0,0 UV-I 0 W/m² 3,2 °C 11,9 °C 0,0 km/h (0 Bft)
06.11.2018 01:55 11,7 °C 56 % 1007,3 hPa 0,0 mm 0,0 km/h (0 Bft) S 171 ° 0 min 0,000 mm 0,0 UV-I 0 W/m² 3,2 °C 11,7 °C 0,0 km/h (0 Bft)
06.11.2018 01:56 11,5 °C 57 % 1007,3 hPa 0,0 mm 0,0 km/h (0 Bft) S 171 ° 0 min 0,000 mm 0,0 UV-I 0 W/m² 3,3 °C 11,5 °C 0,0 km/h (0 Bft)
06.11.2018 01:57 11,4 °C 57 % 1007,3 hPa 0,0 mm 0,9 km/h (0 Bft) S 171 ° 0 min 0,000 mm 0,0 UV-I 0 W/m² 3,2 °C 11,4 °C 3,2 km/h (1 Bft)
06.11.2018 01:58 11,3 °C 59 % 1007,3 hPa 0,0 mm 0,9 km/h (0 Bft) S 171 ° 0 min 0,000 mm 0,0 UV-I 0 W/m² 3,6 °C 11,3 °C 1,6 km/h (1 Bft)
06.11.2018 01:59 11,2 °C 58 % 1007,3 hPa 0,0 mm 2,3 km/h (1 Bft) S 171 ° 0 min 0,000 mm 0,0 UV-I 0 W/m² 3,2 °C 11,2 °C 6,4 km/h (2 Bft)
06.11.2018 02:00 11,2 °C 58 % 1007,3 hPa 0,0 mm 4,2 km/h (1 Bft) SO 128 ° 0 min 0,025 mm 0,0 UV-I 0 W/m² 3,2 °C 11,2 °C 8,0 km/h (2 Bft)
06.11.2018 02:01 11,2 °C 59 % 1007,3 hPa 0,0 mm 2,1 km/h (1 Bft) SO 128 ° 0 min 0,000 mm 0,0 UV-I 0 W/m² 3,5 °C 11,2 °C 4,8 km/h (1 Bft)
06.11.2018 02:02 11,3 °C 57 % 1007,2 hPa 0,0 mm 0,2 km/h (0 Bft) SO 128 ° 0 min 0,000 mm 0,0 UV-I 0 W/m² 3,1 °C 11,3 °C 1,6 km/h (1 Bft)
06.11.2018 02:03 11,4 °C 56 % 1007,2 hPa 0,0 mm 0,0 km/h (0 Bft) SO 128 ° 0 min 0,000 mm 0,0 UV-I 0 W/m² 2,9 °C 11,4 °C 0,0 km/h (0 Bft)
06.11.2018 02:04 11,7 °C 54 % 1007,2 hPa 0,0 mm 1,3 km/h (1 Bft) SO 128 ° 0 min 0,000 mm 0,0 UV-I 0 W/m² 2,7 °C 11,7 °C 3,2 km/h (1 Bft)
06.11.2018 02:05 11,8 °C 54 % 1007,2 hPa 0,0 mm 2,8 km/h (1 Bft) S 177 ° 0 min 0,000 mm 0,0 UV-I 0 W/m² 2,8 °C 11,8 °C 8,0 km/h (2 Bft)
06.11.2018 02:06 12,1 °C 53 % 1007,2 hPa 0,0 mm 3,6 km/h (1 Bft) SO 146 ° 0 min 0,000 mm 0,0 UV-I 0 W/m² 2,8 °C 12,1 °C 6,4 km/h (2 Bft)
06.11.2018 02:07 12,3 °C 54 % 1007,2 hPa 0,0 mm 0,5 km/h (0 Bft) SO 146 ° 0 min 0,000 mm 0,0 UV-I 0 W/m² 3,3 °C 12,3 °C 3,2 km/h (1 Bft)
06.11.2018 02:08 12,3 °C 54 % 1007,2 hPa 0,0 mm 1,3 km/h (1 Bft) SO 146 ° 0 min 0,000 mm 0,0 UV-I 0 W/m² 3,3 °C 12,3 °C 3,2 km/h (1 Bft)
06.11.2018 02:09 12,3 °C 53 % 1007,2 hPa 0,0 mm 0,4 km/h (0 Bft) SO 146 ° 0 min 0,000 mm 0,0 UV-I 0 W/m² 3,0 °C 12,3 °C 1,6 km/h (1 Bft)
06.11.2018 02:10 12,4 °C 52 % 1007,1 hPa 0,0 mm 0,7 km/h (0 Bft) SO 146 ° 0 min 0,000 mm 0,0 UV-I 0 W/m² 2,8 °C 12,4 °C 3,2 km/h (1 Bft)
06.11.2018 02:11 12,4 °C 53 % 1007,1 hPa 0,0 mm 0,0 km/h (0 Bft) SO 146 ° 0 min 0,000 mm 0,0 UV-I 0 W/m² 3,1 °C 12,4 °C 0,0 km/h (0 Bft)
06.11.2018 02:12 12,4 °C 53 % 1007,1 hPa 0,0 mm 0,4 km/h (0 Bft) SO 146 ° 0 min 0,000 mm 0,0 UV-I 0 W/m² 3,1 °C 12,4 °C 1,6 km/h (1 Bft)
06.11.2018 02:13 12,4 °C 52 % 1007,1 hPa 0,0 mm 0,0 km/h (0 Bft) SO 146 ° 0 min 0,000 mm 0,0 UV-I 0 W/m² 2,8 °C 12,4 °C 0,0 km/h (0 Bft)
06.11.2018 02:14 12,4 °C 54 % 1007,1 hPa 0,0 mm 0,0 km/h (0 Bft) SO 146 ° 0 min 0,000 mm 0,0 UV-I 0 W/m² 3,4 °C 12,4 °C 0,0 km/h (0 Bft)
06.11.2018 02:15 12,4 °C 55 % 1007,0 hPa 0,0 mm 0,0 km/h (0 Bft) SO 146 ° 0 min 0,000 mm 0,0 UV-I 0 W/m² 3,6 °C 12,4 °C 0,0 km/h (0 Bft)
06.11.2018 02:16 12,2 °C 54 % 1007,0 hPa 0,0 mm 0,7 km/h (0 Bft) SO 146 ° 0 min 0,000 mm 0,0 UV-I 0 W/m² 3,2 °C 12,2 °C 3,2 km/h (1 Bft)
06.11.2018 02:17 12,2 °C 53 % 1007,0 hPa 0,0 mm 0,5 km/h (0 Bft) SO 146 ° 0 min 0,000 mm 0,0 UV-I 0 W/m² 2,9 °C 12,2 °C 1,6 km/h (1 Bft)
06.11.2018 02:18 12,1 °C 54 % 1007,0 hPa 0,0 mm 0,1 km/h (0 Bft) SO 146 ° 0 min 0,000 mm 0,0 UV-I 0 W/m² 3,1 °C 12,1 °C 1,6 km/h (1 Bft)
06.11.2018 02:19 12,1 °C 53 % 1007,0 hPa 0,0 mm 0,0 km/h (0 Bft) SO 146 ° 0 min 0,000 mm 0,0 UV-I 0 W/m² 2,8 °C 12,1 °C 0,0 km/h (0 Bft)
06.11.2018 02:20 12,2 °C 53 % 1007,1 hPa 0,0 mm 0,9 km/h (0 Bft) SO 146 ° 0 min 0,000 mm 0,0 UV-I 0 W/m² 2,9 °C 12,2 °C 3,2 km/h (1 Bft)
06.11.2018 02:21 12,2 °C 53 % 1007,1 hPa 0,0 mm 0,8 km/h (0 Bft) SO 146 ° 0 min 0,000 mm 0,0 UV-I 0 W/m² 2,9 °C 12,2 °C 1,6 km/h (1 Bft)
06.11.2018 02:22 12,3 °C 53 % 1007,1 hPa 0,0 mm 1,5 km/h (1 Bft) SO 146 ° 0 min 0,000 mm 0,0 UV-I 0 W/m² 3,0 °C 12,3 °C 4,8 km/h (1 Bft)
06.11.2018 02:23 12,4 °C 53 % 1007,1 hPa 0,0 mm 4,7 km/h (1 Bft) S 182 ° 0 min 0,000 mm 0,0 UV-I 0 W/m² 3,1 °C 12,4 °C 6,4 km/h (2 Bft)
06.11.2018 02:24 12,4 °C 53 % 1007,1 hPa 0,0 mm 0,8 km/h (0 Bft) S 182 ° 0 min 0,000 mm 0,0 UV-I 0 W/m² 3,1 °C 12,4 °C 1,6 km/h (1 Bft)
06.11.2018 02:25 12,6 °C 52 % 1007,0 hPa 0,0 mm 2,5 km/h (1 Bft) S 177 ° 0 min 0,000 mm 0,0 UV-I 0 W/m² 3,0 °C 12,6 °C 4,8 km/h (1 Bft)
06.11.2018 02:26 12,6 °C 52 % 1006,9 hPa 0,0 mm 0,8 km/h (0 Bft) S 177 ° 0 min 0,000 mm 0,0 UV-I 0 W/m² 3,0 °C 12,6 °C 3,2 km/h (1 Bft)
06.11.2018 02:27 12,6 °C 55 % 1006,9 hPa 0,0 mm 3,0 km/h (1 Bft) SO 138 ° 0 min 0,000 mm 0,0 UV-I 0 W/m² 3,8 °C 12,6 °C 4,8 km/h (1 Bft)
06.11.2018 02:28 12,5 °C 53 % 1006,9 hPa 0,0 mm 0,6 km/h (0 Bft) SO 138 ° 0 min 0,000 mm 0,0 UV-I 0 W/m² 3,2 °C 12,5 °C 3,2 km/h (1 Bft)
06.11.2018 02:29 12,4 °C 54 % 1006,9 hPa 0,0 mm 0,9 km/h (0 Bft) NW 305 ° 0 min 0,000 mm 0,0 UV-I 0 W/m² 3,4 °C 12,4 °C 6,4 km/h (2 Bft)
06.11.2018 02:30 12,4 °C 53 % 1006,8 hPa 0,0 mm 2,1 km/h (1 Bft) SW 229 ° 0 min 0,000 mm 0,0 UV-I 0 W/m² 3,1 °C 12,4 °C 6,4 km/h (2 Bft)
06.11.2018 02:31 12,2 °C 53 % 1006,9 hPa 0,0 mm 0,0 km/h (0 Bft) SW 229 ° 0 min 0,000 mm 0,0 UV-I 0 W/m² 2,9 °C 12,2 °C 0,0 km/h (0 Bft)
06.11.2018 02:32 12,1 °C 53 % 1006,9 hPa 0,0 mm 0,0 km/h (0 Bft) SW 229 ° 0 min 0,000 mm 0,0 UV-I 0 W/m² 2,8 °C 12,1 °C 0,0 km/h (0 Bft)
06.11.2018 02:33 12,1 °C 54 % 1006,9 hPa 0,0 mm 0,0 km/h (0 Bft) SW 229 ° 0 min 0,000 mm 0,0 UV-I 0 W/m² 3,1 °C 12,1 °C 0,0 km/h (0 Bft)
06.11.2018 02:34 12,1 °C 55 % 1006,9 hPa 0,0 mm 0,0 km/h (0 Bft) SW 229 ° 0 min 0,000 mm 0,0 UV-I 0 W/m² 3,3 °C 12,1 °C 0,0 km/h (0 Bft)
06.11.2018 02:35 12,1 °C 55 % 1006,9 hPa 0,0 mm 0,8 km/h (0 Bft) SW 229 ° 0 min 0,000 mm 0,0 UV-I 0 W/m² 3,3 °C 12,1 °C 3,2 km/h (1 Bft)
06.11.2018 02:36 12,1 °C 55 % 1006,9 hPa 0,0 mm 0,0 km/h (0 Bft) SW 229 ° 0 min 0,000 mm 0,0 UV-I 0 W/m² 3,3 °C 12,1 °C 0,0 km/h (0 Bft)
06.11.2018 02:37 12,1 °C 54 % 1006,9 hPa 0,0 mm 0,0 km/h (0 Bft) SW 229 ° 0 min 0,000 mm 0,0 UV-I 0 W/m² 3,1 °C 12,1 °C 0,0 km/h (0 Bft)
06.11.2018 02:38 12,1 °C 54 % 1006,9 hPa 0,0 mm 0,8 km/h (0 Bft) SW 229 ° 0 min 0,000 mm 0,0 UV-I 0 W/m² 3,1 °C 12,1 °C 3,2 km/h (1 Bft)
06.11.2018 02:39 12,1 °C 55 % 1006,9 hPa 0,0 mm 1,5 km/h (1 Bft) SW 229 ° 0 min 0,000 mm 0,0 UV-I 0 W/m² 3,3 °C 12,1 °C 3,2 km/h (1 Bft)
06.11.2018 02:40 12,2 °C 54 % 1006,8 hPa 0,0 mm 0,7 km/h (0 Bft) SW 229 ° 0 min 0,000 mm 0,0 UV-I 0 W/m² 3,2 °C 12,2 °C 3,2 km/h (1 Bft)
06.11.2018 02:41 12,2 °C 55 % 1006,9 hPa 0,0 mm 1,1 km/h (1 Bft) SW 227 ° 0 min 0,000 mm 0,0 UV-I 0 W/m² 3,4 °C 12,2 °C 3,2 km/h (1 Bft)
06.11.2018 02:42 12,2 °C 54 % 1006,9 hPa 0,0 mm 0,1 km/h (0 Bft) SW 227 ° 0 min 0,000 mm 0,0 UV-I 0 W/m² 3,2 °C 12,2 °C 1,6 km/h (1 Bft)
06.11.2018 02:43 12,2 °C 54 % 1006,9 hPa 0,0 mm 5,1 km/h (1 Bft) N-NW 344 ° 0 min 0,000 mm 0,0 UV-I 0 W/m² 3,2 °C 12,2 °C 8,0 km/h (2 Bft)
06.11.2018 02:44 12,2 °C 54 % 1006,9 hPa 0,0 mm 1,6 km/h (1 Bft) N-NW 344 ° 0 min 0,000 mm 0,0 UV-I 0 W/m² 3,2 °C 12,2 °C 6,4 km/h (2 Bft)
06.11.2018 02:45 12,2 °C 53 % 1006,9 hPa 0,0 mm 0,0 km/h (0 Bft) N-NW 344 ° 0 min 0,000 mm 0,0 UV-I 0 W/m² 2,9 °C 12,2 °C 0,0 km/h (0 Bft)
06.11.2018 02:46 12,3 °C 53 % 1006,9 hPa 0,0 mm 0,0 km/h (0 Bft) N-NW 344 ° 0 min 0,000 mm 0,0 UV-I 0 W/m² 3,0 °C 12,3 °C 0,0 km/h (0 Bft)
06.11.2018 02:47 12,3 °C 53 % 1006,9 hPa 0,0 mm 0,0 km/h (0 Bft) N-NW 344 ° 0 min 0,000 mm 0,0 UV-I 0 W/m² 3,0 °C 12,3 °C 0,0 km/h (0 Bft)
06.11.2018 02:48 12,3 °C 53 % 1006,9 hPa 0,0 mm 0,5 km/h (0 Bft) W-NW 295 ° 0 min 0,000 mm 0,0 UV-I 0 W/m² 3,0 °C 12,3 °C 1,6 km/h (1 Bft)
06.11.2018 02:49 12,2 °C 53 % 1006,9 hPa 0,0 mm 0,9 km/h (0 Bft) W-NW 295 ° 0 min 0,000 mm 0,0 UV-I 0 W/m² 2,9 °C 12,2 °C 3,2 km/h (1 Bft)
06.11.2018 02:50 12,1 °C 55 % 1006,9 hPa 0,0 mm 0,1 km/h (0 Bft) W-SW 250 ° 0 min 0,000 mm 0,0 UV-I 0 W/m² 3,3 °C 12,1 °C 1,6 km/h (1 Bft)
06.11.2018 02:51 12,1 °C 54 % 1006,9 hPa 0,0 mm 1,6 km/h (1 Bft) W 266 ° 0 min 0,000 mm 0,0 UV-I 0 W/m² 3,1 °C 12,1 °C 3,2 km/h (1 Bft)
06.11.2018 02:52 12,1 °C 54 % 1006,9 hPa 0,0 mm 0,5 km/h (0 Bft) W-SW 248 ° 0 min 0,000 mm 0,0 UV-I 0 W/m² 3,1 °C 12,1 °C 1,6 km/h (1 Bft)
06.11.2018 02:53 12,1 °C 54 % 1006,8 hPa 0,0 mm 1,4 km/h (1 Bft) W-SW 237 ° 0 min 0,000 mm 0,0 UV-I 0 W/m² 3,1 °C 12,1 °C 4,8 km/h (1 Bft)
06.11.2018 02:54 12,1 °C 54 % 1006,8 hPa 0,0 mm 1,2 km/h (1 Bft) W-SW 237 ° 0 min 0,000 mm 0,0 UV-I 0 W/m² 3,1 °C 12,1 °C 3,2 km/h (1 Bft)
06.11.2018 02:55 12,2 °C 53 % 1006,8 hPa 0,0 mm 1,4 km/h (1 Bft) W-SW 237 ° 0 min 0,000 mm 0,0 UV-I 0 W/m² 2,9 °C 12,2 °C 3,2 km/h (1 Bft)
06.11.2018 02:56 12,1 °C 53 % 1006,8 hPa 0,0 mm 0,2 km/h (0 Bft) W-SW 237 ° 0 min 0,000 mm 0,0 UV-I 0 W/m² 2,8 °C 12,1 °C 1,6 km/h (1 Bft)
06.11.2018 02:57 12,1 °C 54 % 1006,8 hPa 0,0 mm 0,0 km/h (0 Bft) W-SW 237 ° 0 min 0,000 mm 0,0 UV-I 0 W/m² 3,1 °C 12,1 °C 0,0 km/h (0 Bft)
06.11.2018 02:58 12,0 °C 57 % 1006,8 hPa 0,0 mm 0,0 km/h (0 Bft) W-SW 237 ° 0 min 0,000 mm 0,0 UV-I 0 W/m² 3,8 °C 12,0 °C 0,0 km/h (0 Bft)
06.11.2018 02:59 11,9 °C 57 % 1006,8 hPa 0,0 mm 0,0 km/h (0 Bft) W-SW 237 ° 0 min 0,000 mm 0,0 UV-I 0 W/m² 3,7 °C 11,9 °C 0,0 km/h (0 Bft)
06.11.2018 03:00 12,1 °C 55 % 1006,9 hPa 0,0 mm 0,5 km/h (0 Bft) W-SW 237 ° 0 min 0,026 mm 0,0 UV-I 0 W/m² 3,3 °C 12,1 °C 1,6 km/h (1 Bft)
06.11.2018 03:01 12,1 °C 55 % 1006,9 hPa 0,0 mm 0,0 km/h (0 Bft) W-SW 237 ° 0 min 0,000 mm 0,0 UV-I 0 W/m² 3,3 °C 12,1 °C 0,0 km/h (0 Bft)
06.11.2018 03:02 12,2 °C 55 % 1006,8 hPa 0,0 mm 1,3 km/h (1 Bft) SW 217 ° 0 min 0,000 mm 0,0 UV-I 0 W/m² 3,4 °C 12,2 °C 3,2 km/h (1 Bft)
06.11.2018 03:03 12,2 °C 55 % 1006,9 hPa 0,0 mm 2,0 km/h (1 Bft) SW 217 ° 0 min 0,000 mm 0,0 UV-I 0 W/m² 3,4 °C 12,2 °C 3,2 km/h (1 Bft)
06.11.2018 03:04 12,2 °C 57 % 1006,8 hPa 0,0 mm 0,0 km/h (0 Bft) SW 217 ° 0 min 0,000 mm 0,0 UV-I 0 W/m² 3,9 °C 12,2 °C 0,0 km/h (0 Bft)
06.11.2018 03:05 12,1 °C 55 % 1006,9 hPa 0,0 mm 0,0 km/h (0 Bft) SW 217 ° 0 min 0,000 mm 0,0 UV-I 0 W/m² 3,3 °C 12,1 °C 0,0 km/h (0 Bft)
06.11.2018 03:06 12,1 °C 56 % 1006,9 hPa 0,0 mm 0,4 km/h (0 Bft) SW 217 ° 0 min 0,000 mm 0,0 UV-I 0 W/m² 3,6 °C 12,1 °C 1,6 km/h (1 Bft)
06.11.2018 03:07 11,9 °C 56 % 1006,9 hPa 0,0 mm 1,0 km/h (0 Bft) N-NO 30 ° 0 min 0,000 mm 0,0 UV-I 0 W/m² 3,4 °C 11,9 °C 3,2 km/h (1 Bft)
06.11.2018 03:08 11,9 °C 55 % 1006,9 hPa 0,0 mm 0,0 km/h (0 Bft) N-NO 30 ° 0 min 0,000 mm 0,0 UV-I 0 W/m² 3,2 °C 11,9 °C 0,0 km/h (0 Bft)
06.11.2018 03:09 11,8 °C 57 % 1006,9 hPa 0,0 mm 1,6 km/h (1 Bft) O 80 ° 0 min 0,000 mm 0,0 UV-I 0 W/m² 3,6 °C 11,8 °C 3,2 km/h (1 Bft)
06.11.2018 03:10 11,9 °C 56 % 1006,8 hPa 0,0 mm 0,9 km/h (0 Bft) O 80 ° 0 min 0,000 mm 0,0 UV-I 0 W/m² 3,4 °C 11,9 °C 3,2 km/h (1 Bft)
06.11.2018 03:11 12,0 °C 56 % 1006,9 hPa 0,0 mm 1,8 km/h (1 Bft) O 80 ° 0 min 0,000 mm 0,0 UV-I 0 W/m² 3,5 °C 12,0 °C 3,2 km/h (1 Bft)
06.11.2018 03:12 12,1 °C 55 % 1006,9 hPa 0,0 mm 0,0 km/h (0 Bft) O 80 ° 0 min 0,000 mm 0,0 UV-I 0 W/m² 3,3 °C 12,1 °C 0,0 km/h (0 Bft)
06.11.2018 03:13 12,1 °C 54 % 1006,8 hPa 0,0 mm 0,0 km/h (0 Bft) O 80 ° 0 min 0,000 mm 0,0 UV-I 0 W/m² 3,1 °C 12,1 °C 0,0 km/h (0 Bft)
06.11.2018 03:14 12,2 °C 54 % 1006,8 hPa 0,0 mm 0,0 km/h (0 Bft) O 80 ° 0 min 0,000 mm 0,0 UV-I 0 W/m² 3,2 °C 12,2 °C 0,0 km/h (0 Bft)
06.11.2018 03:15 12,2 °C 55 % 1006,8 hPa 0,0 mm 3,9 km/h (1 Bft) NO 43 ° 0 min 0,000 mm 0,0 UV-I 0 W/m² 3,4 °C 12,2 °C 9,7 km/h (2 Bft)
06.11.2018 03:16 12,2 °C 55 % 1006,7 hPa 0,0 mm 0,8 km/h (0 Bft) NO 43 ° 0 min 0,000 mm 0,0 UV-I 0 W/m² 3,4 °C 12,2 °C 1,6 km/h (1 Bft)
06.11.2018 03:17 12,2 °C 55 % 1006,7 hPa 0,0 mm 0,0 km/h (0 Bft) NO 43 ° 0 min 0,000 mm 0,0 UV-I 0 W/m² 3,4 °C 12,2 °C 0,0 km/h (0 Bft)
06.11.2018 03:18 12,2 °C 54 % 1006,8 hPa 0,0 mm 0,8 km/h (0 Bft) NO 40 ° 0 min 0,000 mm 0,0 UV-I 0 W/m² 3,2 °C 12,2 °C 3,2 km/h (1 Bft)
06.11.2018 03:19 12,2 °C 54 % 1006,7 hPa 0,0 mm 0,3 km/h (0 Bft) NO 40 ° 0 min 0,000 mm 0,0 UV-I 0 W/m² 3,2 °C 12,2 °C 1,6 km/h (1 Bft)
06.11.2018 03:20 12,2 °C 55 % 1006,7 hPa 0,0 mm 1,7 km/h (1 Bft) NO 49 ° 0 min 0,000 mm 0,0 UV-I 0 W/m² 3,4 °C 12,2 °C 4,8 km/h (1 Bft)
06.11.2018 03:21 12,2 °C 56 % 1006,7 hPa 0,0 mm 2,6 km/h (1 Bft) O-NO 67 ° 0 min 0,000 mm 0,0 UV-I 0 W/m² 3,7 °C 12,2 °C 4,8 km/h (1 Bft)
06.11.2018 03:22 12,2 °C 56 % 1006,8 hPa 0,0 mm 0,1 km/h (0 Bft) O-NO 67 ° 0 min 0,000 mm 0,0 UV-I 0 W/m² 3,7 °C 12,2 °C 1,6 km/h (1 Bft)
06.11.2018 03:23 12,2 °C 57 % 1006,8 hPa 0,0 mm 2,3 km/h (1 Bft) O-NO 67 ° 0 min 0,000 mm 0,0 UV-I 0 W/m² 3,9 °C 12,2 °C 4,8 km/h (1 Bft)
06.11.2018 03:24 12,1 °C 59 % 1006,7 hPa 0,0 mm 2,1 km/h (1 Bft) O-NO 67 ° 0 min 0,000 mm 0,0 UV-I 0 W/m² 4,3 °C 12,1 °C 3,2 km/h (1 Bft)
06.11.2018 03:25 12,0 °C 57 % 1006,7 hPa 0,0 mm 0,7 km/h (0 Bft) O-NO 67 ° 0 min 0,000 mm 0,0 UV-I 0 W/m² 3,8 °C 12,0 °C 3,2 km/h (1 Bft)
06.11.2018 03:26 11,9 °C 57 % 1006,7 hPa 0,0 mm 0,6 km/h (0 Bft) O-NO 67 ° 0 min 0,000 mm 0,0 UV-I 0 W/m² 3,7 °C 11,9 °C 1,6 km/h (1 Bft)
06.11.2018 03:27 11,9 °C 55 % 1006,7 hPa 0,0 mm 0,0 km/h (0 Bft) O-NO 67 ° 0 min 0,000 mm 0,0 UV-I 0 W/m² 3,2 °C 11,9 °C 0,0 km/h (0 Bft)
06.11.2018 03:28 11,9 °C 55 % 1006,7 hPa 0,0 mm 0,2 km/h (0 Bft) O-NO 67 ° 0 min 0,000 mm 0,0 UV-I 0 W/m² 3,2 °C 11,9 °C 1,6 km/h (1 Bft)
06.11.2018 03:29 12,0 °C 56 % 1006,7 hPa 0,0 mm 0,0 km/h (0 Bft) O-NO 67 ° 0 min 0,000 mm 0,0 UV-I 0 W/m² 3,5 °C 12,0 °C 0,0 km/h (0 Bft)
06.11.2018 03:30 11,9 °C 59 % 1006,7 hPa 0,0 mm 2,4 km/h (1 Bft) O-NO 67 ° 0 min 0,000 mm 0,0 UV-I 0 W/m² 4,1 °C 11,9 °C 4,8 km/h (1 Bft)
06.11.2018 03:31 11,8 °C 58 % 1006,7 hPa 0,0 mm 2,4 km/h (1 Bft) O-NO 67 ° 0 min 0,000 mm 0,0 UV-I 0 W/m² 3,8 °C 11,8 °C 4,8 km/h (1 Bft)
06.11.2018 03:32 11,8 °C 59 % 1006,7 hPa 0,0 mm 2,8 km/h (1 Bft) O-NO 67 ° 0 min 0,000 mm 0,0 UV-I 0 W/m² 4,1 °C 11,8 °C 3,2 km/h (1 Bft)
06.11.2018 03:33 11,9 °C 58 % 1006,7 hPa 0,0 mm 1,7 km/h (1 Bft) O-NO 67 ° 0 min 0,000 mm 0,0 UV-I 0 W/m² 3,9 °C 11,9 °C 3,2 km/h (1 Bft)
06.11.2018 03:34 12,0 °C 58 % 1006,6 hPa 0,0 mm 2,2 km/h (1 Bft) O-NO 67 ° 0 min 0,000 mm 0,0 UV-I 0 W/m² 4,0 °C 12,0 °C 3,2 km/h (1 Bft)
06.11.2018 03:35 12,2 °C 58 % 1006,6 hPa 0,0 mm 1,9 km/h (1 Bft) O-NO 67 ° 0 min 0,000 mm 0,0 UV-I 0 W/m² 4,2 °C 12,2 °C 3,2 km/h (1 Bft)
06.11.2018 03:36 12,2 °C 58 % 1006,6 hPa 0,0 mm 2,2 km/h (1 Bft) O-NO 67 ° 0 min 0,000 mm 0,0 UV-I 0 W/m² 4,2 °C 12,2 °C 3,2 km/h (1 Bft)
06.11.2018 03:37 12,2 °C 57 % 1006,6 hPa 0,0 mm 3,1 km/h (1 Bft) O-NO 68 ° 0 min 0,000 mm 0,0 UV-I 0 W/m² 3,9 °C 12,2 °C 4,8 km/h (1 Bft)
06.11.2018 03:38 12,1 °C 58 % 1006,7 hPa 0,0 mm 2,7 km/h (1 Bft) S 184 ° 0 min 0,000 mm 0,0 UV-I 0 W/m² 4,1 °C 12,1 °C 6,4 km/h (2 Bft)
06.11.2018 03:39 12,0 °C 57 % 1006,6 hPa 0,0 mm 1,7 km/h (1 Bft) O-SO 119 ° 0 min 0,000 mm 0,0 UV-I 0 W/m² 3,8 °C 12,0 °C 4,8 km/h (1 Bft)
06.11.2018 03:40 11,9 °C 58 % 1006,6 hPa 0,0 mm 3,1 km/h (1 Bft) O 100 ° 0 min 0,000 mm 0,0 UV-I 0 W/m² 3,9 °C 11,9 °C 6,4 km/h (2 Bft)
06.11.2018 03:41 11,9 °C 59 % 1006,6 hPa 0,0 mm 3,0 km/h (1 Bft) O 97 ° 0 min 0,000 mm 0,0 UV-I 0 W/m² 4,1 °C 11,9 °C 6,4 km/h (2 Bft)
06.11.2018 03:42 11,9 °C 58 % 1006,6 hPa 0,0 mm 2,8 km/h (1 Bft) O 97 ° 0 min 0,000 mm 0,0 UV-I 0 W/m² 3,9 °C 11,9 °C 4,8 km/h (1 Bft)
06.11.2018 03:43 12,1 °C 57 % 1006,6 hPa 0,0 mm 2,3 km/h (1 Bft) O 97 ° 0 min 0,000 mm 0,0 UV-I 0 W/m² 3,8 °C 12,1 °C 3,2 km/h (1 Bft)
06.11.2018 03:44 12,2 °C 56 % 1006,5 hPa 0,0 mm 0,7 km/h (0 Bft) O 97 ° 0 min 0,000 mm 0,0 UV-I 0 W/m² 3,7 °C 12,2 °C 1,6 km/h (1 Bft)
06.11.2018 03:45 12,3 °C 55 % 1006,5 hPa 0,0 mm 0,0 km/h (0 Bft) O 97 ° 0 min 0,000 mm 0,0 UV-I 0 W/m² 3,5 °C 12,3 °C 0,0 km/h (0 Bft)
06.11.2018 03:46 12,3 °C 56 % 1006,4 hPa 0,0 mm 4,0 km/h (1 Bft) O-NO 69 ° 0 min 0,000 mm 0,0 UV-I 0 W/m² 3,8 °C 12,3 °C 6,4 km/h (2 Bft)
06.11.2018 03:47 12,2 °C 57 % 1006,4 hPa 0,0 mm 7,1 km/h (2 Bft) O 80 ° 0 min 0,000 mm 0,0 UV-I 0 W/m² 3,9 °C 12,2 °C 11,3 km/h (2 Bft)
06.11.2018 03:48 12,2 °C 58 % 1006,4 hPa 0,0 mm 3,1 km/h (1 Bft) O 94 ° 0 min 0,000 mm 0,0 UV-I 0 W/m² 4,2 °C 12,2 °C 9,7 km/h (2 Bft)
06.11.2018 03:49 12,3 °C 57 % 1006,4 hPa 0,0 mm 3,1 km/h (1 Bft) O 94 ° 0 min 0,000 mm 0,0 UV-I 0 W/m² 4,0 °C 12,3 °C 4,8 km/h (1 Bft)
06.11.2018 03:50 12,3 °C 58 % 1006,4 hPa 0,0 mm 3,1 km/h (1 Bft) O-NO 68 ° 0 min 0,000 mm 0,0 UV-I 0 W/m² 4,3 °C 12,3 °C 6,4 km/h (2 Bft)
06.11.2018 03:51 12,2 °C 58 % 1006,4 hPa 0,0 mm 3,0 km/h (1 Bft) O 80 ° 0 min 0,000 mm 0,0 UV-I 0 W/m² 4,2 °C 12,2 °C 4,8 km/h (1 Bft)
06.11.2018 03:52 12,1 °C 58 % 1006,4 hPa 0,0 mm 6,4 km/h (2 Bft) O 96 ° 0 min 0,000 mm 0,0 UV-I 0 W/m² 4,1 °C 12,1 °C 9,7 km/h (2 Bft)
06.11.2018 03:53 12,1 °C 57 % 1006,4 hPa 0,0 mm 2,9 km/h (1 Bft) O 96 ° 0 min 0,000 mm 0,0 UV-I 0 W/m² 3,8 °C 12,1 °C 3,2 km/h (1 Bft)
06.11.2018 03:54 12,0 °C 57 % 1006,4 hPa 0,0 mm 2,7 km/h (1 Bft) O 96 ° 0 min 0,000 mm 0,0 UV-I 0 W/m² 3,8 °C 12,0 °C 4,8 km/h (1 Bft)
06.11.2018 03:55 12,0 °C 56 % 1006,3 hPa 0,0 mm 0,5 km/h (0 Bft) O 96 ° 0 min 0,000 mm 0,0 UV-I 0 W/m² 3,5 °C 12,0 °C 1,6 km/h (1 Bft)
06.11.2018 03:56 12,1 °C 56 % 1006,4 hPa 0,0 mm 0,2 km/h (0 Bft) O 96 ° 0 min 0,000 mm 0,0 UV-I 0 W/m² 3,6 °C 12,1 °C 1,6 km/h (1 Bft)
06.11.2018 03:57 12,1 °C 55 % 1006,3 hPa 0,0 mm 0,3 km/h (0 Bft) O 96 ° 0 min 0,000 mm 0,0 UV-I 0 W/m² 3,3 °C 12,1 °C 1,6 km/h (1 Bft)
06.11.2018 03:58 12,2 °C 55 % 1006,3 hPa 0,0 mm 1,5 km/h (1 Bft) S 188 ° 0 min 0,000 mm 0,0 UV-I 0 W/m² 3,4 °C 12,2 °C 6,4 km/h (2 Bft)
06.11.2018 03:59 12,3 °C 54 % 1006,4 hPa 0,0 mm 0,6 km/h (0 Bft) S 188 ° 0 min 0,000 mm 0,0 UV-I 0 W/m² 3,3 °C 12,3 °C 4,8 km/h (1 Bft)
06.11.2018 04:00 12,3 °C 55 % 1006,4 hPa 0,0 mm 0,0 km/h (0 Bft) S 186 ° 0 min 0,025 mm 0,0 UV-I 0 W/m² 3,5 °C 12,3 °C 0,0 km/h (0 Bft)
06.11.2018 04:01 12,2 °C 57 % 1006,4 hPa 0,0 mm 0,5 km/h (0 Bft) S 186 ° 0 min 0,000 mm 0,0 UV-I 0 W/m² 3,9 °C 12,2 °C 1,6 km/h (1 Bft)
06.11.2018 04:02 12,1 °C 56 % 1006,4 hPa 0,0 mm 0,5 km/h (0 Bft) S 186 ° 0 min 0,000 mm 0,0 UV-I 0 W/m² 3,6 °C 12,1 °C 1,6 km/h (1 Bft)
06.11.2018 04:03 12,1 °C 56 % 1006,4 hPa 0,0 mm 2,8 km/h (1 Bft) NO 37 ° 0 min 0,000 mm 0,0 UV-I 0 W/m² 3,6 °C 12,1 °C 4,8 km/h (1 Bft)
06.11.2018 04:04 12,2 °C 56 % 1006,3 hPa 0,0 mm 2,2 km/h (1 Bft) NO 37 ° 0 min 0,000 mm 0,0 UV-I 0 W/m² 3,7 °C 12,2 °C 4,8 km/h (1 Bft)
06.11.2018 04:05 12,2 °C 56 % 1006,3 hPa 0,0 mm 5,1 km/h (1 Bft) O-NO 58 ° 0 min 0,000 mm 0,0 UV-I 0 W/m² 3,7 °C 12,2 °C 8,0 km/h (2 Bft)
06.11.2018 04:06 12,1 °C 59 % 1006,4 hPa 0,0 mm 1,6 km/h (1 Bft) O-NO 58 ° 0 min 0,000 mm 0,0 UV-I 0 W/m² 4,3 °C 12,1 °C 3,2 km/h (1 Bft)
06.11.2018 04:07 11,9 °C 58 % 1006,3 hPa 0,0 mm 2,5 km/h (1 Bft) O-NO 58 ° 0 min 0,000 mm 0,0 UV-I 0 W/m² 3,9 °C 11,9 °C 4,8 km/h (1 Bft)
06.11.2018 04:08 11,8 °C 58 % 1006,3 hPa 0,0 mm 2,4 km/h (1 Bft) N 5 ° 0 min 0,000 mm 0,0 UV-I 0 W/m² 3,8 °C 11,8 °C 8,0 km/h (2 Bft)
06.11.2018 04:09 11,8 °C 57 % 1006,2 hPa 0,0 mm 7,7 km/h (2 Bft) O 99 ° 0 min 0,000 mm 0,0 UV-I 0 W/m² 3,6 °C 11,8 °C 14,5 km/h (3 Bft)
06.11.2018 04:10 11,9 °C 57 % 1006,4 hPa 0,0 mm 5,4 km/h (1 Bft) O 91 ° 0 min 0,000 mm 0,0 UV-I 0 W/m² 3,7 °C 11,9 °C 8,0 km/h (2 Bft)
06.11.2018 04:11 12,0 °C 57 % 1006,5 hPa 0,0 mm 1,9 km/h (1 Bft) O 91 ° 0 min 0,000 mm 0,0 UV-I 0 W/m² 3,8 °C 12,0 °C 3,2 km/h (1 Bft)
06.11.2018 04:12 12,1 °C 57 % 1006,5 hPa 0,0 mm 1,5 km/h (1 Bft) O 83 ° 0 min 0,000 mm 0,0 UV-I 0 W/m² 3,8 °C 12,1 °C 3,2 km/h (1 Bft)
06.11.2018 04:13 12,1 °C 55 % 1006,5 hPa 0,0 mm 0,7 km/h (0 Bft) O 83 ° 0 min 0,000 mm 0,0 UV-I 0 W/m² 3,3 °C 12,1 °C 1,6 km/h (1 Bft)
06.11.2018 04:14 12,3 °C 55 % 1006,5 hPa 0,0 mm 0,0 km/h (0 Bft) O 83 ° 0 min 0,000 mm 0,0 UV-I 0 W/m² 3,5 °C 12,3 °C 0,0 km/h (0 Bft)
06.11.2018 04:15 12,3 °C 55 % 1006,4 hPa 0,0 mm 2,1 km/h (1 Bft) O-NO 65 ° 0 min 0,000 mm 0,0 UV-I 0 W/m² 3,5 °C 12,3 °C 4,8 km/h (1 Bft)
06.11.2018 04:16 12,3 °C 55 % 1006,4 hPa 0,0 mm 0,7 km/h (0 Bft) O-NO 65 ° 0 min 0,000 mm 0,0 UV-I 0 W/m² 3,5 °C 12,3 °C 1,6 km/h (1 Bft)
06.11.2018 04:17 12,3 °C 54 % 1006,4 hPa 0,0 mm 1,1 km/h (1 Bft) O-NO 65 ° 0 min 0,000 mm 0,0 UV-I 0 W/m² 3,3 °C 12,3 °C 3,2 km/h (1 Bft)
06.11.2018 04:18 12,3 °C 57 % 1006,4 hPa 0,0 mm 3,7 km/h (1 Bft) O-NO 77 ° 0 min 0,000 mm 0,0 UV-I 0 W/m² 4,0 °C 12,3 °C 6,4 km/h (2 Bft)
06.11.2018 04:19 12,3 °C 56 % 1006,5 hPa 0,0 mm 1,0 km/h (0 Bft) O-NO 77 ° 0 min 0,000 mm 0,0 UV-I 0 W/m² 3,8 °C 12,3 °C 3,2 km/h (1 Bft)
06.11.2018 04:20 12,3 °C 55 % 1006,5 hPa 0,0 mm 1,9 km/h (1 Bft) N-NO 32 ° 0 min 0,000 mm 0,0 UV-I 0 W/m² 3,5 °C 12,3 °C 3,2 km/h (1 Bft)
06.11.2018 04:21 12,2 °C 56 % 1006,5 hPa 0,0 mm 1,3 km/h (1 Bft) NO 51 ° 0 min 0,000 mm 0,0 UV-I 0 W/m² 3,7 °C 12,2 °C 3,2 km/h (1 Bft)
06.11.2018 04:22 12,3 °C 55 % 1006,5 hPa 0,0 mm 0,6 km/h (0 Bft) NO 51 ° 0 min 0,000 mm 0,0 UV-I 0 W/m² 3,5 °C 12,3 °C 3,2 km/h (1 Bft)
06.11.2018 04:23 12,3 °C 55 % 1006,5 hPa 0,0 mm 0,7 km/h (0 Bft) NO 51 ° 0 min 0,000 mm 0,0 UV-I 0 W/m² 3,5 °C 12,3 °C 3,2 km/h (1 Bft)
06.11.2018 04:24 12,4 °C 55 % 1006,6 hPa 0,0 mm 2,2 km/h (1 Bft) N 360 ° 0 min 0,000 mm 0,0 UV-I 0 W/m² 3,6 °C 12,4 °C 8,0 km/h (2 Bft)
06.11.2018 04:25 12,4 °C 57 % 1006,5 hPa 0,0 mm 4,4 km/h (1 Bft) NO 53 ° 0 min 0,000 mm 0,0 UV-I 0 W/m² 4,1 °C 12,4 °C 6,4 km/h (2 Bft)
06.11.2018 04:26 12,3 °C 57 % 1006,6 hPa 0,0 mm 3,8 km/h (1 Bft) O 80 ° 0 min 0,000 mm 0,0 UV-I 0 W/m² 4,0 °C 12,3 °C 11,3 km/h (2 Bft)
06.11.2018 04:27 12,3 °C 57 % 1006,6 hPa 0,0 mm 3,5 km/h (1 Bft) NO 54 ° 0 min 0,000 mm 0,0 UV-I 0 W/m² 4,0 °C 12,3 °C 6,4 km/h (2 Bft)
06.11.2018 04:28 12,2 °C 57 % 1006,6 hPa 0,0 mm 0,6 km/h (0 Bft) NO 54 ° 0 min 0,000 mm 0,0 UV-I 0 W/m² 3,9 °C 12,2 °C 1,6 km/h (1 Bft)
06.11.2018 04:29 12,2 °C 56 % 1006,5 hPa 0,0 mm 2,3 km/h (1 Bft) N-NO 20 ° 0 min 0,000 mm 0,0 UV-I 0 W/m² 3,7 °C 12,2 °C 8,0 km/h (2 Bft)
06.11.2018 04:30 12,2 °C 56 % 1006,5 hPa 0,0 mm 2,1 km/h (1 Bft) SO 127 ° 0 min 0,000 mm 0,0 UV-I 0 W/m² 3,7 °C 12,2 °C 6,4 km/h (2 Bft)
06.11.2018 04:31 12,3 °C 55 % 1006,6 hPa 0,0 mm 3,6 km/h (1 Bft) N-NO 13 ° 0 min 0,000 mm 0,0 UV-I 0 W/m² 3,5 °C 12,3 °C 6,4 km/h (2 Bft)
06.11.2018 04:32 12,4 °C 54 % 1006,6 hPa 0,0 mm 3,2 km/h (1 Bft) O-SO 113 ° 0 min 0,000 mm 0,0 UV-I 0 W/m² 3,4 °C 12,4 °C 4,8 km/h (1 Bft)
06.11.2018 04:33 12,4 °C 56 % 1006,6 hPa 0,0 mm 0,3 km/h (0 Bft) N-NO 28 ° 0 min 0,000 mm 0,0 UV-I 0 W/m² 3,9 °C 12,4 °C 1,6 km/h (1 Bft)
06.11.2018 04:34 12,3 °C 57 % 1006,5 hPa 0,0 mm 3,0 km/h (1 Bft) O 97 ° 0 min 0,000 mm 0,0 UV-I 0 W/m² 4,0 °C 12,3 °C 6,4 km/h (2 Bft)
06.11.2018 04:35 12,4 °C 56 % 1006,6 hPa 0,0 mm 0,8 km/h (0 Bft) O-SO 105 ° 0 min 0,000 mm 0,0 UV-I 0 W/m² 3,9 °C 12,4 °C 1,6 km/h (1 Bft)
06.11.2018 04:36 12,3 °C 55 % 1006,6 hPa 0,0 mm 8,0 km/h (2 Bft) S-SO 157 ° 0 min 0,000 mm 0,0 UV-I 0 W/m² 3,5 °C 12,3 °C 16,1 km/h (3 Bft)
06.11.2018 04:37 12,4 °C 55 % 1006,6 hPa 0,0 mm 1,3 km/h (1 Bft) S-SO 155 ° 0 min 0,000 mm 0,0 UV-I 0 W/m² 3,6 °C 12,4 °C 6,4 km/h (2 Bft)
06.11.2018 04:38 12,4 °C 55 % 1006,5 hPa 0,0 mm 2,8 km/h (1 Bft) NO 38 ° 0 min 0,000 mm 0,0 UV-I 0 W/m² 3,6 °C 12,4 °C 4,8 km/h (1 Bft)
06.11.2018 04:39 12,4 °C 55 % 1006,6 hPa 0,0 mm 4,5 km/h (1 Bft) S-SO 148 ° 0 min 0,000 mm 0,0 UV-I 0 W/m² 3,6 °C 12,4 °C 8,0 km/h (2 Bft)
06.11.2018 04:40 12,5 °C 54 % 1006,6 hPa 0,0 mm 2,4 km/h (1 Bft) N 5 ° 0 min 0,000 mm 0,0 UV-I 0 W/m² 3,5 °C 12,5 °C 4,8 km/h (1 Bft)
06.11.2018 04:41 12,6 °C 54 % 1006,4 hPa 0,0 mm 2,7 km/h (1 Bft) N 5 ° 0 min 0,000 mm 0,0 UV-I 0 W/m² 3,5 °C 12,6 °C 6,4 km/h (2 Bft)
06.11.2018 04:42 12,7 °C 54 % 1006,4 hPa 0,0 mm 3,2 km/h (1 Bft) O-NO 57 ° 0 min 0,000 mm 0,0 UV-I 0 W/m² 3,6 °C 12,7 °C 6,4 km/h (2 Bft)
06.11.2018 04:43 12,7 °C 55 % 1006,4 hPa 0,0 mm 2,7 km/h (1 Bft) O-NO 61 ° 0 min 0,000 mm 0,0 UV-I 0 W/m² 3,9 °C 12,7 °C 6,4 km/h (2 Bft)
06.11.2018 04:44 12,8 °C 53 % 1006,5 hPa 0,0 mm 2,3 km/h (1 Bft) S 173 ° 0 min 0,000 mm 0,0 UV-I 0 W/m² 3,5 °C 12,8 °C 4,8 km/h (1 Bft)
06.11.2018 04:45 12,9 °C 52 % 1006,5 hPa 0,0 mm 1,9 km/h (1 Bft) NW 323 ° 0 min 0,000 mm 0,0 UV-I 0 W/m² 3,3 °C 12,9 °C 6,4 km/h (2 Bft)
06.11.2018 04:46 13,1 °C 53 % 1006,5 hPa 0,0 mm 2,5 km/h (1 Bft) O 93 ° 0 min 0,000 mm 0,0 UV-I 0 W/m² 3,7 °C 13,1 °C 6,4 km/h (2 Bft)
06.11.2018 04:47 13,2 °C 53 % 1006,5 hPa 0,0 mm 1,1 km/h (1 Bft) O 93 ° 0 min 0,000 mm 0,0 UV-I 0 W/m² 3,8 °C 13,2 °C 3,2 km/h (1 Bft)
06.11.2018 04:48 13,2 °C 52 % 1006,5 hPa 0,0 mm 0,3 km/h (0 Bft) O 93 ° 0 min 0,000 mm 0,0 UV-I 0 W/m² 3,6 °C 13,2 °C 1,6 km/h (1 Bft)
06.11.2018 04:49 13,2 °C 52 % 1006,5 hPa 0,0 mm 3,0 km/h (1 Bft) N-NO 17 ° 0 min 0,000 mm 0,0 UV-I 0 W/m² 3,6 °C 13,2 °C 4,8 km/h (1 Bft)
06.11.2018 04:50 13,1 °C 52 % 1006,5 hPa 0,0 mm 2,5 km/h (1 Bft) O 89 ° 0 min 0,000 mm 0,0 UV-I 0 W/m² 3,5 °C 13,1 °C 6,4 km/h (2 Bft)
06.11.2018 04:51 13,1 °C 53 % 1006,5 hPa 0,0 mm 4,3 km/h (1 Bft) NO 53 ° 0 min 0,000 mm 0,0 UV-I 0 W/m² 3,7 °C 13,1 °C 8,0 km/h (2 Bft)
06.11.2018 04:52 13,1 °C 52 % 1006,5 hPa 0,0 mm 1,6 km/h (1 Bft) NO 46 ° 0 min 0,000 mm 0,0 UV-I 0 W/m² 3,5 °C 13,1 °C 3,2 km/h (1 Bft)
06.11.2018 04:53 13,1 °C 54 % 1006,5 hPa 0,0 mm 5,1 km/h (1 Bft) N-NO 32 ° 0 min 0,000 mm 0,0 UV-I 0 W/m² 4,0 °C 13,1 °C 9,7 km/h (2 Bft)
06.11.2018 04:54 13,1 °C 53 % 1006,5 hPa 0,0 mm 5,8 km/h (2 Bft) SO 143 ° 0 min 0,000 mm 0,0 UV-I 0 W/m² 3,7 °C 13,1 °C 9,7 km/h (2 Bft)
06.11.2018 04:55 13,0 °C 53 % 1006,5 hPa 0,0 mm 1,7 km/h (1 Bft) SO 132 ° 0 min 0,000 mm 0,0 UV-I 0 W/m² 3,6 °C 13,0 °C 3,2 km/h (1 Bft)
06.11.2018 04:56 12,9 °C 53 % 1006,6 hPa 0,0 mm 5,9 km/h (2 Bft) O-SO 122 ° 0 min 0,000 mm 0,0 UV-I 0 W/m² 3,6 °C 12,9 °C 25,7 km/h (4 Bft)
06.11.2018 04:57 12,9 °C 53 % 1006,6 hPa 0,0 mm 8,1 km/h (2 Bft) S-SO 156 ° 0 min 0,000 mm 0,0 UV-I 0 W/m² 3,6 °C 12,9 °C 25,7 km/h (4 Bft)
06.11.2018 04:58 13,0 °C 53 % 1006,7 hPa 0,0 mm 1,0 km/h (0 Bft) S-SO 157 ° 0 min 0,000 mm 0,0 UV-I 0 W/m² 3,6 °C 13,0 °C 3,2 km/h (1 Bft)
06.11.2018 04:59 13,2 °C 52 % 1006,7 hPa 0,0 mm 2,9 km/h (1 Bft) N 355 ° 0 min 0,000 mm 0,0 UV-I 0 W/m² 3,6 °C 13,2 °C 6,4 km/h (2 Bft)
06.11.2018 05:00 13,2 °C 52 % 1006,6 hPa 0,0 mm 4,3 km/h (1 Bft) N 355 ° 0 min 0,051 mm 0,0 UV-I 0 W/m² 3,6 °C 13,2 °C 6,4 km/h (2 Bft)
06.11.2018 05:01 13,2 °C 52 % 1006,5 hPa 0,0 mm 4,4 km/h (1 Bft) N 355 ° 0 min 0,000 mm 0,0 UV-I 0 W/m² 3,6 °C 13,2 °C 11,3 km/h (2 Bft)
06.11.2018 05:02 13,2 °C 53 % 1006,5 hPa 0,0 mm 4,2 km/h (1 Bft) SO 126 ° 0 min 0,000 mm 0,0 UV-I 0 W/m² 3,8 °C 13,2 °C 6,4 km/h (2 Bft)
06.11.2018 05:03 13,1 °C 53 % 1006,5 hPa 0,0 mm 4,8 km/h (1 Bft) O-NO 69 ° 0 min 0,000 mm 0,0 UV-I 0 W/m² 3,7 °C 13,1 °C 6,4 km/h (2 Bft)
06.11.2018 05:04 13,2 °C 53 % 1006,5 hPa 0,0 mm 2,3 km/h (1 Bft) N 5 ° 0 min 0,000 mm 0,0 UV-I 0 W/m² 3,8 °C 13,2 °C 4,8 km/h (1 Bft)
06.11.2018 05:05 13,3 °C 52 % 1006,5 hPa 0,0 mm 4,0 km/h (1 Bft) NO 38 ° 0 min 0,000 mm 0,0 UV-I 0 W/m² 3,7 °C 13,3 °C 9,7 km/h (2 Bft)
06.11.2018 05:06 13,4 °C 52 % 1006,5 hPa 0,0 mm 0,2 km/h (0 Bft) O-NO 57 ° 0 min 0,000 mm 0,0 UV-I 0 W/m² 3,7 °C 13,4 °C 1,6 km/h (1 Bft)
06.11.2018 05:07 13,5 °C 51 % 1006,5 hPa 0,0 mm 2,1 km/h (1 Bft) NO 53 ° 0 min 0,000 mm 0,0 UV-I 0 W/m² 3,6 °C 13,5 °C 4,8 km/h (1 Bft)
06.11.2018 05:08 13,4 °C 53 % 1006,5 hPa 0,0 mm 2,9 km/h (1 Bft) NO 53 ° 0 min 0,000 mm 0,0 UV-I 0 W/m² 4,0 °C 13,4 °C 3,2 km/h (1 Bft)
06.11.2018 05:09 13,3 °C 53 % 1006,6 hPa 0,0 mm 0,5 km/h (0 Bft) N 5 ° 0 min 0,000 mm 0,0 UV-I 0 W/m² 3,9 °C 13,3 °C 3,2 km/h (1 Bft)
06.11.2018 05:10 13,3 °C 52 % 1006,5 hPa 0,0 mm 4,0 km/h (1 Bft) NW 325 ° 0 min 0,000 mm 0,0 UV-I 0 W/m² 3,7 °C 13,3 °C 6,4 km/h (2 Bft)
06.11.2018 05:11 13,3 °C 52 % 1006,5 hPa 0,0 mm 3,9 km/h (1 Bft) NW 325 ° 0 min 0,000 mm 0,0 UV-I 0 W/m² 3,7 °C 13,3 °C 6,4 km/h (2 Bft)
06.11.2018 05:12 13,3 °C 51 % 1006,5 hPa 0,0 mm 6,0 km/h (2 Bft) O-NO 57 ° 0 min 0,000 mm 0,0 UV-I 0 W/m² 3,4 °C 13,3 °C 8,0 km/h (2 Bft)
06.11.2018 05:13 13,3 °C 52 % 1006,5 hPa 0,0 mm 4,2 km/h (1 Bft) W 277 ° 0 min 0,000 mm 0,0 UV-I 0 W/m² 3,7 °C 13,3 °C 9,7 km/h (2 Bft)
06.11.2018 05:14 13,5 °C 51 % 1006,5 hPa 0,0 mm 2,9 km/h (1 Bft) SW 218 ° 0 min 0,000 mm 0,0 UV-I 0 W/m² 3,6 °C 13,5 °C 6,4 km/h (2 Bft)
06.11.2018 05:15 13,6 °C 52 % 1006,5 hPa 0,0 mm 0,5 km/h (0 Bft) S 182 ° 0 min 0,000 mm 0,0 UV-I 0 W/m² 3,9 °C 13,6 °C 3,2 km/h (1 Bft)
06.11.2018 05:16 13,6 °C 51 % 1006,5 hPa 0,0 mm 0,3 km/h (0 Bft) S-SO 161 ° 0 min 0,000 mm 0,0 UV-I 0 W/m² 3,7 °C 13,6 °C 1,6 km/h (1 Bft)
06.11.2018 05:17 13,5 °C 52 % 1006,5 hPa 0,0 mm 2,8 km/h (1 Bft) W-NW 303 ° 0 min 0,000 mm 0,0 UV-I 0 W/m² 3,8 °C 13,5 °C 4,8 km/h (1 Bft)
06.11.2018 05:18 13,4 °C 52 % 1006,5 hPa 0,0 mm 1,5 km/h (1 Bft) NW 322 ° 0 min 0,000 mm 0,0 UV-I 0 W/m² 3,7 °C 13,4 °C 4,8 km/h (1 Bft)
06.11.2018 05:19 13,3 °C 53 % 1006,6 hPa 0,0 mm 1,9 km/h (1 Bft) O-NO 71 ° 0 min 0,000 mm 0,0 UV-I 0 W/m² 3,9 °C 13,3 °C 4,8 km/h (1 Bft)
06.11.2018 05:20 13,2 °C 54 % 1006,6 hPa 0,0 mm 5,9 km/h (2 Bft) O-NO 72 ° 0 min 0,000 mm 0,0 UV-I 0 W/m² 4,1 °C 13,2 °C 9,7 km/h (2 Bft)
06.11.2018 05:21 13,1 °C 54 % 1006,5 hPa 0,0 mm 6,8 km/h (2 Bft) O 99 ° 0 min 0,000 mm 0,0 UV-I 0 W/m² 4,0 °C 13,1 °C 11,3 km/h (2 Bft)
06.11.2018 05:22 13,1 °C 54 % 1006,5 hPa 0,0 mm 5,5 km/h (1 Bft) O-NO 71 ° 0 min 0,000 mm 0,0 UV-I 0 W/m² 4,0 °C 13,1 °C 9,7 km/h (2 Bft)
06.11.2018 05:23 13,1 °C 53 % 1006,5 hPa 0,0 mm 4,8 km/h (1 Bft) N-NW 348 ° 0 min 0,000 mm 0,0 UV-I 0 W/m² 3,7 °C 13,1 °C 8,0 km/h (2 Bft)
06.11.2018 05:24 13,2 °C 52 % 1006,5 hPa 0,0 mm 4,4 km/h (1 Bft) O-NO 59 ° 0 min 0,000 mm 0,0 UV-I 0 W/m² 3,6 °C 13,2 °C 11,3 km/h (2 Bft)
06.11.2018 05:25 13,2 °C 54 % 1006,5 hPa 0,0 mm 7,7 km/h (2 Bft) O-SO 111 ° 0 min 0,000 mm 0,0 UV-I 0 W/m² 4,1 °C 13,2 °C 12,9 km/h (3 Bft)
06.11.2018 05:26 13,1 °C 54 % 1006,5 hPa 0,0 mm 3,5 km/h (1 Bft) NW 308 ° 0 min 0,000 mm 0,0 UV-I 0 W/m² 4,0 °C 13,1 °C 4,8 km/h (1 Bft)
06.11.2018 05:27 13,2 °C 52 % 1006,5 hPa 0,0 mm 0,2 km/h (0 Bft) NW 308 ° 0 min 0,000 mm 0,0 UV-I 0 W/m² 3,6 °C 13,2 °C 1,6 km/h (1 Bft)
06.11.2018 05:28 13,2 °C 53 % 1006,5 hPa 0,0 mm 3,2 km/h (1 Bft) NO 42 ° 0 min 0,000 mm 0,0 UV-I 0 W/m² 3,8 °C 13,2 °C 6,4 km/h (2 Bft)
06.11.2018 05:29 13,1 °C 55 % 1006,5 hPa 0,0 mm 3,2 km/h (1 Bft) NO 41 ° 0 min 0,000 mm 0,0 UV-I 0 W/m² 4,3 °C 13,1 °C 6,4 km/h (2 Bft)
06.11.2018 05:30 12,9 °C 55 % 1006,5 hPa 0,0 mm 1,4 km/h (1 Bft) NO 41 ° 0 min 0,000 mm 0,0 UV-I 0 W/m² 4,1 °C 12,9 °C 3,2 km/h (1 Bft)
06.11.2018 05:31 12,9 °C 54 % 1006,5 hPa 0,0 mm 3,1 km/h (1 Bft) O-SO 110 ° 0 min 0,000 mm 0,0 UV-I 0 W/m² 3,8 °C 12,9 °C 6,4 km/h (2 Bft)
06.11.2018 05:32 12,9 °C 53 % 1006,5 hPa 0,0 mm 0,0 km/h (0 Bft) O-SO 110 ° 0 min 0,000 mm 0,0 UV-I 0 W/m² 3,6 °C 12,9 °C 0,0 km/h (0 Bft)
06.11.2018 05:33 13,1 °C 53 % 1006,5 hPa 0,0 mm 0,2 km/h (0 Bft) O-SO 110 ° 0 min 0,000 mm 0,0 UV-I 0 W/m² 3,7 °C 13,1 °C 1,6 km/h (1 Bft)
06.11.2018 05:34 13,2 °C 52 % 1006,6 hPa 0,0 mm 1,6 km/h (1 Bft) S-SO 159 ° 0 min 0,000 mm 0,0 UV-I 0 W/m² 3,6 °C 13,2 °C 3,2 km/h (1 Bft)
06.11.2018 05:35 13,2 °C 52 % 1006,7 hPa 0,0 mm 0,1 km/h (0 Bft) S-SO 159 ° 0 min 0,000 mm 0,0 UV-I 0 W/m² 3,6 °C 13,2 °C 1,6 km/h (1 Bft)
06.11.2018 05:36 13,3 °C 52 % 1006,7 hPa 0,0 mm 1,1 km/h (1 Bft) S-SO 159 ° 0 min 0,000 mm 0,0 UV-I 0 W/m² 3,7 °C 13,3 °C 3,2 km/h (1 Bft)
06.11.2018 05:37 13,2 °C 55 % 1006,6 hPa 0,0 mm 0,2 km/h (0 Bft) S-SO 159 ° 0 min 0,000 mm 0,0 UV-I 0 W/m² 4,4 °C 13,2 °C 1,6 km/h (1 Bft)
06.11.2018 05:38 13,0 °C 54 % 1006,5 hPa 0,0 mm 0,4 km/h (0 Bft) S-SO 159 ° 0 min 0,000 mm 0,0 UV-I 0 W/m² 3,9 °C 13,0 °C 1,6 km/h (1 Bft)
06.11.2018 05:39 12,8 °C 54 % 1006,5 hPa 0,0 mm 0,3 km/h (0 Bft) S-SO 159 ° 0 min 0,000 mm 0,0 UV-I 0 W/m² 3,7 °C 12,8 °C 1,6 km/h (1 Bft)
06.11.2018 05:40 12,8 °C 53 % 1006,5 hPa 0,0 mm 2,1 km/h (1 Bft) S-SO 159 ° 0 min 0,000 mm 0,0 UV-I 0 W/m² 3,5 °C 12,8 °C 3,2 km/h (1 Bft)
06.11.2018 05:41 12,8 °C 53 % 1006,5 hPa 0,0 mm 2,1 km/h (1 Bft) W-SW 242 ° 0 min 0,000 mm 0,0 UV-I 0 W/m² 3,5 °C 12,8 °C 3,2 km/h (1 Bft)
06.11.2018 05:42 12,8 °C 54 % 1006,5 hPa 0,0 mm 0,5 km/h (0 Bft) W-SW 242 ° 0 min 0,000 mm 0,0 UV-I 0 W/m² 3,7 °C 12,8 °C 3,2 km/h (1 Bft)
06.11.2018 05:43 12,7 °C 54 % 1006,6 hPa 0,0 mm 0,7 km/h (0 Bft) SW 232 ° 0 min 0,000 mm 0,0 UV-I 0 W/m² 3,6 °C 12,7 °C 3,2 km/h (1 Bft)
06.11.2018 05:44 12,7 °C 55 % 1006,6 hPa 0,0 mm 0,4 km/h (0 Bft) SW 232 ° 0 min 0,000 mm 0,0 UV-I 0 W/m² 3,9 °C 12,7 °C 1,6 km/h (1 Bft)
06.11.2018 05:45 12,7 °C 55 % 1006,5 hPa 0,0 mm 0,4 km/h (0 Bft) SW 231 ° 0 min 0,000 mm 0,0 UV-I 0 W/m² 3,9 °C 12,7 °C 1,6 km/h (1 Bft)
06.11.2018 05:46 12,7 °C 54 % 1006,5 hPa 0,0 mm 2,3 km/h (1 Bft) SW 231 ° 0 min 0,000 mm 0,0 UV-I 0 W/m² 3,6 °C 12,7 °C 3,2 km/h (1 Bft)
06.11.2018 05:47 12,7 °C 54 % 1006,5 hPa 0,0 mm 0,7 km/h (0 Bft) SW 231 ° 0 min 0,000 mm 0,0 UV-I 0 W/m² 3,6 °C 12,7 °C 1,6 km/h (1 Bft)
06.11.2018 05:48 12,7 °C 54 % 1006,5 hPa 0,0 mm 1,8 km/h (1 Bft) W 275 ° 0 min 0,000 mm 0,0 UV-I 0 W/m² 3,6 °C 12,7 °C 4,8 km/h (1 Bft)
06.11.2018 05:49 12,7 °C 56 % 1006,5 hPa 0,0 mm 2,7 km/h (1 Bft) S-SO 159 ° 0 min 0,000 mm 0,0 UV-I 0 W/m² 4,2 °C 12,7 °C 6,4 km/h (2 Bft)
06.11.2018 05:50 12,7 °C 55 % 1006,5 hPa 0,0 mm 2,8 km/h (1 Bft) S-SO 159 ° 0 min 0,000 mm 0,0 UV-I 0 W/m² 3,9 °C 12,7 °C 6,4 km/h (2 Bft)
06.11.2018 05:51 12,7 °C 54 % 1006,5 hPa 0,0 mm 2,5 km/h (1 Bft) S-SO 159 ° 0 min 0,000 mm 0,0 UV-I 0 W/m² 3,6 °C 12,7 °C 3,2 km/h (1 Bft)
06.11.2018 05:52 12,8 °C 56 % 1006,5 hPa 0,0 mm 1,3 km/h (1 Bft) S-SO 159 ° 0 min 0,000 mm 0,0 UV-I 0 W/m² 4,2 °C 12,8 °C 3,2 km/h (1 Bft)
06.11.2018 05:53 12,6 °C 55 % 1006,5 hPa 0,0 mm 0,0 km/h (0 Bft) S-SO 159 ° 0 min 0,000 mm 0,0 UV-I 0 W/m² 3,8 °C 12,6 °C 0,0 km/h (0 Bft)
06.11.2018 05:54 12,6 °C 55 % 1006,5 hPa 0,0 mm 0,3 km/h (0 Bft) S-SO 159 ° 0 min 0,000 mm 0,0 UV-I 0 W/m² 3,8 °C 12,6 °C 1,6 km/h (1 Bft)
06.11.2018 05:55 12,6 °C 55 % 1006,5 hPa 0,0 mm 0,9 km/h (0 Bft) S-SO 159 ° 0 min 0,000 mm 0,0 UV-I 0 W/m² 3,8 °C 12,6 °C 1,6 km/h (1 Bft)
06.11.2018 05:56 12,4 °C 54 % 1006,5 hPa 0,0 mm 0,7 km/h (0 Bft) S-SO 159 ° 0 min 0,000 mm 0,0 UV-I 0 W/m² 3,4 °C 12,4 °C 3,2 km/h (1 Bft)
06.11.2018 05:57 12,2 °C 57 % 1006,5 hPa 0,0 mm 5,2 km/h (1 Bft) SO 138 ° 0 min 0,000 mm 0,0 UV-I 0 W/m² 3,9 °C 12,2 °C 6,4 km/h (2 Bft)
06.11.2018 05:58 12,2 °C 58 % 1006,5 hPa 0,0 mm 2,8 km/h (1 Bft) SO 138 ° 0 min 0,000 mm 0,0 UV-I 0 W/m² 4,2 °C 12,2 °C 4,8 km/h (1 Bft)
06.11.2018 05:59 12,1 °C 56 % 1006,4 hPa 0,0 mm 0,1 km/h (0 Bft) SO 138 ° 0 min 0,000 mm 0,0 UV-I 0 W/m² 3,6 °C 12,1 °C 1,6 km/h (1 Bft)
06.11.2018 06:00 12,2 °C 55 % 1006,4 hPa 0,0 mm 0,0 km/h (0 Bft) SO 138 ° 0 min 0,000 mm 0,0 UV-I 0 W/m² 3,4 °C 12,2 °C 0,0 km/h (0 Bft)
06.11.2018 06:01 12,3 °C 55 % 1006,4 hPa 0,0 mm 3,4 km/h (1 Bft) W-NW 292 ° 0 min 0,051 mm 0,0 UV-I 0 W/m² 3,5 °C 12,3 °C 6,4 km/h (2 Bft)
06.11.2018 06:02 12,3 °C 56 % 1006,4 hPa 0,0 mm 6,2 km/h (2 Bft) W 280 ° 0 min 0,000 mm 0,0 UV-I 0 W/m² 3,8 °C 12,3 °C 8,0 km/h (2 Bft)
06.11.2018 06:03 12,6 °C 54 % 1006,4 hPa 0,0 mm 5,3 km/h (1 Bft) O-SO 122 ° 0 min 0,000 mm 0,0 UV-I 0 W/m² 3,5 °C 12,6 °C 8,0 km/h (2 Bft)
06.11.2018 06:04 12,7 °C 55 % 1006,4 hPa 0,0 mm 5,5 km/h (1 Bft) SO 146 ° 0 min 0,000 mm 0,0 UV-I 0 W/m² 3,9 °C 12,7 °C 8,0 km/h (2 Bft)
06.11.2018 06:05 12,8 °C 55 % 1006,4 hPa 0,0 mm 2,9 km/h (1 Bft) SO 146 ° 0 min 0,000 mm 0,0 UV-I 0 W/m² 4,0 °C 12,8 °C 4,8 km/h (1 Bft)
06.11.2018 06:06 12,8 °C 55 % 1006,4 hPa 0,0 mm 2,7 km/h (1 Bft) SO 146 ° 0 min 0,000 mm 0,0 UV-I 0 W/m² 4,0 °C 12,8 °C 3,2 km/h (1 Bft)
06.11.2018 06:07 12,8 °C 54 % 1006,4 hPa 0,0 mm 2,9 km/h (1 Bft) SO 146 ° 0 min 0,000 mm 0,0 UV-I 0 W/m² 3,7 °C 12,8 °C 4,8 km/h (1 Bft)
06.11.2018 06:08 12,8 °C 54 % 1006,4 hPa 0,0 mm 0,8 km/h (0 Bft) SO 146 ° 0 min 0,000 mm 0,0 UV-I 0 W/m² 3,7 °C 12,8 °C 3,2 km/h (1 Bft)
06.11.2018 06:09 12,8 °C 54 % 1006,4 hPa 0,0 mm 2,5 km/h (1 Bft) S-SO 155 ° 0 min 0,000 mm 0,0 UV-I 0 W/m² 3,7 °C 12,8 °C 4,8 km/h (1 Bft)
06.11.2018 06:10 12,7 °C 56 % 1006,4 hPa 0,0 mm 1,5 km/h (1 Bft) S-SO 153 ° 0 min 0,000 mm 0,0 UV-I 0 W/m² 4,2 °C 12,7 °C 3,2 km/h (1 Bft)
06.11.2018 06:11 12,6 °C 55 % 1006,4 hPa 0,0 mm 4,8 km/h (1 Bft) S 186 ° 0 min 0,000 mm 0,0 UV-I 0 W/m² 3,8 °C 12,6 °C 8,0 km/h (2 Bft)
06.11.2018 06:12 12,7 °C 55 % 1006,4 hPa 0,0 mm 2,2 km/h (1 Bft) S 186 ° 0 min 0,000 mm 0,0 UV-I 0 W/m² 3,9 °C 12,7 °C 6,4 km/h (2 Bft)
06.11.2018 06:13 12,6 °C 55 % 1006,4 hPa 0,0 mm 0,5 km/h (0 Bft) S 186 ° 0 min 0,000 mm 0,0 UV-I 0 W/m² 3,8 °C 12,6 °C 1,6 km/h (1 Bft)
06.11.2018 06:14 12,6 °C 55 % 1006,4 hPa 0,0 mm 1,3 km/h (1 Bft) S 186 ° 0 min 0,000 mm 0,0 UV-I 0 W/m² 3,8 °C 12,6 °C 1,6 km/h (1 Bft)
06.11.2018 06:15 12,7 °C 55 % 1006,4 hPa 0,0 mm 1,8 km/h (1 Bft) S 186 ° 0 min 0,000 mm 0,0 UV-I 0 W/m² 3,9 °C 12,7 °C 4,8 km/h (1 Bft)
06.11.2018 06:16 12,6 °C 55 % 1006,4 hPa 0,0 mm 1,3 km/h (1 Bft) S 186 ° 0 min 0,000 mm 0,0 UV-I 0 W/m² 3,8 °C 12,6 °C 3,2 km/h (1 Bft)
06.11.2018 06:17 12,7 °C 54 % 1006,4 hPa 0,0 mm 0,3 km/h (0 Bft) S 186 ° 0 min 0,000 mm 0,0 UV-I 0 W/m² 3,6 °C 12,7 °C 1,6 km/h (1 Bft)
06.11.2018 06:18 12,6 °C 56 % 1006,4 hPa 0,0 mm 0,0 km/h (0 Bft) S 186 ° 0 min 0,000 mm 0,0 UV-I 0 W/m² 4,1 °C 12,6 °C 0,0 km/h (0 Bft)
06.11.2018 06:19 12,4 °C 56 % 1006,4 hPa 0,0 mm 0,0 km/h (0 Bft) S 186 ° 0 min 0,000 mm 0,0 UV-I 0 W/m² 3,9 °C 12,4 °C 0,0 km/h (0 Bft)
06.11.2018 06:20 12,2 °C 56 % 1006,4 hPa 0,0 mm 0,0 km/h (0 Bft) S 186 ° 0 min 0,000 mm 0,0 UV-I 0 W/m² 3,7 °C 12,2 °C 0,0 km/h (0 Bft)
06.11.2018 06:21 12,1 °C 57 % 1006,4 hPa 0,0 mm 0,0 km/h (0 Bft) S 186 ° 0 min 0,000 mm 0,0 UV-I 0 W/m² 3,8 °C 12,1 °C 0,0 km/h (0 Bft)
06.11.2018 06:22 12,0 °C 57 % 1006,5 hPa 0,0 mm 0,0 km/h (0 Bft) S 186 ° 0 min 0,000 mm 0,0 UV-I 0 W/m² 3,8 °C 12,0 °C 0,0 km/h (0 Bft)
06.11.2018 06:23 12,1 °C 57 % 1006,5 hPa 0,0 mm 0,0 km/h (0 Bft) S 186 ° 0 min 0,000 mm 0,0 UV-I 0 W/m² 3,8 °C 12,1 °C 0,0 km/h (0 Bft)
06.11.2018 06:24 11,9 °C 58 % 1006,5 hPa 0,0 mm 0,0 km/h (0 Bft) S 186 ° 0 min 0,000 mm 0,0 UV-I 0 W/m² 3,9 °C 11,9 °C 0,0 km/h (0 Bft)
06.11.2018 06:25 11,8 °C 59 % 1006,4 hPa 0,0 mm 0,2 km/h (0 Bft) S 186 ° 0 min 0,000 mm 0,0 UV-I 0 W/m² 4,1 °C 11,8 °C 1,6 km/h (1 Bft)
06.11.2018 06:26 11,7 °C 59 % 1006,5 hPa 0,0 mm 1,6 km/h (1 Bft) S 186 ° 0 min 0,000 mm 0,0 UV-I 0 W/m² 4,0 °C 11,7 °C 3,2 km/h (1 Bft)
06.11.2018 06:27 11,7 °C 59 % 1006,5 hPa 0,0 mm 0,0 km/h (0 Bft) S 186 ° 0 min 0,000 mm 0,0 UV-I 0 W/m² 4,0 °C 11,7 °C 0,0 km/h (0 Bft)
06.11.2018 06:28 11,6 °C 59 % 1006,5 hPa 0,0 mm 0,0 km/h (0 Bft) S 186 ° 0 min 0,000 mm 0,0 UV-I 0 W/m² 3,9 °C 11,6 °C 0,0 km/h (0 Bft)
06.11.2018 06:29 11,6 °C 59 % 1006,6 hPa 0,0 mm 0,0 km/h (0 Bft) S 186 ° 0 min 0,000 mm 0,0 UV-I 0 W/m² 3,9 °C 11,6 °C 0,0 km/h (0 Bft)
06.11.2018 06:30 11,6 °C 59 % 1006,6 hPa 0,0 mm 0,0 km/h (0 Bft) S 186 ° 0 min 0,000 mm 0,0 UV-I 0 W/m² 3,9 °C 11,6 °C 0,0 km/h (0 Bft)
06.11.2018 06:31 11,7 °C 58 % 1006,6 hPa 0,0 mm 0,0 km/h (0 Bft) S 186 ° 0 min 0,000 mm 0,0 UV-I 0 W/m² 3,7 °C 11,7 °C 0,0 km/h (0 Bft)
06.11.2018 06:32 11,7 °C 58 % 1006,6 hPa 0,0 mm 0,0 km/h (0 Bft) S 186 ° 0 min 0,000 mm 0,0 UV-I 0 W/m² 3,7 °C 11,7 °C 0,0 km/h (0 Bft)
06.11.2018 06:33 11,8 °C 58 % 1006,6 hPa 0,0 mm 0,0 km/h (0 Bft) S 186 ° 0 min 0,000 mm 0,0 UV-I 0 W/m² 3,8 °C 11,8 °C 0,0 km/h (0 Bft)
06.11.2018 06:34 11,9 °C 57 % 1006,6 hPa 0,0 mm 0,0 km/h (0 Bft) S 186 ° 0 min 0,000 mm 0,0 UV-I 0 W/m² 3,7 °C 11,9 °C 0,0 km/h (0 Bft)
06.11.2018 06:35 11,9 °C 58 % 1006,6 hPa 0,0 mm 0,0 km/h (0 Bft) S 186 ° 0 min 0,000 mm 0,0 UV-I 0 W/m² 3,9 °C 11,9 °C 0,0 km/h (0 Bft)
06.11.2018 06:36 11,8 °C 60 % 1006,7 hPa 0,0 mm 0,0 km/h (0 Bft) S 186 ° 0 min 0,000 mm 0,0 UV-I 0 W/m² 4,3 °C 11,8 °C 0,0 km/h (0 Bft)
06.11.2018 06:37 11,7 °C 60 % 1006,6 hPa 0,0 mm 0,0 km/h (0 Bft) S 186 ° 0 min 0,000 mm 0,0 UV-I 0 W/m² 4,2 °C 11,7 °C 0,0 km/h (0 Bft)
06.11.2018 06:38 11,6 °C 61 % 1006,6 hPa 0,0 mm 0,0 km/h (0 Bft) S 186 ° 0 min 0,000 mm 0,0 UV-I 0 W/m² 4,3 °C 11,6 °C 0,0 km/h (0 Bft)
06.11.2018 06:39 11,5 °C 59 % 1006,6 hPa 0,0 mm 0,0 km/h (0 Bft) S 186 ° 0 min 0,000 mm 0,0 UV-I 0 W/m² 3,8 °C 11,5 °C 0,0 km/h (0 Bft)
06.11.2018 06:40 11,6 °C 58 % 1006,6 hPa 0,0 mm 0,0 km/h (0 Bft) S 186 ° 0 min 0,000 mm 0,0 UV-I 0 W/m² 3,6 °C 11,6 °C 0,0 km/h (0 Bft)
06.11.2018 06:41 11,6 °C 58 % 1006,6 hPa 0,0 mm 0,0 km/h (0 Bft) S 186 ° 0 min 0,000 mm 0,0 UV-I 0 W/m² 3,6 °C 11,6 °C 0,0 km/h (0 Bft)
06.11.2018 06:42 11,8 °C 57 % 1006,6 hPa 0,0 mm 0,0 km/h (0 Bft) S-SW 205 ° 0 min 0,000 mm 0,0 UV-I 0 W/m² 3,6 °C 11,8 °C 0,0 km/h (0 Bft)
06.11.2018 06:43 11,9 °C 57 % 1006,7 hPa 0,0 mm 0,0 km/h (0 Bft) S-SW 205 ° 0 min 0,000 mm 0,0 UV-I 0 W/m² 3,7 °C 11,9 °C 0,0 km/h (0 Bft)
06.11.2018 06:44 12,0 °C 57 % 1006,7 hPa 0,0 mm 0,0 km/h (0 Bft) S-SW 205 ° 0 min 0,000 mm 0,0 UV-I 0 W/m² 3,8 °C 12,0 °C 0,0 km/h (0 Bft)
06.11.2018 06:45 12,0 °C 58 % 1006,7 hPa 0,0 mm 3,4 km/h (1 Bft) SO 140 ° 0 min 0,000 mm 0,0 UV-I 0 W/m² 4,0 °C 12,0 °C 6,4 km/h (2 Bft)
06.11.2018 06:46 12,1 °C 57 % 1006,7 hPa 0,0 mm 5,7 km/h (1 Bft) S-SO 155 ° 0 min 0,000 mm 0,0 UV-I 0 W/m² 3,8 °C 12,1 °C 8,0 km/h (2 Bft)
06.11.2018 06:47 12,2 °C 56 % 1006,7 hPa 0,0 mm 4,7 km/h (1 Bft) S-SO 163 ° 0 min 0,000 mm 0,0 UV-I 0 W/m² 3,7 °C 12,2 °C 6,4 km/h (2 Bft)
06.11.2018 06:48 12,4 °C 56 % 1006,7 hPa 0,0 mm 5,6 km/h (1 Bft) S 176 ° 0 min 0,000 mm 0,0 UV-I 0 W/m² 3,9 °C 12,4 °C 9,7 km/h (2 Bft)
06.11.2018 06:49 12,5 °C 55 % 1006,7 hPa 0,0 mm 5,2 km/h (1 Bft) S 176 ° 0 min 0,000 mm 0,0 UV-I 0 W/m² 3,7 °C 12,5 °C 6,4 km/h (2 Bft)
06.11.2018 06:50 12,6 °C 55 % 1006,7 hPa 0,0 mm 2,2 km/h (1 Bft) S 176 ° 0 min 0,000 mm 0,0 UV-I 0 W/m² 3,8 °C 12,6 °C 3,2 km/h (1 Bft)
06.11.2018 06:51 12,7 °C 54 % 1006,7 hPa 0,0 mm 4,8 km/h (1 Bft) S-SO 165 ° 0 min 0,000 mm 0,0 UV-I 0 W/m² 3,6 °C 12,7 °C 6,4 km/h (2 Bft)
06.11.2018 06:52 12,8 °C 54 % 1006,7 hPa 0,0 mm 2,7 km/h (1 Bft) S-SO 165 ° 0 min 0,000 mm 0,0 UV-I 0 W/m² 3,7 °C 12,8 °C 6,4 km/h (2 Bft)
06.11.2018 06:53 13,1 °C 53 % 1006,7 hPa 0,0 mm 3,5 km/h (1 Bft) S 171 ° 0 min 0,000 mm 0,0 UV-I 0 W/m² 3,7 °C 13,1 °C 8,0 km/h (2 Bft)
06.11.2018 06:54 13,2 °C 53 % 1006,7 hPa 0,0 mm 1,7 km/h (1 Bft) S 171 ° 0 min 0,000 mm 0,0 UV-I 0 W/m² 3,8 °C 13,2 °C 6,4 km/h (2 Bft)
06.11.2018 06:55 13,2 °C 54 % 1006,7 hPa 0,0 mm 2,9 km/h (1 Bft) O-SO 116 ° 0 min 0,000 mm 0,0 UV-I 5 W/m² 4,1 °C 13,2 °C 6,4 km/h (2 Bft)
06.11.2018 06:56 13,1 °C 54 % 1006,7 hPa 0,0 mm 5,0 km/h (1 Bft) O-SO 119 ° 0 min 0,000 mm 0,0 UV-I 5 W/m² 4,0 °C 13,1 °C 6,4 km/h (2 Bft)
06.11.2018 06:57 13,1 °C 54 % 1006,8 hPa 0,0 mm 1,7 km/h (1 Bft) O-SO 119 ° 0 min 0,000 mm 0,0 UV-I 5 W/m² 4,0 °C 13,1 °C 4,8 km/h (1 Bft)
06.11.2018 06:58 13,1 °C 55 % 1006,8 hPa 0,0 mm 3,6 km/h (1 Bft) O-SO 119 ° 0 min 0,000 mm 0,0 UV-I 5 W/m² 4,3 °C 13,1 °C 4,8 km/h (1 Bft)
06.11.2018 06:59 12,9 °C 55 % 1006,7 hPa 0,0 mm 2,5 km/h (1 Bft) O-NO 58 ° 0 min 0,000 mm 0,0 UV-I 5 W/m² 4,1 °C 12,9 °C 6,4 km/h (2 Bft)
06.11.2018 07:00 12,7 °C 57 % 1006,7 hPa 0,0 mm 2,4 km/h (1 Bft) O 88 ° 0 min 0,025 mm 0,0 UV-I 7 W/m² 4,4 °C 12,7 °C 6,4 km/h (2 Bft)
06.11.2018 07:01 12,5 °C 57 % 1006,7 hPa 0,0 mm 3,4 km/h (1 Bft) O 88 ° 0 min 0,000 mm 0,0 UV-I 7 W/m² 4,2 °C 12,5 °C 4,8 km/h (1 Bft)
06.11.2018 07:02 12,3 °C 60 % 1006,7 hPa 0,0 mm 3,7 km/h (1 Bft) O 88 ° 0 min 0,000 mm 0,0 UV-I 7 W/m² 4,8 °C 12,3 °C 4,8 km/h (1 Bft)
06.11.2018 07:03 12,1 °C 59 % 1006,6 hPa 0,0 mm 3,5 km/h (1 Bft) O 88 ° 0 min 0,000 mm 0,0 UV-I 7 W/m² 4,3 °C 12,1 °C 4,8 km/h (1 Bft)
06.11.2018 07:04 12,0 °C 59 % 1006,6 hPa 0,0 mm 3,5 km/h (1 Bft) S-SO 154 ° 0 min 0,000 mm 0,0 UV-I 7 W/m² 4,2 °C 12,0 °C 4,8 km/h (1 Bft)
06.11.2018 07:05 11,9 °C 59 % 1006,6 hPa 0,0 mm 6,6 km/h (2 Bft) S-SO 166 ° 0 min 0,000 mm 0,0 UV-I 5 W/m² 4,1 °C 11,9 °C 8,0 km/h (2 Bft)
06.11.2018 07:06 11,9 °C 59 % 1006,6 hPa 0,0 mm 5,6 km/h (1 Bft) S-SO 167 ° 0 min 0,000 mm 0,0 UV-I 5 W/m² 4,1 °C 11,9 °C 6,4 km/h (2 Bft)
06.11.2018 07:07 12,1 °C 58 % 1006,6 hPa 0,0 mm 2,9 km/h (1 Bft) S-SO 167 ° 0 min 0,000 mm 0,0 UV-I 5 W/m² 4,1 °C 12,1 °C 6,4 km/h (2 Bft)
06.11.2018 07:08 12,1 °C 59 % 1006,5 hPa 0,0 mm 3,4 km/h (1 Bft) S-SO 167 ° 0 min 0,000 mm 0,0 UV-I 5 W/m² 4,3 °C 12,1 °C 4,8 km/h (1 Bft)
06.11.2018 07:09 12,1 °C 59 % 1006,5 hPa 0,0 mm 4,8 km/h (1 Bft) S-SO 167 ° 0 min 0,000 mm 0,0 UV-I 5 W/m² 4,3 °C 12,1 °C 6,4 km/h (2 Bft)
06.11.2018 07:10 12,1 °C 59 % 1006,5 hPa 0,0 mm 5,4 km/h (1 Bft) S-SO 161 ° 0 min 0,000 mm 0,0 UV-I 5 W/m² 4,3 °C 12,1 °C 6,4 km/h (2 Bft)
06.11.2018 07:11 12,1 °C 59 % 1006,5 hPa 0,0 mm 3,2 km/h (1 Bft) S-SO 161 ° 0 min 0,000 mm 0,0 UV-I 5 W/m² 4,3 °C 12,1 °C 6,4 km/h (2 Bft)
06.11.2018 07:12 11,9 °C 58 % 1006,6 hPa 0,0 mm 1,5 km/h (1 Bft) S-SO 161 ° 0 min 0,000 mm 0,0 UV-I 5 W/m² 3,9 °C 11,9 °C 3,2 km/h (1 Bft)
06.11.2018 07:13 11,9 °C 59 % 1006,6 hPa 0,0 mm 0,0 km/h (0 Bft) S-SO 161 ° 0 min 0,000 mm 0,0 UV-I 5 W/m² 4,1 °C 11,9 °C 0,0 km/h (0 Bft)
06.11.2018 07:14 11,9 °C 58 % 1006,6 hPa 0,0 mm 1,2 km/h (1 Bft) S-SO 161 ° 0 min 0,000 mm 0,0 UV-I 7 W/m² 3,9 °C 11,9 °C 1,6 km/h (1 Bft)
06.11.2018 07:15 11,8 °C 60 % 1006,6 hPa 0,0 mm 0,0 km/h (0 Bft) S-SO 161 ° 0 min 0,000 mm 0,0 UV-I 7 W/m² 4,3 °C 11,8 °C 0,0 km/h (0 Bft)
06.11.2018 07:16 11,5 °C 61 % 1006,6 hPa 0,0 mm 0,0 km/h (0 Bft) S-SO 161 ° 0 min 0,000 mm 0,0 UV-I 9 W/m² 4,2 °C 11,5 °C 0,0 km/h (0 Bft)
06.11.2018 07:17 11,4 °C 60 % 1006,6 hPa 0,0 mm 3,2 km/h (1 Bft) S-SO 161 ° 0 min 0,000 mm 0,0 UV-I 9 W/m² 3,9 °C 11,4 °C 6,4 km/h (2 Bft)
06.11.2018 07:18 11,4 °C 61 % 1006,6 hPa 0,0 mm 4,3 km/h (1 Bft) S-SO 161 ° 0 min 0,000 mm 0,0 UV-I 11 W/m² 4,2 °C 11,4 °C 6,4 km/h (2 Bft)
06.11.2018 07:19 11,6 °C 60 % 1006,6 hPa 0,0 mm 4,3 km/h (1 Bft) S-SO 161 ° 0 min 0,000 mm 0,0 UV-I 11 W/m² 4,1 °C 11,6 °C 6,4 km/h (2 Bft)
06.11.2018 07:20 11,8 °C 59 % 1006,5 hPa 0,0 mm 5,0 km/h (1 Bft) S-SO 160 ° 0 min 0,000 mm 0,0 UV-I 11 W/m² 4,1 °C 11,8 °C 6,4 km/h (2 Bft)
06.11.2018 07:21 12,0 °C 58 % 1006,5 hPa 0,0 mm 3,0 km/h (1 Bft) S-SO 161 ° 0 min 0,000 mm 0,0 UV-I 12 W/m² 4,0 °C 12,0 °C 8,0 km/h (2 Bft)
06.11.2018 07:22 12,2 °C 57 % 1006,6 hPa 0,0 mm 5,0 km/h (1 Bft) S 180 ° 0 min 0,000 mm 0,0 UV-I 12 W/m² 3,9 °C 12,2 °C 8,0 km/h (2 Bft)
06.11.2018 07:23 12,4 °C 56 % 1006,5 hPa 0,0 mm 3,4 km/h (1 Bft) S 180 ° 0 min 0,000 mm 0,0 UV-I 14 W/m² 3,9 °C 12,4 °C 4,8 km/h (1 Bft)
06.11.2018 07:24 12,5 °C 56 % 1006,6 hPa 0,0 mm 2,5 km/h (1 Bft) S 180 ° 0 min 0,000 mm 0,0 UV-I 14 W/m² 4,0 °C 12,5 °C 4,8 km/h (1 Bft)
06.11.2018 07:25 12,6 °C 56 % 1006,6 hPa 0,0 mm 1,9 km/h (1 Bft) S 180 ° 0 min 0,000 mm 0,0 UV-I 14 W/m² 4,1 °C 12,6 °C 4,8 km/h (1 Bft)
06.11.2018 07:26 12,4 °C 57 % 1006,6 hPa 0,0 mm 5,4 km/h (1 Bft) O-SO 123 ° 0 min 0,000 mm 0,0 UV-I 16 W/m² 4,1 °C 12,4 °C 8,0 km/h (2 Bft)
06.11.2018 07:27 12,4 °C 57 % 1006,6 hPa 0,0 mm 2,7 km/h (1 Bft) O-SO 115 ° 0 min 0,000 mm 0,0 UV-I 16 W/m² 4,1 °C 12,4 °C 4,8 km/h (1 Bft)
06.11.2018 07:28 12,5 °C 57 % 1006,6 hPa 0,0 mm 3,7 km/h (1 Bft) SO 138 ° 0 min 0,000 mm 0,0 UV-I 18 W/m² 4,2 °C 12,5 °C 4,8 km/h (1 Bft)
06.11.2018 07:29 12,6 °C 56 % 1006,6 hPa 0,0 mm 1,5 km/h (1 Bft) SO 138 ° 0 min 0,000 mm 0,0 UV-I 18 W/m² 4,1 °C 12,6 °C 3,2 km/h (1 Bft)
06.11.2018 07:30 12,6 °C 56 % 1006,6 hPa 0,0 mm 2,2 km/h (1 Bft) SO 138 ° 0 min 0,000 mm 0,0 UV-I 19 W/m² 4,1 °C 12,6 °C 3,2 km/h (1 Bft)
06.11.2018 07:31 12,7 °C 56 % 1006,6 hPa 0,0 mm 2,1 km/h (1 Bft) SO 135 ° 0 min 0,000 mm 0,0 UV-I 19 W/m² 4,2 °C 12,7 °C 3,2 km/h (1 Bft)
06.11.2018 07:32 12,6 °C 60 % 1006,6 hPa 0,0 mm 2,5 km/h (1 Bft) SO 134 ° 0 min 0,000 mm 0,0 UV-I 21 W/m² 5,0 °C 12,6 °C 4,8 km/h (1 Bft)
06.11.2018 07:33 12,2 °C 60 % 1006,6 hPa 0,0 mm 3,5 km/h (1 Bft) O 87 ° 0 min 0,000 mm 0,0 UV-I 21 W/m² 4,7 °C 12,2 °C 4,8 km/h (1 Bft)
06.11.2018 07:34 12,1 °C 59 % 1006,6 hPa 0,0 mm 4,8 km/h (1 Bft) NO 53 ° 0 min 0,000 mm 0,0 UV-I 23 W/m² 4,3 °C 12,1 °C 8,0 km/h (2 Bft)
06.11.2018 07:35 11,9 °C 60 % 1006,5 hPa 0,0 mm 4,0 km/h (1 Bft) NO 52 ° 0 min 0,000 mm 0,0 UV-I 23 W/m² 4,4 °C 11,9 °C 6,4 km/h (2 Bft)
06.11.2018 07:36 11,8 °C 60 % 1006,7 hPa 0,0 mm 1,8 km/h (1 Bft) NO 52 ° 0 min 0,000 mm 0,0 UV-I 23 W/m² 4,3 °C 11,8 °C 3,2 km/h (1 Bft)
06.11.2018 07:37 11,8 °C 59 % 1006,7 hPa 0,0 mm 1,2 km/h (1 Bft) O 86 ° 0 min 0,000 mm 0,0 UV-I 25 W/m² 4,1 °C 11,8 °C 3,2 km/h (1 Bft)
06.11.2018 07:38 11,9 °C 59 % 1006,6 hPa 0,0 mm 0,9 km/h (0 Bft) O 86 ° 0 min 0,000 mm 0,0 UV-I 25 W/m² 4,1 °C 11,9 °C 3,2 km/h (1 Bft)
06.11.2018 07:39 11,9 °C 59 % 1006,6 hPa 0,0 mm 4,0 km/h (1 Bft) SO 138 ° 0 min 0,000 mm 0,0 UV-I 25 W/m² 4,1 °C 11,9 °C 6,4 km/h (2 Bft)
06.11.2018 07:40 12,1 °C 59 % 1006,6 hPa 0,0 mm 2,6 km/h (1 Bft) SO 138 ° 0 min 0,000 mm 0,0 UV-I 26 W/m² 4,3 °C 12,1 °C 4,8 km/h (1 Bft)
06.11.2018 07:41 12,2 °C 58 % 1006,6 hPa 0,0 mm 1,5 km/h (1 Bft) SO 138 ° 0 min 0,000 mm 0,0 UV-I 26 W/m² 4,2 °C 12,2 °C 1,6 km/h (1 Bft)
06.11.2018 07:42 12,3 °C 58 % 1006,6 hPa 0,0 mm 1,9 km/h (1 Bft) SO 138 ° 0 min 0,000 mm 0,0 UV-I 28 W/m² 4,3 °C 12,3 °C 3,2 km/h (1 Bft)
06.11.2018 07:43 12,3 °C 59 % 1006,6 hPa 0,0 mm 2,5 km/h (1 Bft) SO 138 ° 0 min 0,000 mm 0,0 UV-I 28 W/m² 4,5 °C 12,3 °C 3,2 km/h (1 Bft)
06.11.2018 07:44 12,2 °C 59 % 1006,6 hPa 0,0 mm 2,9 km/h (1 Bft) SO 138 ° 0 min 0,000 mm 0,0 UV-I 30 W/m² 4,4 °C 12,2 °C 3,2 km/h (1 Bft)
06.11.2018 07:45 12,2 °C 58 % 1006,6 hPa 0,0 mm 3,0 km/h (1 Bft) SO 138 ° 0 min 0,000 mm 0,0 UV-I 30 W/m² 4,2 °C 12,2 °C 4,8 km/h (1 Bft)
06.11.2018 07:46 12,2 °C 59 % 1006,6 hPa 0,0 mm 1,7 km/h (1 Bft) SO 138 ° 0 min 0,000 mm 0,0 UV-I 32 W/m² 4,4 °C 12,2 °C 4,8 km/h (1 Bft)
06.11.2018 07:47 12,1 °C 59 % 1006,6 hPa 0,0 mm 1,2 km/h (1 Bft) SO 138 ° 0 min 0,000 mm 0,0 UV-I 33 W/m² 4,3 °C 12,1 °C 3,2 km/h (1 Bft)
06.11.2018 07:48 12,1 °C 59 % 1006,6 hPa 0,0 mm 2,7 km/h (1 Bft) SO 138 ° 0 min 0,000 mm 0,0 UV-I 33 W/m² 4,3 °C 12,1 °C 4,8 km/h (1 Bft)
06.11.2018 07:49 12,1 °C 60 % 1006,6 hPa 0,0 mm 4,6 km/h (1 Bft) S-SO 148 ° 0 min 0,000 mm 0,0 UV-I 35 W/m² 4,6 °C 12,1 °C 6,4 km/h (2 Bft)
06.11.2018 07:50 12,0 °C 59 % 1006,7 hPa 0,0 mm 0,8 km/h (0 Bft) S-SO 148 ° 0 min 0,000 mm 0,0 UV-I 37 W/m² 4,2 °C 12,0 °C 3,2 km/h (1 Bft)
06.11.2018 07:51 11,8 °C 62 % 1006,6 hPa 0,0 mm 0,1 km/h (0 Bft) O-SO 115 ° 0 min 0,000 mm 0,0 UV-I 39 W/m² 4,8 °C 11,8 °C 1,6 km/h (1 Bft)
06.11.2018 07:52 11,7 °C 60 % 1006,6 hPa 0,0 mm 1,5 km/h (1 Bft) O 81 ° 0 min 0,000 mm 0,0 UV-I 40 W/m² 4,2 °C 11,7 °C 3,2 km/h (1 Bft)
06.11.2018 07:53 11,7 °C 62 % 1006,6 hPa 0,0 mm 2,8 km/h (1 Bft) O-SO 115 ° 0 min 0,000 mm 0,0 UV-I 40 W/m² 4,7 °C 11,7 °C 4,8 km/h (1 Bft)
06.11.2018 07:54 11,7 °C 61 % 1006,6 hPa 0,0 mm 2,4 km/h (1 Bft) S 178 ° 0 min 0,000 mm 0,0 UV-I 42 W/m² 4,4 °C 11,7 °C 6,4 km/h (2 Bft)
06.11.2018 07:55 11,9 °C 60 % 1006,6 hPa 0,0 mm 6,2 km/h (2 Bft) S 179 ° 0 min 0,000 mm 0,0 UV-I 42 W/m² 4,4 °C 11,9 °C 8,0 km/h (2 Bft)
06.11.2018 07:56 12,1 °C 60 % 1006,6 hPa 0,0 mm 6,6 km/h (2 Bft) S 180 ° 0 min 0,000 mm 0,0 UV-I 44 W/m² 4,6 °C 12,1 °C 9,7 km/h (2 Bft)
06.11.2018 07:57 12,2 °C 59 % 1006,5 hPa 0,0 mm 3,0 km/h (1 Bft) S 180 ° 0 min 0,000 mm 0,0 UV-I 46 W/m² 4,4 °C 12,2 °C 4,8 km/h (1 Bft)
06.11.2018 07:58 12,2 °C 61 % 1006,5 hPa 0,0 mm 2,7 km/h (1 Bft) S 180 ° 0 min 0,000 mm 0,0 UV-I 46 W/m² 4,9 °C 12,2 °C 3,2 km/h (1 Bft)
06.11.2018 07:59 12,2 °C 60 % 1006,5 hPa 0,0 mm 5,4 km/h (1 Bft) S 180 ° 0 min 0,000 mm 0,0 UV-I 47 W/m² 4,7 °C 12,2 °C 6,4 km/h (2 Bft)
06.11.2018 08:00 12,4 °C 58 % 1006,5 hPa 0,0 mm 4,4 km/h (1 Bft) S 180 ° 0 min 0,025 mm 0,0 UV-I 49 W/m² 4,4 °C 12,4 °C 6,4 km/h (2 Bft)
06.11.2018 08:01 12,6 °C 59 % 1006,6 hPa 0,0 mm 1,2 km/h (1 Bft) S 171 ° 0 min 0,000 mm 0,0 UV-I 49 W/m² 4,8 °C 12,6 °C 6,4 km/h (2 Bft)
06.11.2018 08:02 12,7 °C 58 % 1006,6 hPa 0,0 mm 3,4 km/h (1 Bft) S 173 ° 0 min 0,000 mm 0,0 UV-I 51 W/m² 4,7 °C 12,7 °C 4,8 km/h (1 Bft)
06.11.2018 08:03 12,7 °C 58 % 1006,6 hPa 0,0 mm 6,1 km/h (2 Bft) S 173 ° 0 min 0,000 mm 0,0 UV-I 53 W/m² 4,7 °C 12,7 °C 8,0 km/h (2 Bft)
06.11.2018 08:04 12,7 °C 58 % 1006,7 hPa 0,0 mm 7,3 km/h (2 Bft) S 169 ° 0 min 0,000 mm 0,0 UV-I 53 W/m² 4,7 °C 12,7 °C 9,7 km/h (2 Bft)
06.11.2018 08:05 12,7 °C 58 % 1006,6 hPa 0,0 mm 4,8 km/h (1 Bft) S-SO 154 ° 0 min 0,000 mm 0,0 UV-I 54 W/m² 4,7 °C 12,7 °C 8,0 km/h (2 Bft)
06.11.2018 08:06 12,8 °C 57 % 1006,6 hPa 0,0 mm 0,7 km/h (0 Bft) S-SO 154 ° 0 min 0,000 mm 0,0 UV-I 54 W/m² 4,5 °C 12,8 °C 3,2 km/h (1 Bft)
06.11.2018 08:07 12,7 °C 61 % 1006,6 hPa 0,0 mm 2,3 km/h (1 Bft) SO 124 ° 0 min 0,000 mm 0,0 UV-I 54 W/m² 5,4 °C 12,7 °C 4,8 km/h (1 Bft)
06.11.2018 08:08 12,4 °C 62 % 1006,6 hPa 0,0 mm 0,6 km/h (0 Bft) SO 124 ° 0 min 0,000 mm 0,0 UV-I 56 W/m² 5,3 °C 12,4 °C 3,2 km/h (1 Bft)
06.11.2018 08:09 12,2 °C 63 % 1006,6 hPa 0,0 mm 0,0 km/h (0 Bft) SO 124 ° 0 min 0,000 mm 0,0 UV-I 56 W/m² 5,4 °C 12,2 °C 0,0 km/h (0 Bft)
06.11.2018 08:10 12,1 °C 63 % 1006,7 hPa 0,0 mm 0,4 km/h (0 Bft) SO 126 ° 0 min 0,000 mm 0,0 UV-I 56 W/m² 5,3 °C 12,1 °C 1,6 km/h (1 Bft)
06.11.2018 08:11 11,9 °C 63 % 1006,7 hPa 0,0 mm 1,3 km/h (1 Bft) SO 126 ° 0 min 0,000 mm 0,0 UV-I 56 W/m² 5,1 °C 11,9 °C 3,2 km/h (1 Bft)
06.11.2018 08:12 12,1 °C 63 % 1006,7 hPa 0,0 mm 0,1 km/h (0 Bft) SO 126 ° 0 min 0,000 mm 0,0 UV-I 58 W/m² 5,3 °C 12,1 °C 1,6 km/h (1 Bft)
06.11.2018 08:13 12,1 °C 63 % 1006,7 hPa 0,0 mm 1,4 km/h (1 Bft) SO 126 ° 0 min 0,000 mm 0,0 UV-I 58 W/m² 5,3 °C 12,1 °C 4,8 km/h (1 Bft)
06.11.2018 08:14 12,2 °C 61 % 1006,6 hPa 0,0 mm 4,4 km/h (1 Bft) S 186 ° 0 min 0,000 mm 0,0 UV-I 58 W/m² 4,9 °C 12,2 °C 6,4 km/h (2 Bft)
06.11.2018 08:15 12,3 °C 60 % 1006,6 hPa 0,0 mm 3,6 km/h (1 Bft) S-SO 168 ° 0 min 0,000 mm 0,0 UV-I 58 W/m² 4,8 °C 12,3 °C 6,4 km/h (2 Bft)
06.11.2018 08:16 12,5 °C 60 % 1006,6 hPa 0,0 mm 3,3 km/h (1 Bft) S-SO 159 ° 0 min 0,000 mm 0,0 UV-I 58 W/m² 5,0 °C 12,5 °C 6,4 km/h (2 Bft)
06.11.2018 08:17 12,8 °C 60 % 1006,6 hPa 0,0 mm 3,3 km/h (1 Bft) SO 129 ° 0 min 0,000 mm 0,0 UV-I 58 W/m² 5,2 °C 12,8 °C 6,4 km/h (2 Bft)
06.11.2018 08:18 13,0 °C 58 % 1006,6 hPa 0,0 mm 0,6 km/h (0 Bft) NO 48 ° 0 min 0,000 mm 0,0 UV-I 60 W/m² 4,9 °C 13,0 °C 1,6 km/h (1 Bft)
06.11.2018 08:19 13,1 °C 60 % 1006,7 hPa 0,0 mm 1,3 km/h (1 Bft) O 90 ° 0 min 0,000 mm 0,0 UV-I 60 W/m² 5,5 °C 13,1 °C 3,2 km/h (1 Bft)
06.11.2018 08:20 13,1 °C 57 % 1006,6 hPa 0,0 mm 2,3 km/h (1 Bft) N-NO 22 ° 0 min 0,000 mm 0,5 UV-I 60 W/m² 4,8 °C 13,1 °C 3,2 km/h (1 Bft)
06.11.2018 08:21 13,4 °C 55 % 1006,6 hPa 0,0 mm 1,5 km/h (1 Bft) N-NO 22 ° 0 min 0,000 mm 0,5 UV-I 60 W/m² 4,5 °C 13,4 °C 4,8 km/h (1 Bft)
06.11.2018 08:22 13,7 °C 56 % 1006,5 hPa 0,0 mm 3,1 km/h (1 Bft) O-NO 71 ° 0 min 0,000 mm 0,5 UV-I 60 W/m² 5,1 °C 13,7 °C 4,8 km/h (1 Bft)
06.11.2018 08:23 13,8 °C 56 % 1006,5 hPa 0,0 mm 4,8 km/h (1 Bft) SO 144 ° 0 min 0,000 mm 0,5 UV-I 60 W/m² 5,2 °C 13,8 °C 6,4 km/h (2 Bft)
06.11.2018 08:24 13,9 °C 54 % 1006,5 hPa 0,0 mm 6,1 km/h (2 Bft) S-SW 198 ° 0 min 0,000 mm 0,5 UV-I 62 W/m² 4,7 °C 13,9 °C 9,7 km/h (2 Bft)
06.11.2018 08:25 14,1 °C 54 % 1006,5 hPa 0,0 mm 5,1 km/h (1 Bft) S 173 ° 0 min 0,000 mm 0,5 UV-I 62 W/m² 4,9 °C 14,1 °C 8,0 km/h (2 Bft)
06.11.2018 08:26 14,2 °C 56 % 1006,6 hPa 0,0 mm 8,6 km/h (2 Bft) S 177 ° 0 min 0,000 mm 0,5 UV-I 62 W/m² 5,6 °C 14,2 °C 11,3 km/h (2 Bft)
06.11.2018 08:27 14,2 °C 56 % 1006,6 hPa 0,0 mm 9,8 km/h (2 Bft) S 180 ° 0 min 0,000 mm 0,5 UV-I 62 W/m² 5,6 °C 14,2 °C 12,9 km/h (3 Bft)
06.11.2018 08:28 14,2 °C 55 % 1006,5 hPa 0,0 mm 6,1 km/h (2 Bft) S 175 ° 0 min 0,000 mm 0,5 UV-I 62 W/m² 5,3 °C 14,2 °C 9,7 km/h (2 Bft)
06.11.2018 08:29 14,1 °C 56 % 1006,5 hPa 0,0 mm 9,0 km/h (2 Bft) S 176 ° 0 min 0,000 mm 0,5 UV-I 62 W/m² 5,5 °C 14,1 °C 11,3 km/h (2 Bft)
06.11.2018 08:30 14,0 °C 56 % 1006,5 hPa 0,0 mm 7,2 km/h (2 Bft) SO 142 ° 0 min 0,000 mm 0,5 UV-I 62 W/m² 5,4 °C 14,0 °C 11,3 km/h (2 Bft)
06.11.2018 08:31 13,9 °C 55 % 1006,5 hPa 0,0 mm 1,1 km/h (1 Bft) SO 146 ° 0 min 0,000 mm 0,5 UV-I 63 W/m² 5,0 °C 13,9 °C 4,8 km/h (1 Bft)
06.11.2018 08:32 13,8 °C 60 % 1006,5 hPa 0,0 mm 0,0 km/h (0 Bft) SO 146 ° 0 min 0,000 mm 0,5 UV-I 63 W/m² 6,2 °C 13,8 °C 0,0 km/h (0 Bft)
06.11.2018 08:33 13,6 °C 59 % 1006,6 hPa 0,0 mm 0,1 km/h (0 Bft) SO 146 ° 0 min 0,000 mm 0,5 UV-I 63 W/m² 5,7 °C 13,6 °C 1,6 km/h (1 Bft)
06.11.2018 08:34 13,4 °C 59 % 1006,6 hPa 0,0 mm 0,0 km/h (0 Bft) SO 146 ° 0 min 0,000 mm 0,6 UV-I 65 W/m² 5,6 °C 13,4 °C 0,0 km/h (0 Bft)
06.11.2018 08:35 13,3 °C 59 % 1006,6 hPa 0,0 mm 0,0 km/h (0 Bft) SO 146 ° 0 min 0,000 mm 0,6 UV-I 65 W/m² 5,5 °C 13,3 °C 0,0 km/h (0 Bft)
06.11.2018 08:36 13,2 °C 61 % 1006,6 hPa 0,0 mm 0,0 km/h (0 Bft) SO 146 ° 0 min 0,000 mm 0,6 UV-I 67 W/m² 5,8 °C 13,2 °C 0,0 km/h (0 Bft)
06.11.2018 08:37 13,1 °C 60 % 1006,6 hPa 0,0 mm 0,0 km/h (0 Bft) SO 146 ° 0 min 0,000 mm 0,6 UV-I 67 W/m² 5,5 °C 13,1 °C 0,0 km/h (0 Bft)
06.11.2018 08:38 13,2 °C 60 % 1006,5 hPa 0,0 mm 0,0 km/h (0 Bft) SO 146 ° 0 min 0,000 mm 0,6 UV-I 69 W/m² 5,6 °C 13,2 °C 0,0 km/h (0 Bft)
06.11.2018 08:39 13,1 °C 63 % 1006,5 hPa 0,0 mm 0,0 km/h (0 Bft) SO 146 ° 0 min 0,000 mm 0,6 UV-I 69 W/m² 6,2 °C 13,1 °C 0,0 km/h (0 Bft)
06.11.2018 08:40 13,1 °C 62 % 1006,5 hPa 0,0 mm 1,5 km/h (1 Bft) SO 146 ° 0 min 0,000 mm 0,6 UV-I 69 W/m² 6,0 °C 13,1 °C 3,2 km/h (1 Bft)
06.11.2018 08:41 13,2 °C 58 % 1006,5 hPa 0,0 mm 4,1 km/h (1 Bft) S-SO 147 ° 0 min 0,000 mm 0,6 UV-I 69 W/m² 5,1 °C 13,2 °C 4,8 km/h (1 Bft)
06.11.2018 08:42 13,4 °C 57 % 1006,5 hPa 0,0 mm 3,1 km/h (1 Bft) SO 146 ° 0 min 0,000 mm 0,6 UV-I 70 W/m² 5,1 °C 13,4 °C 4,8 km/h (1 Bft)
06.11.2018 08:43 13,7 °C 57 % 1006,4 hPa 0,0 mm 1,6 km/h (1 Bft) SO 146 ° 0 min 0,000 mm 0,6 UV-I 70 W/m² 5,3 °C 13,7 °C 3,2 km/h (1 Bft)
06.11.2018 08:44 13,9 °C 57 % 1006,4 hPa 0,0 mm 2,5 km/h (1 Bft) SO 146 ° 0 min 0,000 mm 0,6 UV-I 70 W/m² 5,5 °C 13,9 °C 4,8 km/h (1 Bft)
06.11.2018 08:45 14,1 °C 54 % 1006,4 hPa 0,0 mm 1,7 km/h (1 Bft) S-SO 147 ° 0 min 0,000 mm 0,6 UV-I 70 W/m² 4,9 °C 14,1 °C 3,2 km/h (1 Bft)
06.11.2018 08:46 14,2 °C 56 % 1006,4 hPa 0,0 mm 0,0 km/h (0 Bft) S-SO 147 ° 0 min 0,000 mm 0,6 UV-I 70 W/m² 5,6 °C 14,2 °C 0,0 km/h (0 Bft)
06.11.2018 08:47 14,2 °C 59 % 1006,4 hPa 0,0 mm 3,4 km/h (1 Bft) S-SO 147 ° 0 min 0,000 mm 0,7 UV-I 72 W/m² 6,3 °C 14,2 °C 4,8 km/h (1 Bft)
06.11.2018 08:48 14,4 °C 52 % 1006,4 hPa 0,0 mm 0,7 km/h (0 Bft) S-SO 147 ° 0 min 0,000 mm 0,7 UV-I 72 W/m² 4,7 °C 14,4 °C 1,6 km/h (1 Bft)
06.11.2018 08:49 14,7 °C 52 % 1006,4 hPa 0,0 mm 0,0 km/h (0 Bft) S-SO 147 ° 0 min 0,000 mm 0,7 UV-I 72 W/m² 5,0 °C 14,7 °C 0,0 km/h (0 Bft)
06.11.2018 08:50 14,8 °C 54 % 1006,4 hPa 0,0 mm 0,0 km/h (0 Bft) S-SO 147 ° 0 min 0,000 mm 0,7 UV-I 72 W/m² 5,6 °C 14,8 °C 0,0 km/h (0 Bft)
06.11.2018 08:51 14,8 °C 54 % 1006,4 hPa 0,0 mm 0,5 km/h (0 Bft) S-SO 147 ° 0 min 0,000 mm 0,7 UV-I 72 W/m² 5,6 °C 14,8 °C 1,6 km/h (1 Bft)
06.11.2018 08:52 14,9 °C 52 % 1006,4 hPa 0,0 mm 0,0 km/h (0 Bft) S-SO 147 ° 0 min 0,000 mm 0,7 UV-I 70 W/m² 5,1 °C 14,9 °C 0,0 km/h (0 Bft)
06.11.2018 08:53 15,0 °C 51 % 1006,3 hPa 0,0 mm 1,0 km/h (0 Bft) S-SO 147 ° 0 min 0,000 mm 0,7 UV-I 70 W/m² 4,9 °C 15,0 °C 3,2 km/h (1 Bft)
06.11.2018 08:54 15,1 °C 51 % 1006,3 hPa 0,0 mm 3,2 km/h (1 Bft) S-SO 147 ° 0 min 0,000 mm 0,7 UV-I 70 W/m² 5,0 °C 15,1 °C 4,8 km/h (1 Bft)
06.11.2018 08:55 15,2 °C 51 % 1006,3 hPa 0,0 mm 1,9 km/h (1 Bft) S-SO 147 ° 0 min 0,000 mm 0,7 UV-I 72 W/m² 5,1 °C 15,2 °C 3,2 km/h (1 Bft)
06.11.2018 08:56 15,3 °C 50 % 1006,3 hPa 0,0 mm 0,2 km/h (0 Bft) S-SO 147 ° 0 min 0,000 mm 0,7 UV-I 70 W/m² 4,9 °C 15,3 °C 1,6 km/h (1 Bft)
06.11.2018 08:57 15,3 °C 51 % 1006,3 hPa 0,0 mm 1,0 km/h (0 Bft) S-SO 147 ° 0 min 0,000 mm 0,7 UV-I 70 W/m² 5,2 °C 15,3 °C 3,2 km/h (1 Bft)
06.11.2018 08:58 15,2 °C 53 % 1006,2 hPa 0,0 mm 3,1 km/h (1 Bft) O-SO 119 ° 0 min 0,000 mm 0,7 UV-I 70 W/m² 5,7 °C 15,2 °C 4,8 km/h (1 Bft)
06.11.2018 08:59 15,2 °C 51 % 1006,3 hPa 0,0 mm 1,3 km/h (1 Bft) O-SO 121 ° 0 min 0,000 mm 0,7 UV-I 70 W/m² 5,1 °C 15,2 °C 3,2 km/h (1 Bft)
06.11.2018 09:00 15,3 °C 51 % 1006,2 hPa 0,0 mm 1,3 km/h (1 Bft) N-NW 345 ° 0 min 0,051 mm 0,7 UV-I 70 W/m² 5,2 °C 15,3 °C 3,2 km/h (1 Bft)
06.11.2018 09:01 15,4 °C 51 % 1006,3 hPa 0,0 mm 2,8 km/h (1 Bft) O 84 ° 0 min 0,000 mm 0,7 UV-I 70 W/m² 5,3 °C 15,4 °C 6,4 km/h (2 Bft)
06.11.2018 09:02 15,4 °C 50 % 1006,3 hPa 0,0 mm 0,8 km/h (0 Bft) O 84 ° 0 min 0,000 mm 0,7 UV-I 70 W/m² 5,0 °C 15,4 °C 3,2 km/h (1 Bft)
06.11.2018 09:03 15,4 °C 53 % 1006,2 hPa 0,0 mm 0,0 km/h (0 Bft) O 84 ° 0 min 0,000 mm 0,7 UV-I 70 W/m² 5,9 °C 15,4 °C 0,0 km/h (0 Bft)
06.11.2018 09:04 15,4 °C 50 % 1006,2 hPa 0,0 mm 2,4 km/h (1 Bft) O-NO 58 ° 0 min 0,000 mm 0,7 UV-I 70 W/m² 5,0 °C 15,4 °C 4,8 km/h (1 Bft)
06.11.2018 09:05 15,4 °C 52 % 1006,1 hPa 0,0 mm 2,2 km/h (1 Bft) N-NO 32 ° 0 min 0,000 mm 0,7 UV-I 70 W/m² 5,6 °C 15,4 °C 3,2 km/h (1 Bft)
06.11.2018 09:06 15,3 °C 52 % 1006,1 hPa 0,0 mm 0,6 km/h (0 Bft) N-NO 32 ° 0 min 0,000 mm 0,7 UV-I 70 W/m² 5,5 °C 15,3 °C 1,6 km/h (1 Bft)
06.11.2018 09:07 15,3 °C 52 % 1006,2 hPa 0,0 mm 0,0 km/h (0 Bft) N-NO 32 ° 0 min 0,000 mm 0,7 UV-I 70 W/m² 5,5 °C 15,3 °C 0,0 km/h (0 Bft)
06.11.2018 09:08 15,2 °C 53 % 1006,1 hPa 0,0 mm 3,2 km/h (1 Bft) SO 130 ° 0 min 0,000 mm 0,7 UV-I 72 W/m² 5,7 °C 15,2 °C 6,4 km/h (2 Bft)
06.11.2018 09:09 15,2 °C 54 % 1006,1 hPa 0,0 mm 3,3 km/h (1 Bft) SO 130 ° 0 min 0,000 mm 0,7 UV-I 72 W/m² 6,0 °C 15,2 °C 4,8 km/h (1 Bft)
06.11.2018 09:10 15,1 °C 57 % 1006,1 hPa 0,0 mm 2,9 km/h (1 Bft) SO 130 ° 0 min 0,000 mm 0,7 UV-I 72 W/m² 6,6 °C 15,1 °C 4,8 km/h (1 Bft)
06.11.2018 09:11 14,9 °C 59 % 1006,1 hPa 0,0 mm 5,5 km/h (1 Bft) SO 136 ° 0 min 0,000 mm 0,7 UV-I 72 W/m² 7,0 °C 14,9 °C 6,4 km/h (2 Bft)
06.11.2018 09:12 14,8 °C 58 % 1006,0 hPa 0,0 mm 0,3 km/h (0 Bft) SO 136 ° 0 min 0,000 mm 0,7 UV-I 74 W/m² 6,6 °C 14,8 °C 1,6 km/h (1 Bft)
06.11.2018 09:13 14,7 °C 59 % 1006,0 hPa 0,0 mm 0,0 km/h (0 Bft) SO 136 ° 0 min 0,000 mm 0,8 UV-I 76 W/m² 6,8 °C 14,7 °C 0,0 km/h (0 Bft)
06.11.2018 09:14 14,6 °C 58 % 1006,0 hPa 0,0 mm 1,3 km/h (1 Bft) SO 136 ° 0 min 0,000 mm 0,8 UV-I 76 W/m² 6,4 °C 14,6 °C 3,2 km/h (1 Bft)
06.11.2018 09:15 14,6 °C 57 % 1006,0 hPa 0,0 mm 2,1 km/h (1 Bft) W-SW 239 ° 0 min 0,000 mm 0,8 UV-I 76 W/m² 6,2 °C 14,6 °C 3,2 km/h (1 Bft)
06.11.2018 09:16 14,6 °C 56 % 1006,0 hPa 0,0 mm 4,0 km/h (1 Bft) W-SW 239 ° 0 min 0,000 mm 0,8 UV-I 77 W/m² 5,9 °C 14,6 °C 4,8 km/h (1 Bft)
06.11.2018 09:17 14,7 °C 55 % 1006,0 hPa 0,0 mm 3,9 km/h (1 Bft) W-SW 242 ° 0 min 0,000 mm 0,8 UV-I 77 W/m² 5,8 °C 14,7 °C 4,8 km/h (1 Bft)
06.11.2018 09:18 14,7 °C 56 % 1006,0 hPa 0,0 mm 3,4 km/h (1 Bft) W-SW 245 ° 0 min 0,000 mm 0,8 UV-I 77 W/m² 6,0 °C 14,7 °C 4,8 km/h (1 Bft)
06.11.2018 09:19 14,8 °C 55 % 1005,9 hPa 0,0 mm 4,2 km/h (1 Bft) W-SW 254 ° 0 min 0,000 mm 0,8 UV-I 79 W/m² 5,8 °C 14,8 °C 6,4 km/h (2 Bft)
06.11.2018 09:20 14,8 °C 56 % 1005,9 hPa 0,0 mm 4,1 km/h (1 Bft) W-SW 252 ° 0 min 0,000 mm 0,8 UV-I 79 W/m² 6,1 °C 14,8 °C 6,4 km/h (2 Bft)
06.11.2018 09:21 14,8 °C 55 % 1006,0 hPa 0,0 mm 2,7 km/h (1 Bft) W-SW 252 ° 0 min 0,000 mm 0,8 UV-I 81 W/m² 5,8 °C 14,8 °C 3,2 km/h (1 Bft)
06.11.2018 09:22 14,9 °C 56 % 1005,9 hPa 0,0 mm 2,2 km/h (1 Bft) W-SW 252 ° 0 min 0,000 mm 0,8 UV-I 79 W/m² 6,2 °C 14,9 °C 3,2 km/h (1 Bft)
06.11.2018 09:23 15,0 °C 54 % 1005,9 hPa 0,0 mm 3,4 km/h (1 Bft) SW 221 ° 0 min 0,000 mm 0,8 UV-I 79 W/m² 5,8 °C 15,0 °C 4,8 km/h (1 Bft)
06.11.2018 09:24 15,2 °C 53 % 1005,8 hPa 0,0 mm 0,5 km/h (0 Bft) SW 221 ° 0 min 0,000 mm 0,8 UV-I 79 W/m² 5,7 °C 15,2 °C 3,2 km/h (1 Bft)
06.11.2018 09:25 15,2 °C 57 % 1005,8 hPa 0,0 mm 0,0 km/h (0 Bft) SW 221 ° 0 min 0,000 mm 0,9 UV-I 79 W/m² 6,7 °C 15,2 °C 0,0 km/h (0 Bft)
06.11.2018 09:26 15,1 °C 57 % 1005,8 hPa 0,0 mm 0,0 km/h (0 Bft) SW 221 ° 0 min 0,000 mm 0,9 UV-I 81 W/m² 6,6 °C 15,1 °C 0,0 km/h (0 Bft)
06.11.2018 09:27 15,1 °C 56 % 1005,7 hPa 0,0 mm 2,7 km/h (1 Bft) S-SW 213 ° 0 min 0,000 mm 0,9 UV-I 81 W/m² 6,4 °C 15,1 °C 4,8 km/h (1 Bft)
06.11.2018 09:28 15,1 °C 55 % 1005,7 hPa 0,0 mm 5,4 km/h (1 Bft) S-SO 161 ° 0 min 0,000 mm 0,9 UV-I 81 W/m² 6,1 °C 15,1 °C 8,0 km/h (2 Bft)
06.11.2018 09:29 15,2 °C 54 % 1005,8 hPa 0,0 mm 4,3 km/h (1 Bft) S-SO 167 ° 0 min 0,000 mm 0,9 UV-I 83 W/m² 6,0 °C 15,2 °C 6,4 km/h (2 Bft)
06.11.2018 09:30 15,3 °C 52 % 1005,8 hPa 0,0 mm 2,2 km/h (1 Bft) S-SO 167 ° 0 min 0,000 mm 0,9 UV-I 83 W/m² 5,5 °C 15,3 °C 4,8 km/h (1 Bft)
06.11.2018 09:31 15,5 °C 52 % 1005,8 hPa 0,0 mm 5,2 km/h (1 Bft) SO 142 ° 0 min 0,000 mm 0,9 UV-I 84 W/m² 5,7 °C 15,5 °C 6,4 km/h (2 Bft)
06.11.2018 09:32 15,6 °C 51 % 1005,8 hPa 0,0 mm 1,9 km/h (1 Bft) SO 142 ° 0 min 0,000 mm 0,9 UV-I 86 W/m² 5,5 °C 15,6 °C 4,8 km/h (1 Bft)
06.11.2018 09:33 15,6 °C 53 % 1005,8 hPa 0,0 mm 0,2 km/h (0 Bft) SO 142 ° 0 min 0,000 mm 0,9 UV-I 88 W/m² 6,1 °C 15,6 °C 1,6 km/h (1 Bft)
06.11.2018 09:34 15,6 °C 53 % 1005,7 hPa 0,0 mm 0,0 km/h (0 Bft) SO 142 ° 0 min 0,000 mm 0,9 UV-I 90 W/m² 6,1 °C 15,6 °C 0,0 km/h (0 Bft)
06.11.2018 09:35 15,6 °C 53 % 1005,8 hPa 0,0 mm 0,0 km/h (0 Bft) SO 142 ° 0 min 0,000 mm 0,9 UV-I 90 W/m² 6,1 °C 15,6 °C 0,0 km/h (0 Bft)
06.11.2018 09:36 15,6 °C 53 % 1005,8 hPa 0,0 mm 0,0 km/h (0 Bft) SO 142 ° 0 min 0,000 mm 0,9 UV-I 93 W/m² 6,1 °C 15,6 °C 0,0 km/h (0 Bft)
06.11.2018 09:37 15,6 °C 52 % 1005,8 hPa 0,0 mm 0,0 km/h (0 Bft) SO 142 ° 0 min 0,000 mm 0,9 UV-I 98 W/m² 5,8 °C 15,6 °C 0,0 km/h (0 Bft)
06.11.2018 09:38 15,7 °C 54 % 1005,8 hPa 0,0 mm 2,3 km/h (1 Bft) NO 53 ° 0 min 0,000 mm 1,0 UV-I 102 W/m² 6,4 °C 15,7 °C 4,8 km/h (1 Bft)
06.11.2018 09:39 15,8 °C 52 % 1005,8 hPa 0,0 mm 2,6 km/h (1 Bft) W-SW 237 ° 0 min 0,000 mm 1,0 UV-I 104 W/m² 6,0 °C 15,8 °C 8,0 km/h (2 Bft)
06.11.2018 09:40 15,7 °C 53 % 1005,8 hPa 0,0 mm 0,8 km/h (0 Bft) SW 229 ° 0 min 0,000 mm 1,0 UV-I 105 W/m² 6,1 °C 15,7 °C 3,2 km/h (1 Bft)
06.11.2018 09:41 15,7 °C 52 % 1005,7 hPa 0,0 mm 3,6 km/h (1 Bft) O 95 ° 0 min 0,000 mm 1,0 UV-I 109 W/m² 5,9 °C 15,7 °C 4,8 km/h (1 Bft)
06.11.2018 09:42 15,8 °C 53 % 1005,7 hPa 0,0 mm 4,6 km/h (1 Bft) O 96 ° 0 min 0,000 mm 1,0 UV-I 111 W/m² 6,2 °C 15,8 °C 11,3 km/h (2 Bft)
06.11.2018 09:43 15,7 °C 55 % 1005,7 hPa 0,0 mm 3,8 km/h (1 Bft) SW 228 ° 0 min 0,000 mm 1,0 UV-I 116 W/m² 6,7 °C 15,7 °C 9,7 km/h (2 Bft)
06.11.2018 09:44 15,8 °C 52 % 1005,7 hPa 0,0 mm 3,5 km/h (1 Bft) N-NO 23 ° 0 min 0,000 mm 1,0 UV-I 118 W/m² 6,0 °C 15,8 °C 6,4 km/h (2 Bft)
06.11.2018 09:45 15,8 °C 54 % 1005,8 hPa 0,0 mm 0,1 km/h (0 Bft) N-NO 23 ° 0 min 0,000 mm 1,0 UV-I 121 W/m² 6,5 °C 15,8 °C 1,6 km/h (1 Bft)
06.11.2018 09:46 15,8 °C 53 % 1005,8 hPa 0,0 mm 2,1 km/h (1 Bft) N-NO 23 ° 0 min 0,000 mm 1,0 UV-I 123 W/m² 6,2 °C 15,8 °C 4,8 km/h (1 Bft)
06.11.2018 09:47 16,0 °C 52 % 1005,7 hPa 0,0 mm 0,6 km/h (0 Bft) N-NO 23 ° 0 min 0,000 mm 1,0 UV-I 125 W/m² 6,2 °C 16,0 °C 1,6 km/h (1 Bft)
06.11.2018 09:48 16,2 °C 50 % 1005,8 hPa 0,0 mm 3,0 km/h (1 Bft) W-SW 246 ° 0 min 0,000 mm 1,0 UV-I 125 W/m² 5,8 °C 16,2 °C 4,8 km/h (1 Bft)
06.11.2018 09:49 16,4 °C 50 % 1005,6 hPa 0,0 mm 2,8 km/h (1 Bft) NW 318 ° 0 min 0,000 mm 1,0 UV-I 127 W/m² 6,0 °C 16,4 °C 4,8 km/h (1 Bft)
06.11.2018 09:50 16,7 °C 48 % 1005,7 hPa 0,0 mm 6,0 km/h (2 Bft) N-NW 348 ° 0 min 0,000 mm 1,0 UV-I 127 W/m² 5,6 °C 16,7 °C 8,0 km/h (2 Bft)
06.11.2018 09:51 16,8 °C 51 % 1005,7 hPa 0,0 mm 2,3 km/h (1 Bft) N-NW 348 ° 0 min 0,000 mm 1,0 UV-I 128 W/m² 6,6 °C 16,8 °C 4,8 km/h (1 Bft)
06.11.2018 09:52 16,9 °C 47 % 1005,8 hPa 0,0 mm 2,3 km/h (1 Bft) N 360 ° 0 min 0,000 mm 1,0 UV-I 130 W/m² 5,5 °C 16,9 °C 6,4 km/h (2 Bft)
06.11.2018 09:53 17,0 °C 48 % 1005,8 hPa 0,0 mm 0,1 km/h (0 Bft) N 360 ° 0 min 0,000 mm 1,0 UV-I 132 W/m² 5,9 °C 17,0 °C 1,6 km/h (1 Bft)
06.11.2018 09:54 17,2 °C 45 % 1005,7 hPa 0,0 mm 3,1 km/h (1 Bft) N-NW 346 ° 0 min 0,000 mm 1,0 UV-I 134 W/m² 5,2 °C 17,2 °C 4,8 km/h (1 Bft)
06.11.2018 09:55 17,3 °C 46 % 1005,8 hPa 0,0 mm 0,5 km/h (0 Bft) N 355 ° 0 min 0,000 mm 1,1 UV-I 137 W/m² 5,6 °C 17,3 °C 3,2 km/h (1 Bft)
06.11.2018 09:56 17,2 °C 48 % 1005,8 hPa 0,0 mm 5,0 km/h (1 Bft) N 355 ° 0 min 0,000 mm 1,1 UV-I 139 W/m² 6,1 °C 17,2 °C 8,0 km/h (2 Bft)
06.11.2018 09:57 17,2 °C 49 % 1005,8 hPa 0,0 mm 1,7 km/h (1 Bft) N 355 ° 0 min 0,000 mm 1,1 UV-I 142 W/m² 6,4 °C 17,2 °C 3,2 km/h (1 Bft)
06.11.2018 09:58 17,1 °C 49 % 1005,8 hPa 0,0 mm 0,2 km/h (0 Bft) N 355 ° 0 min 0,000 mm 1,1 UV-I 144 W/m² 6,3 °C 17,1 °C 1,6 km/h (1 Bft)
06.11.2018 09:59 17,1 °C 48 % 1005,8 hPa 0,0 mm 2,7 km/h (1 Bft) SW 220 ° 0 min 0,000 mm 1,1 UV-I 146 W/m² 6,0 °C 17,1 °C 6,4 km/h (2 Bft)
06.11.2018 10:00 17,2 °C 45 % 1005,9 hPa 0,0 mm 4,2 km/h (1 Bft) W-NW 291 ° 0 min 0,076 mm 1,1 UV-I 149 W/m² 5,2 °C 17,2 °C 8,0 km/h (2 Bft)
06.11.2018 10:01 17,3 °C 45 % 1005,8 hPa 0,0 mm 1,4 km/h (1 Bft) W-NW 291 ° 0 min 0,000 mm 1,1 UV-I 151 W/m² 5,3 °C 17,3 °C 3,2 km/h (1 Bft)
06.11.2018 10:02 17,4 °C 47 % 1005,8 hPa 0,0 mm 1,3 km/h (1 Bft) NO 34 ° 0 min 0,000 mm 1,1 UV-I 153 W/m² 6,0 °C 17,4 °C 3,2 km/h (1 Bft)
06.11.2018 10:03 17,3 °C 49 % 1005,8 hPa 0,0 mm 2,2 km/h (1 Bft) O-NO 67 ° 0 min 0,000 mm 1,1 UV-I 155 W/m² 6,5 °C 17,3 °C 4,8 km/h (1 Bft)
06.11.2018 10:04 17,2 °C 48 % 1005,9 hPa 0,0 mm 1,9 km/h (1 Bft) O-NO 66 ° 0 min 0,000 mm 1,1 UV-I 155 W/m² 6,1 °C 17,2 °C 4,8 km/h (1 Bft)
06.11.2018 10:05 17,2 °C 50 % 1005,9 hPa 0,0 mm 2,3 km/h (1 Bft) O-SO 117 ° 0 min 0,000 mm 1,2 UV-I 156 W/m² 6,7 °C 17,2 °C 8,0 km/h (2 Bft)
06.11.2018 10:06 17,1 °C 50 % 1005,9 hPa 0,0 mm 2,1 km/h (1 Bft) S 176 ° 0 min 0,000 mm 1,2 UV-I 160 W/m² 6,6 °C 17,1 °C 6,4 km/h (2 Bft)
06.11.2018 10:07 17,1 °C 48 % 1005,9 hPa 0,0 mm 3,8 km/h (1 Bft) O-SO 118 ° 0 min 0,000 mm 1,2 UV-I 162 W/m² 6,0 °C 17,1 °C 4,8 km/h (1 Bft)
06.11.2018 10:08 17,1 °C 52 % 1006,0 hPa 0,0 mm 0,3 km/h (0 Bft) O-SO 119 ° 0 min 0,000 mm 1,2 UV-I 163 W/m² 7,2 °C 17,1 °C 1,6 km/h (1 Bft)
06.11.2018 10:09 17,0 °C 53 % 1006,0 hPa 0,0 mm 1,7 km/h (1 Bft) NW 305 ° 0 min 0,000 mm 1,2 UV-I 165 W/m² 7,4 °C 17,0 °C 6,4 km/h (2 Bft)
06.11.2018 10:10 17,2 °C 45 % 1005,9 hPa 0,0 mm 4,3 km/h (1 Bft) NO 35 ° 0 min 0,000 mm 1,2 UV-I 167 W/m² 5,2 °C 17,2 °C 6,4 km/h (2 Bft)
06.11.2018 10:11 17,3 °C 48 % 1005,9 hPa 0,0 mm 2,2 km/h (1 Bft) S 169 ° 0 min 0,000 mm 1,2 UV-I 169 W/m² 6,2 °C 17,3 °C 6,4 km/h (2 Bft)
06.11.2018 10:12 17,6 °C 45 % 1006,0 hPa 0,0 mm 2,7 km/h (1 Bft) W-SW 245 ° 0 min 0,000 mm 1,2 UV-I 172 W/m² 5,5 °C 17,6 °C 8,0 km/h (2 Bft)
06.11.2018 10:13 17,7 °C 45 % 1006,0 hPa 0,0 mm 4,9 km/h (1 Bft) NW 318 ° 0 min 0,000 mm 1,3 UV-I 172 W/m² 5,6 °C 17,7 °C 8,0 km/h (2 Bft)
06.11.2018 10:14 17,8 °C 47 % 1006,0 hPa 0,0 mm 4,3 km/h (1 Bft) S-SW 203 ° 0 min 0,000 mm 1,3 UV-I 174 W/m² 6,3 °C 17,8 °C 6,4 km/h (2 Bft)
06.11.2018 10:15 17,8 °C 49 % 1006,0 hPa 0,0 mm 2,4 km/h (1 Bft) S-SW 203 ° 0 min 0,000 mm 1,3 UV-I 176 W/m² 6,9 °C 17,8 °C 4,8 km/h (1 Bft)
06.11.2018 10:16 17,7 °C 49 % 1005,9 hPa 0,0 mm 0,0 km/h (0 Bft) S-SW 203 ° 0 min 0,000 mm 1,3 UV-I 176 W/m² 6,9 °C 17,7 °C 0,0 km/h (0 Bft)
06.11.2018 10:17 17,7 °C 46 % 1005,9 hPa 0,0 mm 0,1 km/h (0 Bft) S-SW 203 ° 0 min 0,000 mm 1,3 UV-I 178 W/m² 5,9 °C 17,7 °C 1,6 km/h (1 Bft)
06.11.2018 10:18 17,7 °C 46 % 1005,9 hPa 0,0 mm 1,7 km/h (1 Bft) SO 146 ° 0 min 0,000 mm 1,3 UV-I 179 W/m² 5,9 °C 17,7 °C 4,8 km/h (1 Bft)
06.11.2018 10:19 17,8 °C 45 % 1005,9 hPa 0,0 mm 2,3 km/h (1 Bft) S-SO 161 ° 0 min 0,000 mm 1,3 UV-I 181 W/m² 5,7 °C 17,8 °C 6,4 km/h (2 Bft)
06.11.2018 10:20 17,8 °C 48 % 1005,8 hPa 0,0 mm 2,9 km/h (1 Bft) SO 126 ° 0 min 0,000 mm 1,3 UV-I 181 W/m² 6,6 °C 17,8 °C 3,2 km/h (1 Bft)
06.11.2018 10:21 17,9 °C 47 % 1005,8 hPa 0,0 mm 4,0 km/h (1 Bft) NO 47 ° 0 min 0,000 mm 1,3 UV-I 183 W/m² 6,4 °C 17,9 °C 6,4 km/h (2 Bft)
06.11.2018 10:22 17,9 °C 44 % 1005,8 hPa 0,0 mm 4,6 km/h (1 Bft) O-SO 105 ° 0 min 0,000 mm 1,3 UV-I 183 W/m² 5,5 °C 17,9 °C 6,4 km/h (2 Bft)
06.11.2018 10:23 17,9 °C 49 % 1005,9 hPa 0,0 mm 1,8 km/h (1 Bft) NW 313 ° 0 min 0,000 mm 1,3 UV-I 183 W/m² 7,0 °C 17,9 °C 4,8 km/h (1 Bft)
06.11.2018 10:24 17,9 °C 45 % 1005,7 hPa 0,0 mm 2,5 km/h (1 Bft) W-NW 303 ° 0 min 0,000 mm 1,4 UV-I 183 W/m² 5,8 °C 17,9 °C 4,8 km/h (1 Bft)
06.11.2018 10:25 17,9 °C 45 % 1005,8 hPa 0,0 mm 3,3 km/h (1 Bft) NO 48 ° 0 min 0,000 mm 1,4 UV-I 185 W/m² 5,8 °C 17,9 °C 4,8 km/h (1 Bft)
06.11.2018 10:26 17,9 °C 49 % 1005,8 hPa 0,0 mm 1,9 km/h (1 Bft) N 355 ° 0 min 0,000 mm 1,4 UV-I 185 W/m² 7,0 °C 17,9 °C 4,8 km/h (1 Bft)
06.11.2018 10:27 18,1 °C 44 % 1005,8 hPa 0,0 mm 5,3 km/h (1 Bft) O-NO 60 ° 0 min 0,000 mm 1,4 UV-I 185 W/m² 5,7 °C 18,1 °C 6,4 km/h (2 Bft)
06.11.2018 10:28 18,2 °C 45 % 1005,8 hPa 0,0 mm 3,4 km/h (1 Bft) NO 56 ° 0 min 0,000 mm 1,4 UV-I 185 W/m² 6,1 °C 18,2 °C 4,8 km/h (1 Bft)
06.11.2018 10:29 18,3 °C 43 % 1005,9 hPa 0,0 mm 1,7 km/h (1 Bft) NO 55 ° 0 min 0,000 mm 1,4 UV-I 185 W/m² 5,5 °C 18,3 °C 3,2 km/h (1 Bft)
06.11.2018 10:30 18,4 °C 44 % 1005,8 hPa 0,0 mm 4,2 km/h (1 Bft) O 97 ° 0 min 0,000 mm 1,4 UV-I 185 W/m² 5,9 °C 18,4 °C 6,4 km/h (2 Bft)
06.11.2018 10:31 18,5 °C 41 % 1005,8 hPa 0,0 mm 2,3 km/h (1 Bft) N 355 ° 0 min 0,000 mm 1,4 UV-I 185 W/m² 5,0 °C 18,5 °C 4,8 km/h (1 Bft)
06.11.2018 10:32 18,6 °C 41 % 1005,8 hPa 0,0 mm 1,1 km/h (1 Bft) N 355 ° 0 min 0,000 mm 1,4 UV-I 185 W/m² 5,1 °C 18,6 °C 4,8 km/h (1 Bft)
06.11.2018 10:33 18,7 °C 41 % 1005,8 hPa 0,0 mm 4,3 km/h (1 Bft) N 349 ° 0 min 0,000 mm 1,4 UV-I 185 W/m² 5,2 °C 18,7 °C 9,7 km/h (2 Bft)
06.11.2018 10:34 18,8 °C 40 % 1005,7 hPa 0,0 mm 4,1 km/h (1 Bft) O 80 ° 0 min 0,000 mm 1,4 UV-I 185 W/m² 4,9 °C 18,8 °C 6,4 km/h (2 Bft)
06.11.2018 10:35 18,8 °C 42 % 1005,8 hPa 0,0 mm 6,6 km/h (2 Bft) O-SO 119 ° 0 min 0,000 mm 1,4 UV-I 185 W/m² 5,6 °C 18,8 °C 12,9 km/h (3 Bft)
06.11.2018 10:36 18,8 °C 40 % 1005,8 hPa 0,0 mm 2,2 km/h (1 Bft) O-NO 76 ° 0 min 0,000 mm 1,4 UV-I 185 W/m² 4,9 °C 18,8 °C 3,2 km/h (1 Bft)
06.11.2018 10:37 18,8 °C 40 % 1005,8 hPa 0,0 mm 0,8 km/h (0 Bft) O 90 ° 0 min 0,000 mm 1,5 UV-I 186 W/m² 4,9 °C 18,8 °C 1,6 km/h (1 Bft)
06.11.2018 10:38 18,8 °C 41 % 1005,8 hPa 0,0 mm 0,8 km/h (0 Bft) NO 54 ° 0 min 0,000 mm 1,5 UV-I 188 W/m² 5,3 °C 18,8 °C 1,6 km/h (1 Bft)
06.11.2018 10:39 18,8 °C 41 % 1005,8 hPa 0,0 mm 0,7 km/h (0 Bft) NO 54 ° 0 min 0,000 mm 1,5 UV-I 188 W/m² 5,3 °C 18,8 °C 3,2 km/h (1 Bft)
06.11.2018 10:40 18,8 °C 40 % 1005,8 hPa 0,0 mm 3,6 km/h (1 Bft) SO 126 ° 0 min 0,000 mm 1,5 UV-I 188 W/m² 4,9 °C 18,8 °C 6,4 km/h (2 Bft)
06.11.2018 10:41 18,8 °C 39 % 1005,8 hPa 0,0 mm 3,8 km/h (1 Bft) S 187 ° 0 min 0,000 mm 1,5 UV-I 190 W/m² 4,6 °C 18,8 °C 6,4 km/h (2 Bft)
06.11.2018 10:42 18,8 °C 39 % 1005,8 hPa 0,0 mm 0,3 km/h (0 Bft) O 92 ° 0 min 0,000 mm 1,5 UV-I 190 W/m² 4,6 °C 18,8 °C 1,6 km/h (1 Bft)
06.11.2018 10:43 18,8 °C 41 % 1005,7 hPa 0,0 mm 5,7 km/h (1 Bft) O 92 ° 0 min 0,000 mm 1,5 UV-I 190 W/m² 5,3 °C 18,8 °C 11,3 km/h (2 Bft)
06.11.2018 10:44 18,9 °C 40 % 1005,8 hPa 0,0 mm 4,6 km/h (1 Bft) O 93 ° 0 min 0,000 mm 1,5 UV-I 190 W/m² 5,0 °C 18,9 °C 12,9 km/h (3 Bft)
06.11.2018 10:45 18,8 °C 43 % 1005,8 hPa 0,0 mm 2,6 km/h (1 Bft) O-SO 107 ° 0 min 0,000 mm 1,5 UV-I 190 W/m² 6,0 °C 18,8 °C 4,8 km/h (1 Bft)
06.11.2018 10:46 18,8 °C 41 % 1005,8 hPa 0,0 mm 1,3 km/h (1 Bft) O-SO 109 ° 0 min 0,000 mm 1,5 UV-I 188 W/m² 5,3 °C 18,8 °C 3,2 km/h (1 Bft)
06.11.2018 10:47 18,8 °C 41 % 1005,8 hPa 0,0 mm 1,6 km/h (1 Bft) SW 224 ° 0 min 0,000 mm 1,5 UV-I 188 W/m² 5,3 °C 18,8 °C 4,8 km/h (1 Bft)
06.11.2018 10:48 18,9 °C 41 % 1005,8 hPa 0,0 mm 0,6 km/h (0 Bft) SW 221 ° 0 min 0,000 mm 1,6 UV-I 186 W/m² 5,4 °C 18,9 °C 3,2 km/h (1 Bft)
06.11.2018 10:49 19,0 °C 43 % 1005,8 hPa 0,0 mm 1,6 km/h (1 Bft) S-SW 201 ° 0 min 0,000 mm 1,6 UV-I 185 W/m² 6,1 °C 19,0 °C 3,2 km/h (1 Bft)
06.11.2018 10:50 19,1 °C 40 % 1005,8 hPa 0,0 mm 3,8 km/h (1 Bft) O-SO 112 ° 0 min 0,000 mm 1,6 UV-I 183 W/m² 5,2 °C 19,1 °C 9,7 km/h (2 Bft)
06.11.2018 10:51 19,1 °C 40 % 1005,9 hPa 0,0 mm 4,4 km/h (1 Bft) NW 307 ° 0 min 0,000 mm 1,6 UV-I 183 W/m² 5,2 °C 19,1 °C 8,0 km/h (2 Bft)
06.11.2018 10:52 19,1 °C 44 % 1005,9 hPa 0,0 mm 5,6 km/h (1 Bft) O 80 ° 0 min 0,000 mm 1,6 UV-I 181 W/m² 6,6 °C 19,1 °C 11,3 km/h (2 Bft)
06.11.2018 10:53 18,9 °C 40 % 1005,9 hPa 0,0 mm 1,3 km/h (1 Bft) NO 40 ° 0 min 0,000 mm 1,6 UV-I 178 W/m² 5,0 °C 18,9 °C 4,8 km/h (1 Bft)
06.11.2018 10:54 19,0 °C 43 % 1005,8 hPa 0,0 mm 1,0 km/h (0 Bft) NO 40 ° 0 min 0,000 mm 1,6 UV-I 176 W/m² 6,1 °C 19,0 °C 3,2 km/h (1 Bft)
06.11.2018 10:55 18,9 °C 44 % 1005,8 hPa 0,0 mm 3,5 km/h (1 Bft) N 9 ° 0 min 0,000 mm 1,6 UV-I 174 W/m² 6,4 °C 18,9 °C 6,4 km/h (2 Bft)
06.11.2018 10:56 18,8 °C 42 % 1005,8 hPa 0,0 mm 3,0 km/h (1 Bft) O 96 ° 0 min 0,000 mm 1,6 UV-I 172 W/m² 5,6 °C 18,8 °C 6,4 km/h (2 Bft)
06.11.2018 10:57 18,8 °C 43 % 1005,8 hPa 0,0 mm 4,2 km/h (1 Bft) O-NO 72 ° 0 min 0,000 mm 1,6 UV-I 171 W/m² 6,0 °C 18,8 °C 9,7 km/h (2 Bft)
06.11.2018 10:58 18,8 °C 41 % 1005,8 hPa 0,0 mm 4,2 km/h (1 Bft) N-NW 343 ° 0 min 0,000 mm 1,6 UV-I 167 W/m² 5,3 °C 18,8 °C 6,4 km/h (2 Bft)
06.11.2018 10:59 18,9 °C 42 % 1005,8 hPa 0,0 mm 3,3 km/h (1 Bft) O-SO 105 ° 0 min 0,000 mm 1,5 UV-I 163 W/m² 5,7 °C 18,9 °C 8,0 km/h (2 Bft)
06.11.2018 11:00 18,9 °C 43 % 1005,8 hPa 0,0 mm 5,0 km/h (1 Bft) O-NO 61 ° 0 min 0,127 mm 1,5 UV-I 162 W/m² 6,0 °C 18,9 °C 6,4 km/h (2 Bft)
06.11.2018 11:01 18,8 °C 46 % 1005,8 hPa 0,0 mm 5,5 km/h (1 Bft) NO 56 ° 0 min 0,000 mm 1,5 UV-I 162 W/m² 6,9 °C 18,8 °C 6,4 km/h (2 Bft)
06.11.2018 11:02 18,6 °C 43 % 1005,8 hPa 0,0 mm 1,5 km/h (1 Bft) O-NO 57 ° 0 min 0,000 mm 1,5 UV-I 162 W/m² 5,8 °C 18,6 °C 3,2 km/h (1 Bft)
06.11.2018 11:03 18,7 °C 45 % 1005,8 hPa 0,0 mm 3,0 km/h (1 Bft) O-NO 70 ° 0 min 0,000 mm 1,5 UV-I 160 W/m² 6,5 °C 18,7 °C 4,8 km/h (1 Bft)
06.11.2018 11:04 18,7 °C 42 % 1005,7 hPa 0,0 mm 3,2 km/h (1 Bft) NO 36 ° 0 min 0,000 mm 1,5 UV-I 158 W/m² 5,5 °C 18,7 °C 4,8 km/h (1 Bft)
06.11.2018 11:05 18,8 °C 42 % 1005,7 hPa 0,0 mm 0,7 km/h (0 Bft) NO 36 ° 0 min 0,000 mm 1,5 UV-I 156 W/m² 5,6 °C 18,8 °C 3,2 km/h (1 Bft)
06.11.2018 11:06 18,9 °C 44 % 1005,7 hPa 0,0 mm 0,0 km/h (0 Bft) NO 36 ° 0 min 0,000 mm 1,5 UV-I 156 W/m² 6,4 °C 18,9 °C 0,0 km/h (0 Bft)
06.11.2018 11:07 19,1 °C 43 % 1005,7 hPa 0,0 mm 0,1 km/h (0 Bft) NO 36 ° 0 min 0,000 mm 1,5 UV-I 155 W/m² 6,2 °C 19,1 °C 1,6 km/h (1 Bft)
06.11.2018 11:08 19,2 °C 40 % 1005,7 hPa 0,0 mm 2,7 km/h (1 Bft) NO 36 ° 0 min 0,000 mm 1,5 UV-I 155 W/m² 5,3 °C 19,2 °C 4,8 km/h (1 Bft)
06.11.2018 11:09 19,3 °C 41 % 1005,7 hPa 0,0 mm 5,0 km/h (1 Bft) O-NO 74 ° 0 min 0,000 mm 1,5 UV-I 155 W/m² 5,7 °C 19,3 °C 12,9 km/h (3 Bft)
06.11.2018 11:10 19,4 °C 42 % 1005,7 hPa 0,0 mm 4,5 km/h (1 Bft) SO 131 ° 0 min 0,000 mm 1,5 UV-I 153 W/m² 6,2 °C 19,4 °C 12,9 km/h (3 Bft)
06.11.2018 11:11 19,4 °C 40 % 1005,7 hPa 0,0 mm 1,9 km/h (1 Bft) NO 41 ° 0 min 0,000 mm 1,5 UV-I 153 W/m² 5,5 °C 19,4 °C 6,4 km/h (2 Bft)
06.11.2018 11:12 19,4 °C 41 % 1005,6 hPa 0,0 mm 2,7 km/h (1 Bft) NO 36 ° 0 min 0,000 mm 1,5 UV-I 153 W/m² 5,8 °C 19,4 °C 6,4 km/h (2 Bft)
06.11.2018 11:13 19,4 °C 40 % 1005,6 hPa 0,0 mm 7,8 km/h (2 Bft) NO 36 ° 0 min 0,000 mm 1,5 UV-I 153 W/m² 5,5 °C 19,4 °C 11,3 km/h (2 Bft)
06.11.2018 11:14 19,3 °C 45 % 1005,5 hPa 0,0 mm 4,8 km/h (1 Bft) O-NO 68 ° 0 min 0,000 mm 1,5 UV-I 151 W/m² 7,1 °C 19,3 °C 9,7 km/h (2 Bft)
06.11.2018 11:15 19,2 °C 44 % 1005,5 hPa 0,0 mm 3,0 km/h (1 Bft) O-NO 60 ° 0 min 0,000 mm 1,5 UV-I 151 W/m² 6,7 °C 19,2 °C 6,4 km/h (2 Bft)
06.11.2018 11:16 19,1 °C 43 % 1005,6 hPa 0,0 mm 0,1 km/h (0 Bft) O-NO 60 ° 0 min 0,000 mm 1,5 UV-I 149 W/m² 6,2 °C 19,1 °C 1,6 km/h (1 Bft)
06.11.2018 11:17 19,2 °C 43 % 1005,5 hPa 0,0 mm 2,1 km/h (1 Bft) O-NO 59 ° 0 min 0,000 mm 1,5 UV-I 148 W/m² 6,3 °C 19,2 °C 3,2 km/h (1 Bft)
06.11.2018 11:18 19,2 °C 41 % 1005,5 hPa 0,0 mm 0,7 km/h (0 Bft) O-NO 59 ° 0 min 0,000 mm 1,5 UV-I 148 W/m² 5,6 °C 19,2 °C 3,2 km/h (1 Bft)
06.11.2018 11:19 19,3 °C 44 % 1005,5 hPa 0,0 mm 0,1 km/h (0 Bft) O-NO 59 ° 0 min 0,000 mm 1,5 UV-I 148 W/m² 6,7 °C 19,3 °C 1,6 km/h (1 Bft)
06.11.2018 11:20 19,4 °C 41 % 1005,5 hPa 0,0 mm 1,9 km/h (1 Bft) S-SW 207 ° 0 min 0,000 mm 1,5 UV-I 146 W/m² 5,8 °C 19,4 °C 4,8 km/h (1 Bft)
06.11.2018 11:21 19,4 °C 41 % 1005,5 hPa 0,0 mm 2,3 km/h (1 Bft) S-SW 205 ° 0 min 0,000 mm 1,5 UV-I 146 W/m² 5,8 °C 19,4 °C 4,8 km/h (1 Bft)
06.11.2018 11:22 19,5 °C 42 % 1005,5 hPa 0,0 mm 0,8 km/h (0 Bft) S-SW 205 ° 0 min 0,000 mm 1,5 UV-I 146 W/m² 6,2 °C 19,5 °C 3,2 km/h (1 Bft)
06.11.2018 11:23 19,5 °C 41 % 1005,5 hPa 0,0 mm 0,0 km/h (0 Bft) S-SW 205 ° 0 min 0,000 mm 1,5 UV-I 148 W/m² 5,9 °C 19,5 °C 0,0 km/h (0 Bft)
06.11.2018 11:24 19,6 °C 41 % 1005,5 hPa 0,0 mm 0,0 km/h (0 Bft) S-SW 205 ° 0 min 0,000 mm 1,5 UV-I 148 W/m² 6,0 °C 19,6 °C 0,0 km/h (0 Bft)
06.11.2018 11:25 19,5 °C 46 % 1005,4 hPa 0,0 mm 0,8 km/h (0 Bft) S-SW 205 ° 0 min 0,000 mm 1,5 UV-I 148 W/m² 7,6 °C 19,5 °C 3,2 km/h (1 Bft)
06.11.2018 11:26 19,5 °C 38 % 1005,4 hPa 0,0 mm 0,8 km/h (0 Bft) S-SW 205 ° 0 min 0,000 mm 1,5 UV-I 149 W/m² 4,8 °C 19,5 °C 3,2 km/h (1 Bft)
06.11.2018 11:27 19,6 °C 41 % 1005,4 hPa 0,0 mm 2,7 km/h (1 Bft) S-SW 205 ° 0 min 0,000 mm 1,5 UV-I 149 W/m² 6,0 °C 19,6 °C 6,4 km/h (2 Bft)
06.11.2018 11:28 19,6 °C 40 % 1005,4 hPa 0,0 mm 1,4 km/h (1 Bft) S-SW 205 ° 0 min 0,000 mm 1,5 UV-I 153 W/m² 5,6 °C 19,6 °C 3,2 km/h (1 Bft)
06.11.2018 11:29 19,4 °C 44 % 1005,4 hPa 0,0 mm 0,8 km/h (0 Bft) S-SW 197 ° 0 min 0,000 mm 1,5 UV-I 155 W/m² 6,8 °C 19,4 °C 4,8 km/h (1 Bft)
06.11.2018 11:30 19,3 °C 42 % 1005,4 hPa 0,0 mm 1,9 km/h (1 Bft) S-SW 197 ° 0 min 0,000 mm 1,5 UV-I 156 W/m² 6,1 °C 19,3 °C 4,8 km/h (1 Bft)
06.11.2018 11:31 19,2 °C 42 % 1005,4 hPa 0,0 mm 3,1 km/h (1 Bft) NO 39 ° 0 min 0,000 mm 1,5 UV-I 160 W/m² 6,0 °C 19,2 °C 6,4 km/h (2 Bft)
06.11.2018 11:32 19,1 °C 46 % 1005,4 hPa 0,0 mm 1,6 km/h (1 Bft) NO 39 ° 0 min 0,000 mm 1,5 UV-I 162 W/m² 7,2 °C 19,1 °C 3,2 km/h (1 Bft)
06.11.2018 11:33 19,0 °C 45 % 1005,3 hPa 0,0 mm 0,3 km/h (0 Bft) NO 39 ° 0 min 0,000 mm 1,5 UV-I 163 W/m² 6,8 °C 19,0 °C 1,6 km/h (1 Bft)
06.11.2018 11:34 19,0 °C 42 % 1005,3 hPa 0,0 mm 0,0 km/h (0 Bft) NO 39 ° 0 min 0,000 mm 1,5 UV-I 169 W/m² 5,8 °C 19,0 °C 0,0 km/h (0 Bft)
06.11.2018 11:35 19,1 °C 44 % 1005,3 hPa 0,0 mm 0,0 km/h (0 Bft) NO 39 ° 0 min 0,000 mm 1,5 UV-I 169 W/m² 6,6 °C 19,1 °C 0,0 km/h (0 Bft)
06.11.2018 11:36 19,0 °C 44 % 1005,2 hPa 0,0 mm 0,0 km/h (0 Bft) NO 39 ° 0 min 0,000 mm 1,5 UV-I 171 W/m² 6,5 °C 19,0 °C 0,0 km/h (0 Bft)
06.11.2018 11:37 18,9 °C 45 % 1005,2 hPa 0,0 mm 1,5 km/h (1 Bft) NO 39 ° 0 min 0,000 mm 1,6 UV-I 174 W/m² 6,7 °C 18,9 °C 3,2 km/h (1 Bft)
06.11.2018 11:38 19,0 °C 44 % 1005,3 hPa 0,0 mm 0,3 km/h (0 Bft) NO 39 ° 0 min 0,000 mm 1,6 UV-I 176 W/m² 6,5 °C 19,0 °C 1,6 km/h (1 Bft)
06.11.2018 11:39 18,9 °C 49 % 1005,3 hPa 0,0 mm 1,9 km/h (1 Bft) N-NO 32 ° 0 min 0,000 mm 1,6 UV-I 176 W/m² 7,9 °C 18,9 °C 4,8 km/h (1 Bft)
06.11.2018 11:40 18,9 °C 44 % 1005,3 hPa 0,0 mm 1,8 km/h (1 Bft) N-NO 32 ° 0 min 0,000 mm 1,6 UV-I 178 W/m² 6,4 °C 18,9 °C 4,8 km/h (1 Bft)
06.11.2018 11:41 18,9 °C 43 % 1005,2 hPa 0,0 mm 2,7 km/h (1 Bft) NO 49 ° 0 min 0,000 mm 1,6 UV-I 179 W/m² 6,0 °C 18,9 °C 4,8 km/h (1 Bft)
06.11.2018 11:42 18,9 °C 48 % 1005,2 hPa 0,0 mm 4,3 km/h (1 Bft) O 79 ° 0 min 0,000 mm 1,6 UV-I 181 W/m² 7,6 °C 18,9 °C 8,0 km/h (2 Bft)
06.11.2018 11:43 19,1 °C 45 % 1005,2 hPa 0,0 mm 2,3 km/h (1 Bft) SO 128 ° 0 min 0,000 mm 1,6 UV-I 181 W/m² 6,9 °C 19,1 °C 6,4 km/h (2 Bft)
06.11.2018 11:44 19,1 °C 45 % 1005,2 hPa 0,0 mm 1,4 km/h (1 Bft) O-SO 109 ° 0 min 0,000 mm 1,6 UV-I 183 W/m² 6,9 °C 19,1 °C 3,2 km/h (1 Bft)
06.11.2018 11:45 19,3 °C 40 % 1005,2 hPa 0,0 mm 2,3 km/h (1 Bft) O 87 ° 0 min 0,000 mm 1,6 UV-I 183 W/m² 5,4 °C 19,3 °C 4,8 km/h (1 Bft)
06.11.2018 11:46 19,4 °C 42 % 1005,2 hPa 0,0 mm 4,1 km/h (1 Bft) O 80 ° 0 min 0,000 mm 1,7 UV-I 183 W/m² 6,2 °C 19,4 °C 6,4 km/h (2 Bft)
06.11.2018 11:47 19,4 °C 43 % 1005,2 hPa 0,0 mm 1,5 km/h (1 Bft) O-SO 111 ° 0 min 0,000 mm 1,7 UV-I 183 W/m² 6,5 °C 19,4 °C 3,2 km/h (1 Bft)
06.11.2018 11:48 19,3 °C 45 % 1005,2 hPa 0,0 mm 2,5 km/h (1 Bft) W 275 ° 0 min 0,000 mm 1,7 UV-I 183 W/m² 7,1 °C 19,3 °C 9,7 km/h (2 Bft)
06.11.2018 11:49 19,4 °C 42 % 1005,2 hPa 0,0 mm 2,7 km/h (1 Bft) NO 36 ° 0 min 0,000 mm 1,7 UV-I 183 W/m² 6,2 °C 19,4 °C 4,8 km/h (1 Bft)
06.11.2018 11:50 19,5 °C 41 % 1005,2 hPa 0,0 mm 1,6 km/h (1 Bft) N-NO 13 ° 0 min 0,000 mm 1,7 UV-I 183 W/m² 5,9 °C 19,5 °C 3,2 km/h (1 Bft)
06.11.2018 11:51 19,6 °C 46 % 1005,2 hPa 0,0 mm 1,4 km/h (1 Bft) O-NO 70 ° 0 min 0,000 mm 1,7 UV-I 183 W/m² 7,7 °C 19,6 °C 3,2 km/h (1 Bft)
06.11.2018 11:52 19,6 °C 42 % 1005,2 hPa 0,0 mm 2,6 km/h (1 Bft) W 266 ° 0 min 0,000 mm 1,7 UV-I 183 W/m² 6,3 °C 19,6 °C 4,8 km/h (1 Bft)
06.11.2018 11:53 19,7 °C 38 % 1005,2 hPa 0,0 mm 1,3 km/h (1 Bft) W-SW 240 ° 0 min 0,000 mm 1,7 UV-I 181 W/m² 5,0 °C 19,7 °C 3,2 km/h (1 Bft)
06.11.2018 11:54 19,8 °C 40 % 1005,1 hPa 0,0 mm 4,0 km/h (1 Bft) O-NO 76 ° 0 min 0,000 mm 1,7 UV-I 181 W/m² 5,8 °C 19,8 °C 8,0 km/h (2 Bft)
06.11.2018 11:55 19,8 °C 44 % 1005,1 hPa 0,0 mm 2,1 km/h (1 Bft) O-NO 69 ° 0 min 0,000 mm 1,7 UV-I 181 W/m² 7,2 °C 19,8 °C 3,2 km/h (1 Bft)
06.11.2018 11:56 19,7 °C 40 % 1005,1 hPa 0,0 mm 1,3 km/h (1 Bft) O 101 ° 0 min 0,000 mm 1,7 UV-I 181 W/m² 5,7 °C 19,7 °C 4,8 km/h (1 Bft)
06.11.2018 11:57 19,8 °C 39 % 1005,1 hPa 0,0 mm 2,5 km/h (1 Bft) O-NO 67 ° 0 min 0,000 mm 1,7 UV-I 179 W/m² 5,4 °C 19,8 °C 4,8 km/h (1 Bft)
06.11.2018 11:58 19,8 °C 41 % 1005,1 hPa 0,0 mm 2,1 km/h (1 Bft) N-NO 19 ° 0 min 0,000 mm 1,7 UV-I 178 W/m² 6,2 °C 19,8 °C 4,8 km/h (1 Bft)
06.11.2018 11:59 19,8 °C 39 % 1005,1 hPa 0,0 mm 6,4 km/h (2 Bft) N-NO 23 ° 0 min 0,000 mm 1,7 UV-I 178 W/m² 5,4 °C 19,8 °C 11,3 km/h (2 Bft)
06.11.2018 12:00 19,8 °C 41 % 1005,0 hPa 0,0 mm 7,6 km/h (2 Bft) O-NO 59 ° 0 min 0,000 mm 1,7 UV-I 178 W/m² 6,2 °C 19,8 °C 9,7 km/h (2 Bft)
06.11.2018 12:01 19,7 °C 45 % 1005,0 hPa 0,0 mm 5,7 km/h (1 Bft) NO 36 ° 0 min 0,127 mm 1,7 UV-I 178 W/m² 7,4 °C 19,7 °C 8,0 km/h (2 Bft)
06.11.2018 12:02 19,7 °C 42 % 1004,9 hPa 0,0 mm 6,8 km/h (2 Bft) O-NO 67 ° 0 min 0,000 mm 1,8 UV-I 178 W/m² 6,4 °C 19,7 °C 9,7 km/h (2 Bft)
06.11.2018 12:03 19,7 °C 45 % 1005,0 hPa 0,0 mm 8,9 km/h (2 Bft) O-NO 69 ° 0 min 0,000 mm 1,8 UV-I 176 W/m² 7,4 °C 19,7 °C 17,7 km/h (3 Bft)
06.11.2018 12:04 19,7 °C 41 % 1004,9 hPa 0,0 mm 6,8 km/h (2 Bft) NO 49 ° 0 min 0,000 mm 1,8 UV-I 176 W/m² 6,1 °C 19,7 °C 12,9 km/h (3 Bft)
06.11.2018 12:05 19,8 °C 38 % 1005,0 hPa 0,0 mm 8,0 km/h (2 Bft) NO 44 ° 0 min 0,000 mm 1,8 UV-I 176 W/m² 5,1 °C 19,8 °C 14,5 km/h (3 Bft)
06.11.2018 12:06 19,9 °C 40 % 1005,0 hPa 0,0 mm 7,2 km/h (2 Bft) O-NO 72 ° 0 min 0,000 mm 1,8 UV-I 178 W/m² 5,9 °C 19,9 °C 9,7 km/h (2 Bft)
06.11.2018 12:07 19,9 °C 38 % 1005,0 hPa 0,0 mm 4,6 km/h (1 Bft) NO 55 ° 0 min 0,000 mm 1,8 UV-I 178 W/m² 5,2 °C 19,9 °C 6,4 km/h (2 Bft)
06.11.2018 12:08 20,0 °C 38 % 1004,9 hPa 0,0 mm 3,3 km/h (1 Bft) NO 51 ° 0 min 0,000 mm 1,8 UV-I 178 W/m² 5,2 °C 20,0 °C 8,0 km/h (2 Bft)
06.11.2018 12:09 20,1 °C 42 % 1004,9 hPa 0,0 mm 0,7 km/h (0 Bft) NO 38 ° 0 min 0,000 mm 1,8 UV-I 179 W/m² 6,8 °C 20,1 °C 4,8 km/h (1 Bft)
06.11.2018 12:10 19,9 °C 43 % 1004,9 hPa 0,0 mm 5,7 km/h (1 Bft) O 92 ° 0 min 0,000 mm 1,8 UV-I 179 W/m² 6,9 °C 19,9 °C 9,7 km/h (2 Bft)
06.11.2018 12:11 19,8 °C 42 % 1005,0 hPa 0,0 mm 3,6 km/h (1 Bft) NW 313 ° 0 min 0,000 mm 1,8 UV-I 181 W/m² 6,5 °C 19,8 °C 6,4 km/h (2 Bft)
06.11.2018 12:12 19,8 °C 37 % 1005,0 hPa 0,0 mm 1,5 km/h (1 Bft) O-NO 61 ° 0 min 0,000 mm 1,8 UV-I 181 W/m² 4,7 °C 19,8 °C 3,2 km/h (1 Bft)
06.11.2018 12:13 19,9 °C 38 % 1005,0 hPa 0,0 mm 5,9 km/h (2 Bft) O-SO 105 ° 0 min 0,000 mm 1,8 UV-I 181 W/m² 5,2 °C 19,9 °C 12,9 km/h (3 Bft)
06.11.2018 12:14 19,9 °C 38 % 1004,9 hPa 0,0 mm 6,5 km/h (2 Bft) O 82 ° 0 min 0,000 mm 1,8 UV-I 181 W/m² 5,2 °C 19,9 °C 11,3 km/h (2 Bft)
06.11.2018 12:15 20,0 °C 39 % 1005,0 hPa 0,0 mm 6,4 km/h (2 Bft) NO 56 ° 0 min 0,000 mm 1,8 UV-I 181 W/m² 5,6 °C 20,0 °C 11,3 km/h (2 Bft)
06.11.2018 12:16 20,0 °C 39 % 1005,0 hPa 0,0 mm 2,5 km/h (1 Bft) NO 55 ° 0 min 0,000 mm 1,8 UV-I 179 W/m² 5,6 °C 20,0 °C 4,8 km/h (1 Bft)
06.11.2018 12:17 20,0 °C 39 % 1005,0 hPa 0,0 mm 2,1 km/h (1 Bft) N-NO 19 ° 0 min 0,000 mm 1,8 UV-I 179 W/m² 5,6 °C 20,0 °C 6,4 km/h (2 Bft)
06.11.2018 12:18 19,9 °C 41 % 1004,9 hPa 0,0 mm 4,4 km/h (1 Bft) O-SO 103 ° 0 min 0,000 mm 1,8 UV-I 179 W/m² 6,3 °C 19,9 °C 6,4 km/h (2 Bft)
06.11.2018 12:19 19,9 °C 45 % 1005,0 hPa 0,0 mm 4,0 km/h (1 Bft) N-NW 344 ° 0 min 0,000 mm 1,8 UV-I 179 W/m² 7,6 °C 19,9 °C 6,4 km/h (2 Bft)
06.11.2018 12:20 20,0 °C 39 % 1005,0 hPa 0,0 mm 1,3 km/h (1 Bft) SW 222 ° 0 min 0,000 mm 1,8 UV-I 178 W/m² 5,6 °C 20,0 °C 4,8 km/h (1 Bft)
06.11.2018 12:21 20,0 °C 39 % 1005,0 hPa 0,0 mm 0,5 km/h (0 Bft) S-SW 211 ° 0 min 0,000 mm 1,8 UV-I 174 W/m² 5,6 °C 20,0 °C 1,6 km/h (1 Bft)
06.11.2018 12:22 20,0 °C 40 % 1005,0 hPa 0,0 mm 2,5 km/h (1 Bft) N-NO 24 ° 0 min 0,000 mm 1,8 UV-I 174 W/m² 6,0 °C 20,0 °C 6,4 km/h (2 Bft)
06.11.2018 12:23 20,1 °C 40 % 1005,0 hPa 0,0 mm 3,6 km/h (1 Bft) NO 35 ° 0 min 0,000 mm 1,8 UV-I 172 W/m² 6,1 °C 20,1 °C 6,4 km/h (2 Bft)
06.11.2018 12:24 20,0 °C 43 % 1005,0 hPa 0,0 mm 2,7 km/h (1 Bft) N-NW 329 ° 0 min 0,000 mm 1,8 UV-I 172 W/m² 7,0 °C 20,0 °C 6,4 km/h (2 Bft)
06.11.2018 12:25 20,0 °C 38 % 1005,0 hPa 0,0 mm 5,7 km/h (1 Bft) S 181 ° 0 min 0,000 mm 1,8 UV-I 171 W/m² 5,2 °C 20,0 °C 9,7 km/h (2 Bft)
06.11.2018 12:26 20,1 °C 37 % 1005,0 hPa 0,0 mm 1,3 km/h (1 Bft) W-NW 286 ° 0 min 0,000 mm 1,8 UV-I 169 W/m² 5,0 °C 20,1 °C 4,8 km/h (1 Bft)
06.11.2018 12:27 20,1 °C 38 % 1004,9 hPa 0,0 mm 2,5 km/h (1 Bft) SO 132 ° 0 min 0,000 mm 1,8 UV-I 167 W/m² 5,3 °C 20,1 °C 4,8 km/h (1 Bft)
06.11.2018 12:28 20,1 °C 40 % 1004,9 hPa 0,0 mm 4,6 km/h (1 Bft) NO 51 ° 0 min 0,000 mm 1,8 UV-I 165 W/m² 6,1 °C 20,1 °C 8,0 km/h (2 Bft)
06.11.2018 12:29 20,1 °C 38 % 1004,9 hPa 0,0 mm 9,5 km/h (2 Bft) O-SO 113 ° 0 min 0,000 mm 1,8 UV-I 162 W/m² 5,3 °C 20,1 °C 16,1 km/h (3 Bft)
06.11.2018 12:30 20,0 °C 39 % 1004,9 hPa 0,0 mm 1,7 km/h (1 Bft) O-SO 113 ° 0 min 0,000 mm 1,8 UV-I 160 W/m² 5,6 °C 20,0 °C 3,2 km/h (1 Bft)
06.11.2018 12:31 19,9 °C 40 % 1004,9 hPa 0,0 mm 3,8 km/h (1 Bft) O-NO 70 ° 0 min 0,000 mm 1,8 UV-I 158 W/m² 5,9 °C 19,9 °C 6,4 km/h (2 Bft)
06.11.2018 12:32 19,8 °C 44 % 1004,9 hPa 0,0 mm 4,8 km/h (1 Bft) O 90 ° 0 min 0,000 mm 1,8 UV-I 156 W/m² 7,2 °C 19,8 °C 11,3 km/h (2 Bft)
06.11.2018 12:33 19,7 °C 39 % 1004,9 hPa 0,0 mm 5,5 km/h (1 Bft) O-NO 72 ° 0 min 0,000 mm 1,7 UV-I 155 W/m² 5,4 °C 19,7 °C 9,7 km/h (2 Bft)
06.11.2018 12:34 19,7 °C 40 % 1004,9 hPa 0,0 mm 4,7 km/h (1 Bft) O-NO 57 ° 0 min 0,000 mm 1,7 UV-I 153 W/m² 5,7 °C 19,7 °C 8,0 km/h (2 Bft)
06.11.2018 12:35 19,7 °C 43 % 1005,0 hPa 0,0 mm 5,0 km/h (1 Bft) O-SO 116 ° 0 min 0,000 mm 1,7 UV-I 151 W/m² 6,8 °C 19,7 °C 9,7 km/h (2 Bft)
06.11.2018 12:36 19,7 °C 41 % 1005,0 hPa 0,0 mm 4,2 km/h (1 Bft) O-SO 122 ° 0 min 0,000 mm 1,7 UV-I 149 W/m² 6,1 °C 19,7 °C 11,3 km/h (2 Bft)
06.11.2018 12:37 19,7 °C 40 % 1004,9 hPa 0,0 mm 4,6 km/h (1 Bft) NO 37 ° 0 min 0,000 mm 1,7 UV-I 146 W/m² 5,7 °C 19,7 °C 9,7 km/h (2 Bft)
06.11.2018 12:38 19,7 °C 41 % 1004,9 hPa 0,0 mm 7,2 km/h (2 Bft) O-NO 61 ° 0 min 0,000 mm 1,7 UV-I 142 W/m² 6,1 °C 19,7 °C 11,3 km/h (2 Bft)
06.11.2018 12:39 19,6 °C 45 % 1005,0 hPa 0,0 mm 9,7 km/h (2 Bft) O 98 ° 0 min 0,000 mm 1,7 UV-I 141 W/m² 7,3 °C 19,6 °C 12,9 km/h (3 Bft)
06.11.2018 12:40 19,6 °C 40 % 1004,9 hPa 0,0 mm 6,2 km/h (2 Bft) N 9 ° 0 min 0,000 mm 1,7 UV-I 139 W/m² 5,6 °C 19,6 °C 11,3 km/h (2 Bft)
06.11.2018 12:41 19,6 °C 39 % 1004,9 hPa 0,0 mm 4,4 km/h (1 Bft) O-SO 111 ° 0 min 0,000 mm 1,6 UV-I 137 W/m² 5,3 °C 19,6 °C 11,3 km/h (2 Bft)
06.11.2018 12:42 19,7 °C 41 % 1004,9 hPa 0,0 mm 4,8 km/h (1 Bft) NO 53 ° 0 min 0,000 mm 1,6 UV-I 135 W/m² 6,1 °C 19,7 °C 8,0 km/h (2 Bft)
06.11.2018 12:43 19,6 °C 41 % 1004,9 hPa 0,0 mm 0,8 km/h (0 Bft) NO 53 ° 0 min 0,000 mm 1,6 UV-I 132 W/m² 6,0 °C 19,6 °C 3,2 km/h (1 Bft)
06.11.2018 12:44 19,5 °C 41 % 1004,9 hPa 0,0 mm 0,3 km/h (0 Bft) NO 53 ° 0 min 0,000 mm 1,6 UV-I 128 W/m² 5,9 °C 19,5 °C 3,2 km/h (1 Bft)
06.11.2018 12:45 19,4 °C 42 % 1004,9 hPa 0,0 mm 3,2 km/h (1 Bft) O 96 ° 0 min 0,000 mm 1,6 UV-I 127 W/m² 6,2 °C 19,4 °C 9,7 km/h (2 Bft)
06.11.2018 12:46 19,4 °C 44 % 1004,9 hPa 0,0 mm 3,4 km/h (1 Bft) NW 308 ° 0 min 0,000 mm 1,6 UV-I 127 W/m² 6,8 °C 19,4 °C 6,4 km/h (2 Bft)
06.11.2018 12:47 19,3 °C 44 % 1005,0 hPa 0,0 mm 1,0 km/h (0 Bft) N 360 ° 0 min 0,000 mm 1,5 UV-I 125 W/m² 6,7 °C 19,3 °C 3,2 km/h (1 Bft)
06.11.2018 12:48 19,2 °C 43 % 1004,9 hPa 0,0 mm 2,7 km/h (1 Bft) O-NO 75 ° 0 min 0,000 mm 1,5 UV-I 123 W/m² 6,3 °C 19,2 °C 6,4 km/h (2 Bft)
06.11.2018 12:49 19,2 °C 41 % 1004,9 hPa 0,0 mm 7,7 km/h (2 Bft) O 90 ° 0 min 0,000 mm 1,5 UV-I 121 W/m² 5,6 °C 19,2 °C 11,3 km/h (2 Bft)
06.11.2018 12:50 19,2 °C 40 % 1004,9 hPa 0,0 mm 7,0 km/h (2 Bft) NO 50 ° 0 min 0,000 mm 1,5 UV-I 118 W/m² 5,3 °C 19,2 °C 16,1 km/h (3 Bft)
06.11.2018 12:51 19,2 °C 40 % 1005,0 hPa 0,0 mm 6,8 km/h (2 Bft) O-SO 105 ° 0 min 0,000 mm 1,5 UV-I 116 W/m² 5,3 °C 19,2 °C 9,7 km/h (2 Bft)
06.11.2018 12:52 19,2 °C 39 % 1004,9 hPa 0,0 mm 4,5 km/h (1 Bft) O-NO 68 ° 0 min 0,000 mm 1,5 UV-I 114 W/m² 4,9 °C 19,2 °C 6,4 km/h (2 Bft)
06.11.2018 12:53 19,2 °C 39 % 1005,0 hPa 0,0 mm 2,1 km/h (1 Bft) N 360 ° 0 min 0,000 mm 1,4 UV-I 113 W/m² 4,9 °C 19,2 °C 6,4 km/h (2 Bft)
06.11.2018 12:54 19,3 °C 39 % 1005,0 hPa 0,0 mm 5,9 km/h (2 Bft) O 85 ° 0 min 0,000 mm 1,4 UV-I 113 W/m² 5,0 °C 19,3 °C 11,3 km/h (2 Bft)
06.11.2018 12:55 19,3 °C 39 % 1005,0 hPa 0,0 mm 6,6 km/h (2 Bft) O-NO 67 ° 0 min 0,000 mm 1,4 UV-I 111 W/m² 5,0 °C 19,3 °C 12,9 km/h (3 Bft)
06.11.2018 12:56 19,3 °C 39 % 1005,0 hPa 0,0 mm 3,0 km/h (1 Bft) NO 36 ° 0 min 0,000 mm 1,4 UV-I 109 W/m² 5,0 °C 19,3 °C 6,4 km/h (2 Bft)
06.11.2018 12:57 19,3 °C 39 % 1005,0 hPa 0,0 mm 2,4 km/h (1 Bft) NO 36 ° 0 min 0,000 mm 1,4 UV-I 107 W/m² 5,0 °C 19,3 °C 4,8 km/h (1 Bft)
06.11.2018 12:58 19,2 °C 40 % 1005,0 hPa 0,0 mm 2,2 km/h (1 Bft) N-NO 13 ° 0 min 0,000 mm 1,4 UV-I 105 W/m² 5,3 °C 19,2 °C 6,4 km/h (2 Bft)
06.11.2018 12:59 19,1 °C 41 % 1005,0 hPa 0,0 mm 2,8 km/h (1 Bft) NO 49 ° 0 min 0,000 mm 1,4 UV-I 105 W/m² 5,5 °C 19,1 °C 6,4 km/h (2 Bft)
06.11.2018 13:00 18,8 °C 41 % 1005,1 hPa 0,0 mm 1,8 km/h (1 Bft) O-NO 76 ° 0 min 0,000 mm 1,4 UV-I 105 W/m² 5,3 °C 18,8 °C 3,2 km/h (1 Bft)
06.11.2018 13:01 18,8 °C 43 % 1005,1 hPa 0,0 mm 3,2 km/h (1 Bft) O 100 ° 0 min 0,127 mm 1,4 UV-I 105 W/m² 6,0 °C 18,8 °C 8,0 km/h (2 Bft)
06.11.2018 13:02 18,8 °C 44 % 1005,1 hPa 0,0 mm 4,0 km/h (1 Bft) NO 56 ° 0 min 0,000 mm 1,4 UV-I 102 W/m² 6,3 °C 18,8 °C 6,4 km/h (2 Bft)
06.11.2018 13:03 18,7 °C 44 % 1005,0 hPa 0,0 mm 0,9 km/h (0 Bft) NO 56 ° 0 min 0,000 mm 1,4 UV-I 100 W/m² 6,2 °C 18,7 °C 3,2 km/h (1 Bft)
06.11.2018 13:04 18,6 °C 44 % 1005,1 hPa 0,0 mm 0,8 km/h (0 Bft) NO 56 ° 0 min 0,000 mm 1,3 UV-I 98 W/m² 6,1 °C 18,6 °C 3,2 km/h (1 Bft)
06.11.2018 13:05 18,5 °C 48 % 1005,0 hPa 0,0 mm 0,0 km/h (0 Bft) NO 56 ° 0 min 0,000 mm 1,3 UV-I 98 W/m² 7,3 °C 18,5 °C 0,0 km/h (0 Bft)
06.11.2018 13:06 18,3 °C 46 % 1005,0 hPa 0,0 mm 0,8 km/h (0 Bft) NO 56 ° 0 min 0,000 mm 1,3 UV-I 97 W/m² 6,5 °C 18,3 °C 3,2 km/h (1 Bft)
06.11.2018 13:07 18,3 °C 44 % 1005,0 hPa 0,0 mm 1,3 km/h (1 Bft) NO 56 ° 0 min 0,000 mm 1,3 UV-I 95 W/m² 5,8 °C 18,3 °C 3,2 km/h (1 Bft)
06.11.2018 13:08 18,3 °C 45 % 1005,0 hPa 0,0 mm 0,0 km/h (0 Bft) NO 56 ° 0 min 0,000 mm 1,3 UV-I 93 W/m² 6,2 °C 18,3 °C 0,0 km/h (0 Bft)
06.11.2018 13:09 18,2 °C 48 % 1005,0 hPa 0,0 mm 0,1 km/h (0 Bft) NO 56 ° 0 min 0,000 mm 1,3 UV-I 91 W/m² 7,0 °C 18,2 °C 1,6 km/h (1 Bft)
06.11.2018 13:10 18,1 °C 48 % 1004,9 hPa 0,0 mm 1,5 km/h (1 Bft) O-NO 61 ° 0 min 0,000 mm 1,3 UV-I 91 W/m² 6,9 °C 18,1 °C 4,8 km/h (1 Bft)
06.11.2018 13:11 18,0 °C 47 % 1005,0 hPa 0,0 mm 4,3 km/h (1 Bft) NO 44 ° 0 min 0,000 mm 1,3 UV-I 91 W/m² 6,5 °C 18,0 °C 6,4 km/h (2 Bft)
06.11.2018 13:12 17,9 °C 50 % 1004,9 hPa 0,0 mm 5,8 km/h (2 Bft) NO 49 ° 0 min 0,000 mm 1,3 UV-I 93 W/m² 7,3 °C 17,9 °C 9,7 km/h (2 Bft)
06.11.2018 13:13 17,8 °C 47 % 1004,9 hPa 0,0 mm 6,6 km/h (2 Bft) O-NO 63 ° 0 min 0,000 mm 1,3 UV-I 91 W/m² 6,3 °C 17,8 °C 8,0 km/h (2 Bft)
06.11.2018 13:14 17,8 °C 45 % 1004,9 hPa 0,0 mm 6,5 km/h (2 Bft) O 97 ° 0 min 0,000 mm 1,3 UV-I 91 W/m² 5,7 °C 17,8 °C 9,7 km/h (2 Bft)
06.11.2018 13:15 17,8 °C 47 % 1004,9 hPa 0,0 mm 2,7 km/h (1 Bft) O 97 ° 0 min 0,000 mm 1,2 UV-I 88 W/m² 6,3 °C 17,8 °C 4,8 km/h (1 Bft)
06.11.2018 13:16 17,8 °C 49 % 1004,9 hPa 0,0 mm 2,6 km/h (1 Bft) O 92 ° 0 min 0,000 mm 1,2 UV-I 86 W/m² 6,9 °C 17,8 °C 4,8 km/h (1 Bft)
06.11.2018 13:17 17,6 °C 50 % 1004,9 hPa 0,0 mm 3,7 km/h (1 Bft) O 92 ° 0 min 0,000 mm 1,2 UV-I 84 W/m² 7,1 °C 17,6 °C 6,4 km/h (2 Bft)
06.11.2018 13:18 17,4 °C 52 % 1005,0 hPa 0,0 mm 3,6 km/h (1 Bft) O-NO 75 ° 0 min 0,000 mm 1,2 UV-I 83 W/m² 7,4 °C 17,4 °C 4,8 km/h (1 Bft)
06.11.2018 13:19 17,2 °C 52 % 1004,9 hPa 0,0 mm 5,1 km/h (1 Bft) O-NO 75 ° 0 min 0,000 mm 1,2 UV-I 79 W/m² 7,3 °C 17,2 °C 6,4 km/h (2 Bft)
06.11.2018 13:20 17,1 °C 49 % 1005,0 hPa 0,0 mm 2,9 km/h (1 Bft) O-NO 78 ° 0 min 0,000 mm 1,2 UV-I 77 W/m² 6,3 °C 17,1 °C 6,4 km/h (2 Bft)
06.11.2018 13:21 17,2 °C 49 % 1005,0 hPa 0,0 mm 0,1 km/h (0 Bft) O-NO 78 ° 0 min 0,000 mm 1,2 UV-I 76 W/m² 6,4 °C 17,2 °C 1,6 km/h (1 Bft)
06.11.2018 13:22 17,2 °C 49 % 1005,0 hPa 0,0 mm 1,9 km/h (1 Bft) O 80 ° 0 min 0,000 mm 1,1 UV-I 74 W/m² 6,4 °C 17,2 °C 3,2 km/h (1 Bft)
06.11.2018 13:23 17,1 °C 51 % 1005,0 hPa 0,0 mm 2,6 km/h (1 Bft) O 86 ° 0 min 0,000 mm 1,1 UV-I 72 W/m² 6,9 °C 17,1 °C 4,8 km/h (1 Bft)
06.11.2018 13:24 17,2 °C 48 % 1005,0 hPa 0,0 mm 0,6 km/h (0 Bft) O 86 ° 0 min 0,000 mm 1,1 UV-I 72 W/m² 6,1 °C 17,2 °C 1,6 km/h (1 Bft)
06.11.2018 13:25 17,1 °C 50 % 1005,0 hPa 0,0 mm 0,2 km/h (0 Bft) O 86 ° 0 min 0,000 mm 1,1 UV-I 72 W/m² 6,6 °C 17,1 °C 1,6 km/h (1 Bft)
06.11.2018 13:26 17,1 °C 50 % 1005,0 hPa 0,0 mm 0,1 km/h (0 Bft) O 86 ° 0 min 0,000 mm 1,1 UV-I 74 W/m² 6,6 °C 17,1 °C 1,6 km/h (1 Bft)
06.11.2018 13:27 17,1 °C 49 % 1005,0 hPa 0,0 mm 0,8 km/h (0 Bft) O 86 ° 0 min 0,000 mm 1,1 UV-I 72 W/m² 6,3 °C 17,1 °C 3,2 km/h (1 Bft)
06.11.2018 13:28 16,9 °C 52 % 1005,0 hPa 0,0 mm 3,6 km/h (1 Bft) O 80 ° 0 min 0,000 mm 1,1 UV-I 70 W/m² 7,0 °C 16,9 °C 6,4 km/h (2 Bft)
06.11.2018 13:29 16,8 °C 52 % 1005,0 hPa 0,0 mm 1,2 km/h (1 Bft) O 80 ° 0 min 0,000 mm 1,1 UV-I 69 W/m² 6,9 °C 16,8 °C 3,2 km/h (1 Bft)
06.11.2018 13:30 16,8 °C 51 % 1005,0 hPa 0,0 mm 0,1 km/h (0 Bft) O 80 ° 0 min 0,000 mm 1,1 UV-I 69 W/m² 6,6 °C 16,8 °C 1,6 km/h (1 Bft)
06.11.2018 13:31 16,7 °C 53 % 1005,0 hPa 0,0 mm 0,0 km/h (0 Bft) O 80 ° 0 min 0,000 mm 1,1 UV-I 70 W/m² 7,1 °C 16,7 °C 0,0 km/h (0 Bft)
06.11.2018 13:32 16,7 °C 51 % 1005,0 hPa 0,0 mm 0,0 km/h (0 Bft) O 80 ° 0 min 0,000 mm 1,1 UV-I 72 W/m² 6,5 °C 16,7 °C 0,0 km/h (0 Bft)
06.11.2018 13:33 16,7 °C 50 % 1005,0 hPa 0,0 mm 0,6 km/h (0 Bft) O 80 ° 0 min 0,000 mm 1,1 UV-I 72 W/m² 6,2 °C 16,7 °C 3,2 km/h (1 Bft)
06.11.2018 13:34 16,6 °C 52 % 1005,0 hPa 0,0 mm 0,9 km/h (0 Bft) O 80 ° 0 min 0,000 mm 1,1 UV-I 74 W/m² 6,7 °C 16,6 °C 3,2 km/h (1 Bft)
06.11.2018 13:35 16,6 °C 52 % 1005,0 hPa 0,0 mm 1,6 km/h (1 Bft) O 95 ° 0 min 0,000 mm 1,1 UV-I 72 W/m² 6,7 °C 16,6 °C 4,8 km/h (1 Bft)
06.11.2018 13:36 16,6 °C 50 % 1005,0 hPa 0,0 mm 3,6 km/h (1 Bft) O-SO 104 ° 0 min 0,000 mm 1,1 UV-I 70 W/m² 6,1 °C 16,6 °C 6,4 km/h (2 Bft)
06.11.2018 13:37 16,6 °C 52 % 1005,1 hPa 0,0 mm 1,5 km/h (1 Bft) O-SO 104 ° 0 min 0,000 mm 1,0 UV-I 67 W/m² 6,7 °C 16,6 °C 3,2 km/h (1 Bft)
06.11.2018 13:38 16,6 °C 51 % 1005,0 hPa 0,0 mm 0,3 km/h (0 Bft) O-SO 104 ° 0 min 0,000 mm 1,0 UV-I 63 W/m² 6,4 °C 16,6 °C 1,6 km/h (1 Bft)
06.11.2018 13:39 16,6 °C 50 % 1005,0 hPa 0,0 mm 0,1 km/h (0 Bft) O-SO 104 ° 0 min 0,000 mm 1,0 UV-I 62 W/m² 6,1 °C 16,6 °C 1,6 km/h (1 Bft)
06.11.2018 13:40 16,6 °C 50 % 1005,0 hPa 0,0 mm 1,1 km/h (1 Bft) O-SO 104 ° 0 min 0,000 mm 1,0 UV-I 60 W/m² 6,1 °C 16,6 °C 1,6 km/h (1 Bft)
06.11.2018 13:41 16,7 °C 51 % 1005,0 hPa 0,0 mm 1,8 km/h (1 Bft) O-SO 104 ° 0 min 0,000 mm 1,0 UV-I 60 W/m² 6,5 °C 16,7 °C 3,2 km/h (1 Bft)
06.11.2018 13:42 16,7 °C 50 % 1005,0 hPa 0,0 mm 1,4 km/h (1 Bft) O-SO 104 ° 0 min 0,000 mm 1,0 UV-I 58 W/m² 6,2 °C 16,7 °C 1,6 km/h (1 Bft)
06.11.2018 13:43 16,7 °C 51 % 1005,0 hPa 0,0 mm 1,2 km/h (1 Bft) O-SO 104 ° 0 min 0,000 mm 1,0 UV-I 58 W/m² 6,5 °C 16,7 °C 3,2 km/h (1 Bft)
06.11.2018 13:44 16,7 °C 50 % 1004,9 hPa 0,0 mm 2,3 km/h (1 Bft) O-SO 104 ° 0 min 0,000 mm 0,9 UV-I 58 W/m² 6,2 °C 16,7 °C 3,2 km/h (1 Bft)
06.11.2018 13:45 16,7 °C 50 % 1004,9 hPa 0,0 mm 0,7 km/h (0 Bft) O-SO 104 ° 0 min 0,000 mm 0,9 UV-I 56 W/m² 6,2 °C 16,7 °C 3,2 km/h (1 Bft)
06.11.2018 13:46 16,7 °C 51 % 1004,8 hPa 0,0 mm 3,0 km/h (1 Bft) O-SO 104 ° 0 min 0,000 mm 0,9 UV-I 56 W/m² 6,5 °C 16,7 °C 4,8 km/h (1 Bft)
06.11.2018 13:47 16,7 °C 51 % 1004,8 hPa 0,0 mm 2,4 km/h (1 Bft) O-SO 104 ° 0 min 0,000 mm 0,9 UV-I 56 W/m² 6,5 °C 16,7 °C 3,2 km/h (1 Bft)
06.11.2018 13:48 16,6 °C 53 % 1004,8 hPa 0,0 mm 0,7 km/h (0 Bft) O-SO 104 ° 0 min 0,000 mm 0,9 UV-I 56 W/m² 7,0 °C 16,6 °C 3,2 km/h (1 Bft)
06.11.2018 13:49 16,5 °C 51 % 1004,8 hPa 0,0 mm 1,0 km/h (0 Bft) O-SO 104 ° 0 min 0,000 mm 0,9 UV-I 56 W/m² 6,3 °C 16,5 °C 1,6 km/h (1 Bft)
06.11.2018 13:50 16,4 °C 51 % 1004,8 hPa 0,0 mm 0,0 km/h (0 Bft) O-SO 104 ° 0 min 0,000 mm 0,9 UV-I 56 W/m² 6,2 °C 16,4 °C 0,0 km/h (0 Bft)
06.11.2018 13:51 16,4 °C 52 % 1004,8 hPa 0,0 mm 0,0 km/h (0 Bft) O-SO 104 ° 0 min 0,000 mm 0,9 UV-I 56 W/m² 6,5 °C 16,4 °C 0,0 km/h (0 Bft)
06.11.2018 13:52 16,4 °C 55 % 1004,8 hPa 0,0 mm 2,0 km/h (1 Bft) O 98 ° 0 min 0,000 mm 0,9 UV-I 56 W/m² 7,3 °C 16,4 °C 4,8 km/h (1 Bft)
06.11.2018 13:53 16,3 °C 53 % 1004,7 hPa 0,0 mm 2,3 km/h (1 Bft) O 98 ° 0 min 0,000 mm 0,9 UV-I 58 W/m² 6,7 °C 16,3 °C 3,2 km/h (1 Bft)
06.11.2018 13:54 16,2 °C 52 % 1004,7 hPa 0,0 mm 1,0 km/h (0 Bft) O 98 ° 0 min 0,000 mm 0,9 UV-I 60 W/m² 6,3 °C 16,2 °C 3,2 km/h (1 Bft)
06.11.2018 13:55 16,2 °C 52 % 1004,7 hPa 0,0 mm 2,6 km/h (1 Bft) O 98 ° 0 min 0,000 mm 0,9 UV-I 60 W/m² 6,3 °C 16,2 °C 3,2 km/h (1 Bft)
06.11.2018 13:56 16,1 °C 54 % 1004,7 hPa 0,0 mm 0,3 km/h (0 Bft) O 98 ° 0 min 0,000 mm 0,9 UV-I 62 W/m² 6,8 °C 16,1 °C 1,6 km/h (1 Bft)
06.11.2018 13:57 15,9 °C 54 % 1004,8 hPa 0,0 mm 0,2 km/h (0 Bft) O 98 ° 0 min 0,000 mm 0,9 UV-I 63 W/m² 6,6 °C 15,9 °C 1,6 km/h (1 Bft)
06.11.2018 13:58 15,9 °C 53 % 1004,8 hPa 0,0 mm 1,7 km/h (1 Bft) O 98 ° 0 min 0,000 mm 0,9 UV-I 65 W/m² 6,3 °C 15,9 °C 3,2 km/h (1 Bft)
06.11.2018 13:59 15,9 °C 53 % 1004,8 hPa 0,0 mm 0,5 km/h (0 Bft) O 98 ° 0 min 0,000 mm 0,9 UV-I 67 W/m² 6,3 °C 15,9 °C 1,6 km/h (1 Bft)
06.11.2018 14:00 15,8 °C 54 % 1004,8 hPa 0,0 mm 0,0 km/h (0 Bft) O 98 ° 0 min 0,000 mm 0,9 UV-I 70 W/m² 6,5 °C 15,8 °C 0,0 km/h (0 Bft)
06.11.2018 14:01 15,7 °C 57 % 1004,8 hPa 0,0 mm 0,0 km/h (0 Bft) O 98 ° 0 min 0,051 mm 0,9 UV-I 67 W/m² 7,2 °C 15,7 °C 0,0 km/h (0 Bft)
06.11.2018 14:02 15,7 °C 55 % 1004,8 hPa 0,0 mm 0,2 km/h (0 Bft) O 98 ° 0 min 0,000 mm 0,9 UV-I 67 W/m² 6,7 °C 15,7 °C 1,6 km/h (1 Bft)
06.11.2018 14:03 15,6 °C 55 % 1004,8 hPa 0,0 mm 2,7 km/h (1 Bft) O-SO 105 ° 0 min 0,000 mm 0,8 UV-I 65 W/m² 6,6 °C 15,6 °C 4,8 km/h (1 Bft)
06.11.2018 14:04 15,7 °C 56 % 1004,8 hPa 0,0 mm 1,5 km/h (1 Bft) O-SO 105 ° 0 min 0,000 mm 0,8 UV-I 67 W/m² 6,9 °C 15,7 °C 3,2 km/h (1 Bft)
06.11.2018 14:05 15,6 °C 57 % 1004,8 hPa 0,0 mm 1,0 km/h (0 Bft) O-SO 105 ° 0 min 0,000 mm 0,8 UV-I 69 W/m² 7,1 °C 15,6 °C 4,8 km/h (1 Bft)
06.11.2018 14:06 15,4 °C 58 % 1004,8 hPa 0,0 mm 2,8 km/h (1 Bft) O-SO 105 ° 0 min 0,000 mm 0,9 UV-I 74 W/m² 7,2 °C 15,4 °C 4,8 km/h (1 Bft)
06.11.2018 14:07 15,4 °C 56 % 1004,8 hPa 0,0 mm 0,7 km/h (0 Bft) O-SO 105 ° 0 min 0,000 mm 0,9 UV-I 72 W/m² 6,7 °C 15,4 °C 3,2 km/h (1 Bft)
06.11.2018 14:08 15,5 °C 54 % 1004,8 hPa 0,0 mm 0,9 km/h (0 Bft) O-SO 105 ° 0 min 0,000 mm 0,8 UV-I 69 W/m² 6,2 °C 15,5 °C 3,2 km/h (1 Bft)
06.11.2018 14:09 15,7 °C 53 % 1004,8 hPa 0,0 mm 0,3 km/h (0 Bft) O-SO 105 ° 0 min 0,000 mm 0,8 UV-I 69 W/m² 6,1 °C 15,7 °C 3,2 km/h (1 Bft)
06.11.2018 14:10 15,7 °C 57 % 1004,8 hPa 0,0 mm 2,2 km/h (1 Bft) O-SO 105 ° 0 min 0,000 mm 0,8 UV-I 67 W/m² 7,2 °C 15,7 °C 3,2 km/h (1 Bft)
06.11.2018 14:11 15,6 °C 56 % 1004,8 hPa 0,0 mm 3,1 km/h (1 Bft) O-SO 105 ° 0 min 0,000 mm 0,8 UV-I 67 W/m² 6,9 °C 15,6 °C 4,8 km/h (1 Bft)
06.11.2018 14:12 15,5 °C 55 % 1004,8 hPa 0,0 mm 2,0 km/h (1 Bft) O-SO 105 ° 0 min 0,000 mm 0,8 UV-I 65 W/m² 6,5 °C 15,5 °C 3,2 km/h (1 Bft)
06.11.2018 14:13 15,6 °C 55 % 1004,8 hPa 0,0 mm 1,1 km/h (1 Bft) O-SO 105 ° 0 min 0,000 mm 0,8 UV-I 65 W/m² 6,6 °C 15,6 °C 3,2 km/h (1 Bft)
06.11.2018 14:14 15,6 °C 55 % 1004,8 hPa 0,0 mm 0,8 km/h (0 Bft) O-SO 103 ° 0 min 0,000 mm 0,8 UV-I 65 W/m² 6,6 °C 15,6 °C 3,2 km/h (1 Bft)
06.11.2018 14:15 15,6 °C 55 % 1004,8 hPa 0,0 mm 2,5 km/h (1 Bft) O-SO 103 ° 0 min 0,000 mm 0,8 UV-I 65 W/m² 6,6 °C 15,6 °C 3,2 km/h (1 Bft)
06.11.2018 14:16 15,6 °C 57 % 1004,8 hPa 0,0 mm 1,4 km/h (1 Bft) O-SO 103 ° 0 min 0,000 mm 0,8 UV-I 65 W/m² 7,1 °C 15,6 °C 3,2 km/h (1 Bft)
06.11.2018 14:17 15,5 °C 57 % 1004,9 hPa 0,0 mm 2,3 km/h (1 Bft) O-SO 103 ° 0 min 0,000 mm 0,8 UV-I 65 W/m² 7,0 °C 15,5 °C 3,2 km/h (1 Bft)
06.11.2018 14:18 15,4 °C 56 % 1004,9 hPa 0,0 mm 1,0 km/h (0 Bft) O-SO 103 ° 0 min 0,000 mm 0,8 UV-I 65 W/m² 6,7 °C 15,4 °C 1,6 km/h (1 Bft)
06.11.2018 14:19 15,4 °C 56 % 1004,8 hPa 0,0 mm 1,1 km/h (1 Bft) O-SO 103 ° 0 min 0,000 mm 0,8 UV-I 67 W/m² 6,7 °C 15,4 °C 3,2 km/h (1 Bft)
06.11.2018 14:20 15,4 °C 56 % 1004,8 hPa 0,0 mm 1,0 km/h (0 Bft) O-SO 103 ° 0 min 0,000 mm 0,8 UV-I 67 W/m² 6,7 °C 15,4 °C 1,6 km/h (1 Bft)
06.11.2018 14:21 15,4 °C 57 % 1004,9 hPa 0,0 mm 0,3 km/h (0 Bft) O-SO 103 ° 0 min 0,000 mm 0,8 UV-I 67 W/m² 6,9 °C 15,4 °C 3,2 km/h (1 Bft)
06.11.2018 14:22 15,4 °C 55 % 1004,9 hPa 0,0 mm 0,6 km/h (0 Bft) O-SO 103 ° 0 min 0,000 mm 0,8 UV-I 67 W/m² 6,4 °C 15,4 °C 1,6 km/h (1 Bft)
06.11.2018 14:23 15,4 °C 55 % 1004,9 hPa 0,0 mm 1,2 km/h (1 Bft) O-SO 103 ° 0 min 0,000 mm 0,8 UV-I 69 W/m² 6,4 °C 15,4 °C 1,6 km/h (1 Bft)
06.11.2018 14:24 15,6 °C 55 % 1004,9 hPa 0,0 mm 0,8 km/h (0 Bft) O-SO 103 ° 0 min 0,000 mm 0,8 UV-I 70 W/m² 6,6 °C 15,6 °C 3,2 km/h (1 Bft)
06.11.2018 14:25 15,6 °C 56 % 1004,9 hPa 0,0 mm 2,1 km/h (1 Bft) O-SO 103 ° 0 min 0,000 mm 0,8 UV-I 70 W/m² 6,9 °C 15,6 °C 4,8 km/h (1 Bft)
06.11.2018 14:26 15,6 °C 54 % 1004,9 hPa 0,0 mm 1,5 km/h (1 Bft) O-SO 103 ° 0 min 0,000 mm 0,7 UV-I 70 W/m² 6,3 °C 15,6 °C 3,2 km/h (1 Bft)
06.11.2018 14:27 15,6 °C 55 % 1004,9 hPa 0,0 mm 0,7 km/h (0 Bft) O-SO 103 ° 0 min 0,000 mm 0,7 UV-I 70 W/m² 6,6 °C 15,6 °C 1,6 km/h (1 Bft)
06.11.2018 14:28 15,6 °C 56 % 1004,9 hPa 0,0 mm 0,0 km/h (0 Bft) O-SO 103 ° 0 min 0,000 mm 0,7 UV-I 70 W/m² 6,9 °C 15,6 °C 0,0 km/h (0 Bft)
06.11.2018 14:29 15,7 °C 55 % 1004,9 hPa 0,0 mm 0,0 km/h (0 Bft) O-SO 103 ° 0 min 0,000 mm 0,7 UV-I 72 W/m² 6,7 °C 15,7 °C 0,0 km/h (0 Bft)
06.11.2018 14:30 15,7 °C 55 % 1004,9 hPa 0,0 mm 0,0 km/h (0 Bft) O-SO 103 ° 0 min 0,000 mm 0,7 UV-I 72 W/m² 6,7 °C 15,7 °C 0,0 km/h (0 Bft)
06.11.2018 14:31 15,7 °C 56 % 1004,9 hPa 0,0 mm 0,0 km/h (0 Bft) O-SO 103 ° 0 min 0,000 mm 0,7 UV-I 72 W/m² 6,9 °C 15,7 °C 0,0 km/h (0 Bft)
06.11.2018 14:32 15,7 °C 55 % 1005,0 hPa 0,0 mm 0,0 km/h (0 Bft) O-SO 103 ° 0 min 0,000 mm 0,7 UV-I 72 W/m² 6,7 °C 15,7 °C 0,0 km/h (0 Bft)
06.11.2018 14:33 15,6 °C 55 % 1005,0 hPa 0,0 mm 0,0 km/h (0 Bft) O-SO 103 ° 0 min 0,000 mm 0,7 UV-I 72 W/m² 6,6 °C 15,6 °C 0,0 km/h (0 Bft)
06.11.2018 14:34 15,6 °C 54 % 1005,0 hPa 0,0 mm 0,0 km/h (0 Bft) O-SO 103 ° 0 min 0,000 mm 0,7 UV-I 74 W/m² 6,3 °C 15,6 °C 0,0 km/h (0 Bft)
06.11.2018 14:35 15,7 °C 55 % 1005,0 hPa 0,0 mm 0,0 km/h (0 Bft) O-SO 103 ° 0 min 0,000 mm 0,7 UV-I 74 W/m² 6,7 °C 15,7 °C 0,0 km/h (0 Bft)
06.11.2018 14:36 15,7 °C 56 % 1005,0 hPa 0,0 mm 0,0 km/h (0 Bft) O-SO 103 ° 0 min 0,000 mm 0,7 UV-I 74 W/m² 6,9 °C 15,7 °C 0,0 km/h (0 Bft)
06.11.2018 14:37 15,7 °C 55 % 1004,9 hPa 0,0 mm 0,0 km/h (0 Bft) O-SO 103 ° 0 min 0,000 mm 0,7 UV-I 74 W/m² 6,7 °C 15,7 °C 0,0 km/h (0 Bft)
06.11.2018 14:38 15,7 °C 55 % 1004,9 hPa 0,0 mm 0,0 km/h (0 Bft) O-SO 103 ° 0 min 0,000 mm 0,7 UV-I 74 W/m² 6,7 °C 15,7 °C 0,0 km/h (0 Bft)
06.11.2018 14:39 15,7 °C 57 % 1004,9 hPa 0,0 mm 0,0 km/h (0 Bft) O-SO 103 ° 0 min 0,000 mm 0,7 UV-I 74 W/m² 7,2 °C 15,7 °C 0,0 km/h (0 Bft)
06.11.2018 14:40 15,7 °C 56 % 1005,0 hPa 0,0 mm 0,0 km/h (0 Bft) O-SO 103 ° 0 min 0,000 mm 0,7 UV-I 72 W/m² 6,9 °C 15,7 °C 0,0 km/h (0 Bft)
06.11.2018 14:41 15,6 °C 58 % 1005,0 hPa 0,0 mm 0,0 km/h (0 Bft) O-SO 103 ° 0 min 0,000 mm 0,7 UV-I 69 W/m² 7,4 °C 15,6 °C 0,0 km/h (0 Bft)
06.11.2018 14:42 15,4 °C 59 % 1004,9 hPa 0,0 mm 0,0 km/h (0 Bft) O-SO 103 ° 0 min 0,000 mm 0,7 UV-I 69 W/m² 7,4 °C 15,4 °C 0,0 km/h (0 Bft)
06.11.2018 14:43 15,2 °C 60 % 1004,9 hPa 0,0 mm 0,0 km/h (0 Bft) O-SO 103 ° 0 min 0,000 mm 0,7 UV-I 67 W/m² 7,5 °C 15,2 °C 0,0 km/h (0 Bft)
06.11.2018 14:44 15,2 °C 60 % 1004,9 hPa 0,0 mm 0,0 km/h (0 Bft) O-SO 103 ° 0 min 0,000 mm 0,7 UV-I 65 W/m² 7,5 °C 15,2 °C 0,0 km/h (0 Bft)
06.11.2018 14:45 15,2 °C 58 % 1004,9 hPa 0,0 mm 1,0 km/h (0 Bft) O-SO 103 ° 0 min 0,000 mm 0,6 UV-I 65 W/m² 7,0 °C 15,2 °C 3,2 km/h (1 Bft)
06.11.2018 14:46 15,3 °C 57 % 1004,9 hPa 0,0 mm 0,1 km/h (0 Bft) O-SO 103 ° 0 min 0,000 mm 0,6 UV-I 63 W/m² 6,8 °C 15,3 °C 1,6 km/h (1 Bft)
06.11.2018 14:47 15,3 °C 58 % 1005,0 hPa 0,0 mm 0,0 km/h (0 Bft) O-SO 103 ° 0 min 0,000 mm 0,6 UV-I 62 W/m² 7,1 °C 15,3 °C 0,0 km/h (0 Bft)
06.11.2018 14:48 15,4 °C 58 % 1005,0 hPa 0,0 mm 1,0 km/h (0 Bft) O-SO 103 ° 0 min 0,000 mm 0,6 UV-I 62 W/m² 7,2 °C 15,4 °C 3,2 km/h (1 Bft)
06.11.2018 14:49 15,4 °C 56 % 1005,0 hPa 0,0 mm 1,3 km/h (1 Bft) O-SO 103 ° 0 min 0,000 mm 0,6 UV-I 60 W/m² 6,7 °C 15,4 °C 3,2 km/h (1 Bft)
06.11.2018 14:50 15,5 °C 56 % 1005,0 hPa 0,0 mm 0,6 km/h (0 Bft) O-SO 103 ° 0 min 0,000 mm 0,6 UV-I 60 W/m² 6,8 °C 15,5 °C 3,2 km/h (1 Bft)
06.11.2018 14:51 15,6 °C 55 % 1005,0 hPa 0,0 mm 0,0 km/h (0 Bft) O-SO 103 ° 0 min 0,000 mm 0,6 UV-I 60 W/m² 6,6 °C 15,6 °C 0,0 km/h (0 Bft)
06.11.2018 14:52 15,7 °C 55 % 1005,0 hPa 0,0 mm 0,0 km/h (0 Bft) O-SO 103 ° 0 min 0,000 mm 0,6 UV-I 58 W/m² 6,7 °C 15,7 °C 0,0 km/h (0 Bft)
06.11.2018 14:53 15,7 °C 56 % 1005,0 hPa 0,0 mm 0,0 km/h (0 Bft) O-SO 103 ° 0 min 0,000 mm 0,6 UV-I 58 W/m² 6,9 °C 15,7 °C 0,0 km/h (0 Bft)
06.11.2018 14:54 15,7 °C 57 % 1005,0 hPa 0,0 mm 0,0 km/h (0 Bft) O-SO 103 ° 0 min 0,000 mm 0,6 UV-I 56 W/m² 7,2 °C 15,7 °C 0,0 km/h (0 Bft)
06.11.2018 14:55 15,6 °C 56 % 1005,0 hPa 0,0 mm 0,0 km/h (0 Bft) O-SO 103 ° 0 min 0,000 mm 0,6 UV-I 56 W/m² 6,9 °C 15,6 °C 0,0 km/h (0 Bft)
06.11.2018 14:56 15,6 °C 56 % 1005,0 hPa 0,0 mm 0,3 km/h (0 Bft) O-SO 103 ° 0 min 0,000 mm 0,6 UV-I 56 W/m² 6,9 °C 15,6 °C 1,6 km/h (1 Bft)
06.11.2018 14:57 15,6 °C 55 % 1005,0 hPa 0,0 mm 0,0 km/h (0 Bft) O-SO 103 ° 0 min 0,000 mm 0,6 UV-I 56 W/m² 6,6 °C 15,6 °C 0,0 km/h (0 Bft)
06.11.2018 14:58 15,6 °C 56 % 1005,0 hPa 0,0 mm 0,0 km/h (0 Bft) O-SO 103 ° 0 min 0,000 mm 0,0 UV-I 54 W/m² 6,9 °C 15,6 °C 0,0 km/h (0 Bft)
06.11.2018 14:59 15,6 °C 56 % 1005,0 hPa 0,0 mm 0,0 km/h (0 Bft) O-SO 103 ° 0 min 0,000 mm 0,0 UV-I 54 W/m² 6,9 °C 15,6 °C 0,0 km/h (0 Bft)
06.11.2018 15:00 15,6 °C 56 % 1005,0 hPa 0,0 mm 0,0 km/h (0 Bft) O-SO 103 ° 0 min 0,051 mm 0,0 UV-I 53 W/m² 6,9 °C 15,6 °C 0,0 km/h (0 Bft)
06.11.2018 15:01 15,5 °C 56 % 1005,0 hPa 0,0 mm 0,0 km/h (0 Bft) O-SO 103 ° 0 min 0,000 mm 0,0 UV-I 53 W/m² 6,8 °C 15,5 °C 0,0 km/h (0 Bft)
06.11.2018 15:02 15,6 °C 57 % 1005,0 hPa 0,0 mm 0,0 km/h (0 Bft) O-SO 103 ° 0 min 0,000 mm 0,0 UV-I 53 W/m² 7,1 °C 15,6 °C 0,0 km/h (0 Bft)
06.11.2018 15:03 15,5 °C 57 % 1005,0 hPa 0,0 mm 0,1 km/h (0 Bft) O-SO 103 ° 0 min 0,000 mm 0,0 UV-I 53 W/m² 7,0 °C 15,5 °C 1,6 km/h (1 Bft)
06.11.2018 15:04 15,4 °C 57 % 1005,0 hPa 0,0 mm 1,1 km/h (1 Bft) O-SO 103 ° 0 min 0,000 mm 0,0 UV-I 53 W/m² 6,9 °C 15,4 °C 1,6 km/h (1 Bft)
06.11.2018 15:05 15,4 °C 57 % 1005,0 hPa 0,0 mm 0,7 km/h (0 Bft) O-SO 103 ° 0 min 0,000 mm 0,0 UV-I 51 W/m² 6,9 °C 15,4 °C 1,6 km/h (1 Bft)
06.11.2018 15:06 15,4 °C 57 % 1005,0 hPa 0,0 mm 0,7 km/h (0 Bft) O-SO 103 ° 0 min 0,000 mm 0,0 UV-I 51 W/m² 6,9 °C 15,4 °C 1,6 km/h (1 Bft)
06.11.2018 15:07 15,3 °C 57 % 1005,1 hPa 0,0 mm 0,0 km/h (0 Bft) O-SO 103 ° 0 min 0,000 mm 0,0 UV-I 51 W/m² 6,8 °C 15,3 °C 0,0 km/h (0 Bft)
06.11.2018 15:08 15,2 °C 60 % 1005,1 hPa 0,0 mm 1,7 km/h (1 Bft) O-SO 103 ° 0 min 0,000 mm 0,0 UV-I 49 W/m² 7,5 °C 15,2 °C 3,2 km/h (1 Bft)
06.11.2018 15:09 15,0 °C 62 % 1005,0 hPa 0,0 mm 3,3 km/h (1 Bft) O-SO 103 ° 0 min 0,000 mm 0,0 UV-I 49 W/m² 7,8 °C 15,0 °C 4,8 km/h (1 Bft)
06.11.2018 15:10 14,7 °C 64 % 1005,0 hPa 0,0 mm 4,2 km/h (1 Bft) SO 137 ° 0 min 0,000 mm 0,0 UV-I 49 W/m² 8,0 °C 14,7 °C 4,8 km/h (1 Bft)
06.11.2018 15:11 14,4 °C 65 % 1005,0 hPa 0,0 mm 4,3 km/h (1 Bft) SO 141 ° 0 min 0,000 mm 0,0 UV-I 47 W/m² 7,9 °C 14,4 °C 4,8 km/h (1 Bft)
06.11.2018 15:12 14,3 °C 65 % 1005,0 hPa 0,0 mm 3,8 km/h (1 Bft) SO 141 ° 0 min 0,000 mm 0,0 UV-I 47 W/m² 7,8 °C 14,3 °C 4,8 km/h (1 Bft)
06.11.2018 15:13 14,1 °C 66 % 1005,0 hPa 0,0 mm 3,1 km/h (1 Bft) S 184 ° 0 min 0,000 mm 0,0 UV-I 47 W/m² 7,8 °C 14,1 °C 4,8 km/h (1 Bft)
06.11.2018 15:14 14,1 °C 66 % 1005,1 hPa 0,0 mm 5,3 km/h (1 Bft) S-SW 193 ° 0 min 0,000 mm 0,0 UV-I 47 W/m² 7,8 °C 14,1 °C 6,4 km/h (2 Bft)
06.11.2018 15:15 13,9 °C 67 % 1005,1 hPa 0,0 mm 4,4 km/h (1 Bft) S-SW 193 ° 0 min 0,000 mm 0,0 UV-I 46 W/m² 7,9 °C 13,9 °C 6,4 km/h (2 Bft)
06.11.2018 15:16 13,9 °C 66 % 1005,0 hPa 0,0 mm 4,1 km/h (1 Bft) S-SW 193 ° 0 min 0,000 mm 0,0 UV-I 46 W/m² 7,7 °C 13,9 °C 4,8 km/h (1 Bft)
06.11.2018 15:17 13,9 °C 65 % 1005,0 hPa 0,0 mm 2,1 km/h (1 Bft) S-SW 193 ° 0 min 0,000 mm 0,0 UV-I 46 W/m² 7,4 °C 13,9 °C 4,8 km/h (1 Bft)
06.11.2018 15:18 14,0 °C 65 % 1005,0 hPa 0,0 mm 2,1 km/h (1 Bft) S-SW 193 ° 0 min 0,000 mm 0,0 UV-I 46 W/m² 7,5 °C 14,0 °C 3,2 km/h (1 Bft)
06.11.2018 15:19 14,1 °C 65 % 1005,1 hPa 0,0 mm 2,1 km/h (1 Bft) S-SW 193 ° 0 min 0,000 mm 0,0 UV-I 46 W/m² 7,6 °C 14,1 °C 3,2 km/h (1 Bft)
06.11.2018 15:20 14,1 °C 63 % 1005,1 hPa 0,0 mm 2,6 km/h (1 Bft) S-SW 193 ° 0 min 0,000 mm 0,0 UV-I 46 W/m² 7,2 °C 14,1 °C 3,2 km/h (1 Bft)
06.11.2018 15:21 14,2 °C 63 % 1005,1 hPa 0,0 mm 1,9 km/h (1 Bft) S-SW 193 ° 0 min 0,000 mm 0,0 UV-I 46 W/m² 7,3 °C 14,2 °C 3,2 km/h (1 Bft)
06.11.2018 15:22 14,2 °C 62 % 1005,1 hPa 0,0 mm 2,1 km/h (1 Bft) S-SW 193 ° 0 min 0,000 mm 0,0 UV-I 44 W/m² 7,0 °C 14,2 °C 3,2 km/h (1 Bft)
06.11.2018 15:23 14,3 °C 62 % 1005,1 hPa 0,0 mm 1,9 km/h (1 Bft) S-SW 193 ° 0 min 0,000 mm 0,0 UV-I 44 W/m² 7,1 °C 14,3 °C 3,2 km/h (1 Bft)
06.11.2018 15:24 14,4 °C 62 % 1005,1 hPa 0,0 mm 1,8 km/h (1 Bft) S-SW 192 ° 0 min 0,000 mm 0,0 UV-I 42 W/m² 7,2 °C 14,4 °C 3,2 km/h (1 Bft)
06.11.2018 15:25 14,4 °C 63 % 1005,1 hPa 0,0 mm 1,8 km/h (1 Bft) S-SW 192 ° 0 min 0,000 mm 0,0 UV-I 42 W/m² 7,4 °C 14,4 °C 3,2 km/h (1 Bft)
06.11.2018 15:26 14,4 °C 64 % 1005,1 hPa 0,0 mm 2,7 km/h (1 Bft) S-SW 192 ° 0 min 0,000 mm 0,0 UV-I 42 W/m² 7,7 °C 14,4 °C 3,2 km/h (1 Bft)
06.11.2018 15:27 14,4 °C 63 % 1005,1 hPa 0,0 mm 2,1 km/h (1 Bft) S-SW 192 ° 0 min 0,000 mm 0,0 UV-I 40 W/m² 7,4 °C 14,4 °C 3,2 km/h (1 Bft)
06.11.2018 15:28 14,4 °C 61 % 1005,0 hPa 0,0 mm 2,4 km/h (1 Bft) S-SW 192 ° 0 min 0,000 mm 0,0 UV-I 40 W/m² 7,0 °C 14,4 °C 3,2 km/h (1 Bft)
06.11.2018 15:29 14,4 °C 61 % 1005,1 hPa 0,0 mm 2,0 km/h (1 Bft) S-SW 192 ° 0 min 0,000 mm 0,0 UV-I 40 W/m² 7,0 °C 14,4 °C 3,2 km/h (1 Bft)
06.11.2018 15:30 14,3 °C 62 % 1005,0 hPa 0,0 mm 1,7 km/h (1 Bft) S-SW 192 ° 0 min 0,000 mm 0,0 UV-I 40 W/m² 7,1 °C 14,3 °C 3,2 km/h (1 Bft)
06.11.2018 15:31 14,3 °C 61 % 1005,0 hPa 0,0 mm 2,3 km/h (1 Bft) S-SW 192 ° 0 min 0,000 mm 0,0 UV-I 40 W/m² 6,9 °C 14,3 °C 3,2 km/h (1 Bft)
06.11.2018 15:32 14,3 °C 62 % 1005,0 hPa 0,0 mm 1,6 km/h (1 Bft) S-SW 192 ° 0 min 0,000 mm 0,0 UV-I 40 W/m² 7,1 °C 14,3 °C 3,2 km/h (1 Bft)
06.11.2018 15:33 14,3 °C 61 % 1005,0 hPa 0,0 mm 1,9 km/h (1 Bft) S-SW 192 ° 0 min 0,000 mm 0,0 UV-I 40 W/m² 6,9 °C 14,3 °C 3,2 km/h (1 Bft)
06.11.2018 15:34 14,3 °C 62 % 1005,1 hPa 0,0 mm 0,8 km/h (0 Bft) S-SW 192 ° 0 min 0,000 mm 0,0 UV-I 40 W/m² 7,1 °C 14,3 °C 3,2 km/h (1 Bft)
06.11.2018 15:35 14,2 °C 61 % 1005,1 hPa 0,0 mm 2,0 km/h (1 Bft) S-SW 192 ° 0 min 0,000 mm 0,0 UV-I 40 W/m² 6,8 °C 14,2 °C 3,2 km/h (1 Bft)
06.11.2018 15:36 14,2 °C 61 % 1005,1 hPa 0,0 mm 2,1 km/h (1 Bft) S 186 ° 0 min 0,000 mm 0,0 UV-I 40 W/m² 6,8 °C 14,2 °C 3,2 km/h (1 Bft)
06.11.2018 15:37 14,3 °C 60 % 1005,1 hPa 0,0 mm 2,0 km/h (1 Bft) S 186 ° 0 min 0,000 mm 0,0 UV-I 40 W/m² 6,6 °C 14,3 °C 3,2 km/h (1 Bft)
06.11.2018 15:38 14,3 °C 61 % 1005,1 hPa 0,0 mm 0,3 km/h (0 Bft) S 186 ° 0 min 0,000 mm 0,0 UV-I 40 W/m² 6,9 °C 14,3 °C 1,6 km/h (1 Bft)
06.11.2018 15:39 14,3 °C 60 % 1005,0 hPa 0,0 mm 1,2 km/h (1 Bft) S 186 ° 0 min 0,000 mm 0,0 UV-I 39 W/m² 6,6 °C 14,3 °C 3,2 km/h (1 Bft)
06.11.2018 15:40 14,4 °C 60 % 1005,0 hPa 0,0 mm 0,6 km/h (0 Bft) S 186 ° 0 min 0,000 mm 0,0 UV-I 39 W/m² 6,7 °C 14,4 °C 1,6 km/h (1 Bft)
06.11.2018 15:41 14,4 °C 60 % 1005,0 hPa 0,0 mm 0,6 km/h (0 Bft) S 186 ° 0 min 0,000 mm 0,0 UV-I 39 W/m² 6,7 °C 14,4 °C 1,6 km/h (1 Bft)
06.11.2018 15:42 14,5 °C 60 % 1005,1 hPa 0,0 mm 0,0 km/h (0 Bft) S 186 ° 0 min 0,000 mm 0,0 UV-I 37 W/m² 6,8 °C 14,5 °C 0,0 km/h (0 Bft)
06.11.2018 15:43 14,5 °C 60 % 1005,1 hPa 0,0 mm 0,0 km/h (0 Bft) S 186 ° 0 min 0,000 mm 0,0 UV-I 37 W/m² 6,8 °C 14,5 °C 0,0 km/h (0 Bft)
06.11.2018 15:44 14,4 °C 60 % 1005,1 hPa 0,0 mm 0,0 km/h (0 Bft) S 186 ° 0 min 0,000 mm 0,0 UV-I 37 W/m² 6,7 °C 14,4 °C 0,0 km/h (0 Bft)
06.11.2018 15:45 14,5 °C 60 % 1005,1 hPa 0,0 mm 0,0 km/h (0 Bft) S 186 ° 0 min 0,000 mm 0,0 UV-I 37 W/m² 6,8 °C 14,5 °C 0,0 km/h (0 Bft)
06.11.2018 15:46 14,4 °C 60 % 1005,1 hPa 0,0 mm 1,6 km/h (1 Bft) S 186 ° 0 min 0,000 mm 0,0 UV-I 35 W/m² 6,7 °C 14,4 °C 3,2 km/h (1 Bft)
06.11.2018 15:47 14,4 °C 60 % 1005,1 hPa 0,0 mm 2,0 km/h (1 Bft) S 186 ° 0 min 0,000 mm 0,0 UV-I 35 W/m² 6,7 °C 14,4 °C 3,2 km/h (1 Bft)
06.11.2018 15:48 14,4 °C 61 % 1005,1 hPa 0,0 mm 0,1 km/h (0 Bft) S 186 ° 0 min 0,000 mm 0,0 UV-I 35 W/m² 7,0 °C 14,4 °C 1,6 km/h (1 Bft)
06.11.2018 15:49 14,4 °C 61 % 1005,1 hPa 0,0 mm 1,7 km/h (1 Bft) S 186 ° 0 min 0,000 mm 0,0 UV-I 33 W/m² 7,0 °C 14,4 °C 3,2 km/h (1 Bft)
06.11.2018 15:50 14,3 °C 61 % 1005,1 hPa 0,0 mm 1,6 km/h (1 Bft) S 186 ° 0 min 0,000 mm 0,0 UV-I 33 W/m² 6,9 °C 14,3 °C 3,2 km/h (1 Bft)
06.11.2018 15:51 14,3 °C 61 % 1005,1 hPa 0,0 mm 1,2 km/h (1 Bft) S 186 ° 0 min 0,000 mm 0,0 UV-I 33 W/m² 6,9 °C 14,3 °C 1,6 km/h (1 Bft)
06.11.2018 15:52 14,3 °C 61 % 1005,1 hPa 0,0 mm 2,3 km/h (1 Bft) S 186 ° 0 min 0,000 mm 0,0 UV-I 32 W/m² 6,9 °C 14,3 °C 3,2 km/h (1 Bft)
06.11.2018 15:53 14,3 °C 61 % 1005,1 hPa 0,0 mm 2,0 km/h (1 Bft) S 186 ° 0 min 0,000 mm 0,0 UV-I 32 W/m² 6,9 °C 14,3 °C 3,2 km/h (1 Bft)
06.11.2018 15:54 14,3 °C 61 % 1005,1 hPa 0,0 mm 1,3 km/h (1 Bft) S 186 ° 0 min 0,000 mm 0,0 UV-I 32 W/m² 6,9 °C 14,3 °C 3,2 km/h (1 Bft)
06.11.2018 15:55 14,3 °C 61 % 1005,1 hPa 0,0 mm 2,1 km/h (1 Bft) S 186 ° 0 min 0,000 mm 0,0 UV-I 32 W/m² 6,9 °C 14,3 °C 3,2 km/h (1 Bft)
06.11.2018 15:56 14,2 °C 60 % 1005,1 hPa 0,0 mm 1,5 km/h (1 Bft) S 186 ° 0 min 0,000 mm 0,0 UV-I 32 W/m² 6,5 °C 14,2 °C 3,2 km/h (1 Bft)
06.11.2018 15:57 14,3 °C 61 % 1005,1 hPa 0,0 mm 1,0 km/h (0 Bft) S 186 ° 0 min 0,000 mm 0,0 UV-I 30 W/m² 6,9 °C 14,3 °C 1,6 km/h (1 Bft)
06.11.2018 15:58 14,3 °C 61 % 1005,1 hPa 0,0 mm 1,3 km/h (1 Bft) S 186 ° 0 min 0,000 mm 0,0 UV-I 30 W/m² 6,9 °C 14,3 °C 3,2 km/h (1 Bft)
06.11.2018 15:59 14,2 °C 62 % 1005,1 hPa 0,0 mm 1,7 km/h (1 Bft) S 186 ° 0 min 0,000 mm 0,0 UV-I 30 W/m² 7,0 °C 14,2 °C 3,2 km/h (1 Bft)
06.11.2018 16:00 14,2 °C 61 % 1005,1 hPa 0,0 mm 0,8 km/h (0 Bft) S 186 ° 0 min 0,000 mm 0,0 UV-I 30 W/m² 6,8 °C 14,2 °C 3,2 km/h (1 Bft)
06.11.2018 16:01 14,1 °C 61 % 1005,1 hPa 0,0 mm 2,3 km/h (1 Bft) S 186 ° 0 min 0,025 mm 0,0 UV-I 28 W/m² 6,7 °C 14,1 °C 4,8 km/h (1 Bft)
06.11.2018 16:02 14,1 °C 62 % 1005,0 hPa 0,0 mm 1,5 km/h (1 Bft) S 186 ° 0 min 0,000 mm 0,0 UV-I 28 W/m² 6,9 °C 14,1 °C 3,2 km/h (1 Bft)
06.11.2018 16:03 13,8 °C 63 % 1005,1 hPa 0,0 mm 2,0 km/h (1 Bft) S 186 ° 0 min 0,000 mm 0,0 UV-I 28 W/m² 6,9 °C 13,8 °C 3,2 km/h (1 Bft)
06.11.2018 16:04 13,6 °C 65 % 1005,1 hPa 0,0 mm 3,8 km/h (1 Bft) S 186 ° 0 min 0,000 mm 0,0 UV-I 28 W/m² 7,1 °C 13,6 °C 4,8 km/h (1 Bft)
06.11.2018 16:05 13,3 °C 66 % 1005,1 hPa 0,0 mm 3,9 km/h (1 Bft) S 186 ° 0 min 0,000 mm 0,0 UV-I 26 W/m² 7,1 °C 13,3 °C 4,8 km/h (1 Bft)
06.11.2018 16:06 13,2 °C 65 % 1005,1 hPa 0,0 mm 4,6 km/h (1 Bft) S 186 ° 0 min 0,000 mm 0,0 UV-I 26 W/m² 6,8 °C 13,2 °C 6,4 km/h (2 Bft)
06.11.2018 16:07 13,2 °C 65 % 1005,1 hPa 0,0 mm 3,3 km/h (1 Bft) S 186 ° 0 min 0,000 mm 0,0 UV-I 26 W/m² 6,8 °C 13,2 °C 4,8 km/h (1 Bft)
06.11.2018 16:08 13,3 °C 65 % 1005,1 hPa 0,0 mm 0,5 km/h (0 Bft) S 186 ° 0 min 0,000 mm 0,0 UV-I 26 W/m² 6,9 °C 13,3 °C 1,6 km/h (1 Bft)
06.11.2018 16:09 13,3 °C 64 % 1005,1 hPa 0,0 mm 0,6 km/h (0 Bft) S 186 ° 0 min 0,000 mm 0,0 UV-I 25 W/m² 6,6 °C 13,3 °C 1,6 km/h (1 Bft)
06.11.2018 16:10 13,4 °C 64 % 1005,1 hPa 0,0 mm 0,9 km/h (0 Bft) S 186 ° 0 min 0,000 mm 0,0 UV-I 25 W/m² 6,7 °C 13,4 °C 1,6 km/h (1 Bft)
06.11.2018 16:11 13,4 °C 64 % 1005,1 hPa 0,0 mm 0,6 km/h (0 Bft) S 186 ° 0 min 0,000 mm 0,0 UV-I 25 W/m² 6,7 °C 13,4 °C 1,6 km/h (1 Bft)
06.11.2018 16:12 13,5 °C 64 % 1005,1 hPa 0,0 mm 0,6 km/h (0 Bft) S 186 ° 0 min 0,000 mm 0,0 UV-I 25 W/m² 6,8 °C 13,5 °C 1,6 km/h (1 Bft)
06.11.2018 16:13 13,6 °C 64 % 1005,1 hPa 0,0 mm 0,7 km/h (0 Bft) S 186 ° 0 min 0,000 mm 0,0 UV-I 23 W/m² 6,9 °C 13,6 °C 1,6 km/h (1 Bft)
06.11.2018 16:14 13,6 °C 65 % 1005,1 hPa 0,0 mm 1,3 km/h (1 Bft) S 186 ° 0 min 0,000 mm 0,0 UV-I 23 W/m² 7,1 °C 13,6 °C 1,6 km/h (1 Bft)
06.11.2018 16:15 13,6 °C 63 % 1005,1 hPa 0,0 mm 0,5 km/h (0 Bft) S 186 ° 0 min 0,000 mm 0,0 UV-I 21 W/m² 6,7 °C 13,6 °C 1,6 km/h (1 Bft)
06.11.2018 16:16 13,7 °C 63 % 1005,1 hPa 0,0 mm 0,7 km/h (0 Bft) S 186 ° 0 min 0,000 mm 0,0 UV-I 21 W/m² 6,8 °C 13,7 °C 1,6 km/h (1 Bft)
06.11.2018 16:17 13,6 °C 63 % 1005,1 hPa 0,0 mm 0,3 km/h (0 Bft) S 186 ° 0 min 0,000 mm 0,0 UV-I 21 W/m² 6,7 °C 13,6 °C 1,6 km/h (1 Bft)
06.11.2018 16:18 13,6 °C 64 % 1005,1 hPa 0,0 mm 2,0 km/h (1 Bft) S 186 ° 0 min 0,000 mm 0,0 UV-I 19 W/m² 6,9 °C 13,6 °C 3,2 km/h (1 Bft)
06.11.2018 16:19 13,7 °C 63 % 1005,1 hPa 0,0 mm 2,1 km/h (1 Bft) S 186 ° 0 min 0,000 mm 0,0 UV-I 19 W/m² 6,8 °C 13,7 °C 4,8 km/h (1 Bft)
06.11.2018 16:20 13,5 °C 64 % 1005,1 hPa 0,0 mm 3,2 km/h (1 Bft) S 186 ° 0 min 0,000 mm 0,0 UV-I 19 W/m² 6,8 °C 13,5 °C 4,8 km/h (1 Bft)
06.11.2018 16:21 13,4 °C 64 % 1005,1 hPa 0,0 mm 4,1 km/h (1 Bft) S 186 ° 0 min 0,000 mm 0,0 UV-I 18 W/m² 6,7 °C 13,4 °C 6,4 km/h (2 Bft)
06.11.2018 16:22 13,3 °C 65 % 1005,1 hPa 0,0 mm 4,4 km/h (1 Bft) S 186 ° 0 min 0,000 mm 0,0 UV-I 18 W/m² 6,9 °C 13,3 °C 6,4 km/h (2 Bft)
06.11.2018 16:23 13,3 °C 65 % 1005,2 hPa 0,0 mm 5,8 km/h (2 Bft) S 186 ° 0 min 0,000 mm 0,0 UV-I 16 W/m² 6,9 °C 13,3 °C 6,4 km/h (2 Bft)
06.11.2018 16:24 13,2 °C 65 % 1005,2 hPa 0,0 mm 4,3 km/h (1 Bft) S 186 ° 0 min 0,000 mm 0,0 UV-I 16 W/m² 6,8 °C 13,2 °C 6,4 km/h (2 Bft)
06.11.2018 16:25 13,2 °C 67 % 1005,3 hPa 0,0 mm 3,8 km/h (1 Bft) S 186 ° 0 min 0,000 mm 0,0 UV-I 14 W/m² 7,2 °C 13,2 °C 4,8 km/h (1 Bft)
06.11.2018 16:26 12,9 °C 68 % 1005,2 hPa 0,0 mm 2,0 km/h (1 Bft) S 186 ° 0 min 0,000 mm 0,0 UV-I 14 W/m² 7,1 °C 12,9 °C 4,8 km/h (1 Bft)
06.11.2018 16:27 12,8 °C 67 % 1005,3 hPa 0,0 mm 3,0 km/h (1 Bft) S 186 ° 0 min 0,000 mm 0,0 UV-I 12 W/m² 6,8 °C 12,8 °C 3,2 km/h (1 Bft)
06.11.2018 16:28 12,6 °C 68 % 1005,3 hPa 0,0 mm 2,0 km/h (1 Bft) S 186 ° 0 min 0,000 mm 0,0 UV-I 12 W/m² 6,9 °C 12,6 °C 3,2 km/h (1 Bft)
06.11.2018 16:29 12,6 °C 67 % 1005,3 hPa 0,0 mm 0,5 km/h (0 Bft) S 186 ° 0 min 0,000 mm 0,0 UV-I 12 W/m² 6,6 °C 12,6 °C 1,6 km/h (1 Bft)
06.11.2018 16:30 12,6 °C 68 % 1005,4 hPa 0,0 mm 3,5 km/h (1 Bft) S 186 ° 0 min 0,000 mm 0,0 UV-I 11 W/m² 6,9 °C 12,6 °C 6,4 km/h (2 Bft)
06.11.2018 16:31 12,5 °C 68 % 1005,3 hPa 0,0 mm 1,0 km/h (0 Bft) S 186 ° 0 min 0,000 mm 0,0 UV-I 11 W/m² 6,8 °C 12,5 °C 3,2 km/h (1 Bft)
06.11.2018 16:32 12,4 °C 68 % 1005,3 hPa 0,0 mm 1,1 km/h (1 Bft) S 186 ° 0 min 0,000 mm 0,0 UV-I 11 W/m² 6,7 °C 12,4 °C 3,2 km/h (1 Bft)
06.11.2018 16:33 12,5 °C 68 % 1005,4 hPa 0,0 mm 0,7 km/h (0 Bft) S 186 ° 0 min 0,000 mm 0,0 UV-I 9 W/m² 6,8 °C 12,5 °C 3,2 km/h (1 Bft)
06.11.2018 16:34 12,6 °C 67 % 1005,4 hPa 0,0 mm 3,0 km/h (1 Bft) S 186 ° 0 min 0,000 mm 0,0 UV-I 9 W/m² 6,6 °C 12,6 °C 4,8 km/h (1 Bft)
06.11.2018 16:35 12,6 °C 67 % 1005,4 hPa 0,0 mm 1,4 km/h (1 Bft) S 186 ° 0 min 0,000 mm 0,0 UV-I 9 W/m² 6,6 °C 12,6 °C 3,2 km/h (1 Bft)
06.11.2018 16:36 12,6 °C 67 % 1005,4 hPa 0,0 mm 0,5 km/h (0 Bft) S 186 ° 0 min 0,000 mm 0,0 UV-I 7 W/m² 6,6 °C 12,6 °C 1,6 km/h (1 Bft)
06.11.2018 16:37 12,7 °C 66 % 1005,4 hPa 0,0 mm 1,3 km/h (1 Bft) S 186 ° 0 min 0,000 mm 0,0 UV-I 7 W/m² 6,5 °C 12,7 °C 3,2 km/h (1 Bft)
06.11.2018 16:38 12,8 °C 66 % 1005,4 hPa 0,0 mm 0,3 km/h (0 Bft) S 186 ° 0 min 0,000 mm 0,0 UV-I 7 W/m² 6,6 °C 12,8 °C 1,6 km/h (1 Bft)
06.11.2018 16:39 12,8 °C 66 % 1005,4 hPa 0,0 mm 0,0 km/h (0 Bft) S 186 ° 0 min 0,000 mm 0,0 UV-I 7 W/m² 6,6 °C 12,8 °C 0,0 km/h (0 Bft)
06.11.2018 16:40 12,9 °C 66 % 1005,3 hPa 0,0 mm 0,0 km/h (0 Bft) S 186 ° 0 min 0,000 mm 0,0 UV-I 5 W/m² 6,7 °C 12,9 °C 0,0 km/h (0 Bft)
06.11.2018 16:41 13,1 °C 65 % 1005,3 hPa 0,0 mm 0,0 km/h (0 Bft) S 186 ° 0 min 0,000 mm 0,0 UV-I 5 W/m² 6,7 °C 13,1 °C 0,0 km/h (0 Bft)
06.11.2018 16:42 13,2 °C 65 % 1005,3 hPa 0,0 mm 0,0 km/h (0 Bft) S 186 ° 0 min 0,000 mm 0,0 UV-I 5 W/m² 6,8 °C 13,2 °C 0,0 km/h (0 Bft)
06.11.2018 16:43 13,2 °C 64 % 1005,3 hPa 0,0 mm 0,0 km/h (0 Bft) S 186 ° 0 min 0,000 mm 0,0 UV-I 5 W/m² 6,5 °C 13,2 °C 0,0 km/h (0 Bft)
06.11.2018 16:44 13,3 °C 64 % 1005,3 hPa 0,0 mm 0,0 km/h (0 Bft) S 186 ° 0 min 0,000 mm 0,0 UV-I 0 W/m² 6,6 °C 13,3 °C 0,0 km/h (0 Bft)
06.11.2018 16:45 13,3 °C 64 % 1005,3 hPa 0,0 mm 0,0 km/h (0 Bft) S 186 ° 0 min 0,000 mm 0,0 UV-I 0 W/m² 6,6 °C 13,3 °C 0,0 km/h (0 Bft)
06.11.2018 16:46 13,3 °C 64 % 1005,2 hPa 0,0 mm 3,4 km/h (1 Bft) S 186 ° 0 min 0,000 mm 0,0 UV-I 0 W/m² 6,6 °C 13,3 °C 4,8 km/h (1 Bft)
06.11.2018 16:47 13,3 °C 64 % 1005,2 hPa 0,0 mm 3,8 km/h (1 Bft) S 186 ° 0 min 0,000 mm 0,0 UV-I 0 W/m² 6,6 °C 13,3 °C 4,8 km/h (1 Bft)
06.11.2018 16:48 13,2 °C 65 % 1005,2 hPa 0,0 mm 4,8 km/h (1 Bft) S 186 ° 0 min 0,000 mm 0,0 UV-I 0 W/m² 6,8 °C 13,2 °C 6,4 km/h (2 Bft)
06.11.2018 16:49 13,1 °C 66 % 1005,2 hPa 0,0 mm 5,7 km/h (1 Bft) S 186 ° 0 min 0,000 mm 0,0 UV-I 0 W/m² 6,9 °C 13,1 °C 6,4 km/h (2 Bft)
06.11.2018 16:50 12,8 °C 67 % 1005,3 hPa 0,0 mm 5,6 km/h (1 Bft) S 186 ° 0 min 0,000 mm 0,0 UV-I 0 W/m² 6,8 °C 12,8 °C 6,4 km/h (2 Bft)
06.11.2018 16:51 12,6 °C 67 % 1005,3 hPa 0,0 mm 5,4 km/h (1 Bft) S 186 ° 0 min 0,000 mm 0,0 UV-I 0 W/m² 6,6 °C 12,6 °C 6,4 km/h (2 Bft)
06.11.2018 16:52 12,3 °C 68 % 1005,3 hPa 0,0 mm 4,4 km/h (1 Bft) S 186 ° 0 min 0,000 mm 0,0 UV-I 0 W/m² 6,6 °C 12,3 °C 6,4 km/h (2 Bft)
06.11.2018 16:53 12,1 °C 69 % 1005,4 hPa 0,0 mm 5,1 km/h (1 Bft) S 186 ° 0 min 0,000 mm 0,0 UV-I 0 W/m² 6,6 °C 12,1 °C 6,4 km/h (2 Bft)
06.11.2018 16:54 11,8 °C 70 % 1005,4 hPa 0,0 mm 4,0 km/h (1 Bft) S 186 ° 0 min 0,000 mm 0,0 UV-I 0 W/m² 6,5 °C 11,8 °C 4,8 km/h (1 Bft)
06.11.2018 16:55 11,6 °C 71 % 1005,4 hPa 0,0 mm 5,3 km/h (1 Bft) S-SW 209 ° 0 min 0,000 mm 0,0 UV-I 0 W/m² 6,5 °C 11,6 °C 8,0 km/h (2 Bft)
06.11.2018 16:56 11,6 °C 71 % 1005,4 hPa 0,0 mm 5,2 km/h (1 Bft) S-SW 207 ° 0 min 0,000 mm 0,0 UV-I 0 W/m² 6,5 °C 11,6 °C 6,4 km/h (2 Bft)
06.11.2018 16:57 11,5 °C 71 % 1005,4 hPa 0,0 mm 4,6 km/h (1 Bft) S-SW 207 ° 0 min 0,000 mm 0,0 UV-I 0 W/m² 6,4 °C 11,5 °C 6,4 km/h (2 Bft)
06.11.2018 16:58 11,5 °C 71 % 1005,4 hPa 0,0 mm 4,6 km/h (1 Bft) S-SW 207 ° 0 min 0,000 mm 0,0 UV-I 0 W/m² 6,4 °C 11,5 °C 6,4 km/h (2 Bft)
06.11.2018 16:59 11,5 °C 71 % 1005,4 hPa 0,0 mm 3,8 km/h (1 Bft) S-SW 207 ° 0 min 0,000 mm 0,0 UV-I 0 W/m² 6,4 °C 11,5 °C 4,8 km/h (1 Bft)
06.11.2018 17:00 11,4 °C 72 % 1005,4 hPa 0,0 mm 4,5 km/h (1 Bft) S-SW 207 ° 0 min 0,000 mm 0,0 UV-I 0 W/m² 6,5 °C 11,4 °C 6,4 km/h (2 Bft)
06.11.2018 17:01 11,3 °C 73 % 1005,4 hPa 0,0 mm 2,8 km/h (1 Bft) S-SW 207 ° 0 min 0,026 mm 0,0 UV-I 0 W/m² 6,6 °C 11,3 °C 6,4 km/h (2 Bft)
06.11.2018 17:02 11,2 °C 73 % 1005,4 hPa 0,0 mm 3,2 km/h (1 Bft) S-SW 207 ° 0 min 0,000 mm 0,0 UV-I 0 W/m² 6,5 °C 11,2 °C 4,8 km/h (1 Bft)
06.11.2018 17:03 11,1 °C 73 % 1005,4 hPa 0,0 mm 2,7 km/h (1 Bft) S-SW 207 ° 0 min 0,000 mm 0,0 UV-I 0 W/m² 6,4 °C 11,1 °C 3,2 km/h (1 Bft)
06.11.2018 17:04 11,1 °C 73 % 1005,4 hPa 0,0 mm 2,1 km/h (1 Bft) S-SW 207 ° 0 min 0,000 mm 0,0 UV-I 0 W/m² 6,4 °C 11,1 °C 4,8 km/h (1 Bft)
06.11.2018 17:05 11,2 °C 73 % 1005,4 hPa 0,0 mm 2,8 km/h (1 Bft) S-SW 207 ° 0 min 0,000 mm 0,0 UV-I 0 W/m² 6,5 °C 11,2 °C 3,2 km/h (1 Bft)
06.11.2018 17:06 11,3 °C 72 % 1005,4 hPa 0,0 mm 2,9 km/h (1 Bft) S-SW 207 ° 0 min 0,000 mm 0,0 UV-I 0 W/m² 6,4 °C 11,3 °C 4,8 km/h (1 Bft)
06.11.2018 17:07 11,3 °C 72 % 1005,4 hPa 0,0 mm 0,5 km/h (0 Bft) S-SW 207 ° 0 min 0,000 mm 0,0 UV-I 0 W/m² 6,4 °C 11,3 °C 3,2 km/h (1 Bft)
06.11.2018 17:08 11,4 °C 71 % 1005,4 hPa 0,0 mm 0,1 km/h (0 Bft) S-SW 207 ° 0 min 0,000 mm 0,0 UV-I 0 W/m² 6,3 °C 11,4 °C 1,6 km/h (1 Bft)
06.11.2018 17:09 11,4 °C 71 % 1005,4 hPa 0,0 mm 0,7 km/h (0 Bft) S-SW 207 ° 0 min 0,000 mm 0,0 UV-I 0 W/m² 6,3 °C 11,4 °C 3,2 km/h (1 Bft)
06.11.2018 17:10 11,5 °C 71 % 1005,3 hPa 0,0 mm 2,2 km/h (1 Bft) S-SW 207 ° 0 min 0,000 mm 0,0 UV-I 0 W/m² 6,4 °C 11,5 °C 3,2 km/h (1 Bft)
06.11.2018 17:11 11,6 °C 71 % 1005,3 hPa 0,0 mm 2,8 km/h (1 Bft) S-SW 207 ° 0 min 0,000 mm 0,0 UV-I 0 W/m² 6,5 °C 11,6 °C 3,2 km/h (1 Bft)
06.11.2018 17:12 11,7 °C 70 % 1005,3 hPa 0,0 mm 1,1 km/h (1 Bft) S-SW 207 ° 0 min 0,000 mm 0,0 UV-I 0 W/m² 6,4 °C 11,7 °C 3,2 km/h (1 Bft)
06.11.2018 17:13 11,8 °C 70 % 1005,3 hPa 0,0 mm 0,0 km/h (0 Bft) S-SW 207 ° 0 min 0,000 mm 0,0 UV-I 0 W/m² 6,5 °C 11,8 °C 0,0 km/h (0 Bft)
06.11.2018 17:14 11,9 °C 69 % 1005,2 hPa 0,0 mm 0,6 km/h (0 Bft) S-SW 207 ° 0 min 0,000 mm 0,0 UV-I 0 W/m² 6,4 °C 11,9 °C 1,6 km/h (1 Bft)
06.11.2018 17:15 11,9 °C 69 % 1005,2 hPa 0,0 mm 1,5 km/h (1 Bft) S-SW 207 ° 0 min 0,000 mm 0,0 UV-I 0 W/m² 6,4 °C 11,9 °C 3,2 km/h (1 Bft)
06.11.2018 17:16 11,9 °C 69 % 1005,2 hPa 0,0 mm 0,7 km/h (0 Bft) S-SW 207 ° 0 min 0,000 mm 0,0 UV-I 0 W/m² 6,4 °C 11,9 °C 3,2 km/h (1 Bft)
06.11.2018 17:17 11,9 °C 70 % 1005,3 hPa 0,0 mm 3,0 km/h (1 Bft) S-SW 207 ° 0 min 0,000 mm 0,0 UV-I 0 W/m² 6,6 °C 11,9 °C 4,8 km/h (1 Bft)
06.11.2018 17:18 11,8 °C 69 % 1005,2 hPa 0,0 mm 3,0 km/h (1 Bft) S-SW 207 ° 0 min 0,000 mm 0,0 UV-I 0 W/m² 6,3 °C 11,8 °C 3,2 km/h (1 Bft)
06.11.2018 17:19 11,9 °C 69 % 1005,2 hPa 0,0 mm 2,0 km/h (1 Bft) S-SW 207 ° 0 min 0,000 mm 0,0 UV-I 0 W/m² 6,4 °C 11,9 °C 3,2 km/h (1 Bft)
06.11.2018 17:20 12,0 °C 69 % 1005,2 hPa 0,0 mm 0,3 km/h (0 Bft) S-SW 207 ° 0 min 0,000 mm 0,0 UV-I 0 W/m² 6,5 °C 12,0 °C 1,6 km/h (1 Bft)
06.11.2018 17:21 12,1 °C 68 % 1005,2 hPa 0,0 mm 0,6 km/h (0 Bft) S-SW 207 ° 0 min 0,000 mm 0,0 UV-I 0 W/m² 6,4 °C 12,1 °C 1,6 km/h (1 Bft)
06.11.2018 17:22 12,1 °C 68 % 1005,2 hPa 0,0 mm 0,6 km/h (0 Bft) S-SW 207 ° 0 min 0,000 mm 0,0 UV-I 0 W/m² 6,4 °C 12,1 °C 1,6 km/h (1 Bft)
06.11.2018 17:23 12,2 °C 68 % 1005,2 hPa 0,0 mm 0,7 km/h (0 Bft) S-SW 207 ° 0 min 0,000 mm 0,0 UV-I 0 W/m² 6,5 °C 12,2 °C 3,2 km/h (1 Bft)
06.11.2018 17:24 12,2 °C 67 % 1005,2 hPa 0,0 mm 2,6 km/h (1 Bft) S-SW 207 ° 0 min 0,000 mm 0,0 UV-I 0 W/m² 6,3 °C 12,2 °C 4,8 km/h (1 Bft)
06.11.2018 17:25 12,2 °C 68 % 1005,3 hPa 0,0 mm 1,4 km/h (1 Bft) S-SW 207 ° 0 min 0,000 mm 0,0 UV-I 0 W/m² 6,5 °C 12,2 °C 3,2 km/h (1 Bft)
06.11.2018 17:26 12,1 °C 67 % 1005,2 hPa 0,0 mm 0,0 km/h (0 Bft) S-SW 207 ° 0 min 0,000 mm 0,0 UV-I 0 W/m² 6,2 °C 12,1 °C 0,0 km/h (0 Bft)
06.11.2018 17:27 12,1 °C 68 % 1005,2 hPa 0,0 mm 0,0 km/h (0 Bft) S-SW 207 ° 0 min 0,000 mm 0,0 UV-I 0 W/m² 6,4 °C 12,1 °C 0,0 km/h (0 Bft)
06.11.2018 17:28 12,2 °C 68 % 1005,2 hPa 0,0 mm 0,0 km/h (0 Bft) S-SW 207 ° 0 min 0,000 mm 0,0 UV-I 0 W/m² 6,5 °C 12,2 °C 0,0 km/h (0 Bft)
06.11.2018 17:29 12,2 °C 67 % 1005,3 hPa 0,0 mm 0,0 km/h (0 Bft) S-SW 207 ° 0 min 0,000 mm 0,0 UV-I 0 W/m² 6,3 °C 12,2 °C 0,0 km/h (0 Bft)
06.11.2018 17:30 12,3 °C 67 % 1005,3 hPa 0,0 mm 0,0 km/h (0 Bft) S-SW 207 ° 0 min 0,000 mm 0,0 UV-I 0 W/m² 6,4 °C 12,3 °C 0,0 km/h (0 Bft)
06.11.2018 17:31 12,2 °C 67 % 1005,3 hPa 0,0 mm 0,0 km/h (0 Bft) S-SW 207 ° 0 min 0,000 mm 0,0 UV-I 0 W/m² 6,3 °C 12,2 °C 0,0 km/h (0 Bft)
06.11.2018 17:32 12,2 °C 67 % 1005,3 hPa 0,0 mm 0,0 km/h (0 Bft) S-SW 207 ° 0 min 0,000 mm 0,0 UV-I 0 W/m² 6,3 °C 12,2 °C 0,0 km/h (0 Bft)
06.11.2018 17:33 12,2 °C 67 % 1005,3 hPa 0,0 mm 0,0 km/h (0 Bft) S-SW 207 ° 0 min 0,000 mm 0,0 UV-I 0 W/m² 6,3 °C 12,2 °C 0,0 km/h (0 Bft)
06.11.2018 17:34 12,2 °C 67 % 1005,4 hPa 0,0 mm 3,0 km/h (1 Bft) SW 230 ° 0 min 0,000 mm 0,0 UV-I 0 W/m² 6,3 °C 12,2 °C 4,8 km/h (1 Bft)
06.11.2018 17:35 12,1 °C 69 % 1005,4 hPa 0,0 mm 0,8 km/h (0 Bft) SW 230 ° 0 min 0,000 mm 0,0 UV-I 0 W/m² 6,6 °C 12,1 °C 3,2 km/h (1 Bft)
06.11.2018 17:36 11,9 °C 69 % 1005,3 hPa 0,0 mm 0,0 km/h (0 Bft) SW 230 ° 0 min 0,000 mm 0,0 UV-I 0 W/m² 6,4 °C 11,9 °C 0,0 km/h (0 Bft)
06.11.2018 17:37 11,7 °C 70 % 1005,4 hPa 0,0 mm 0,0 km/h (0 Bft) SW 230 ° 0 min 0,000 mm 0,0 UV-I 0 W/m² 6,4 °C 11,7 °C 0,0 km/h (0 Bft)
06.11.2018 17:38 11,6 °C 70 % 1005,3 hPa 0,0 mm 0,0 km/h (0 Bft) SW 230 ° 0 min 0,000 mm 0,0 UV-I 0 W/m² 6,3 °C 11,6 °C 0,0 km/h (0 Bft)
06.11.2018 17:39 11,5 °C 71 % 1005,4 hPa 0,0 mm 0,2 km/h (0 Bft) SW 230 ° 0 min 0,000 mm 0,0 UV-I 0 W/m² 6,4 °C 11,5 °C 1,6 km/h (1 Bft)
06.11.2018 17:40 11,6 °C 71 % 1005,4 hPa 0,0 mm 2,0 km/h (1 Bft) S 171 ° 0 min 0,000 mm 0,0 UV-I 0 W/m² 6,5 °C 11,6 °C 3,2 km/h (1 Bft)
06.11.2018 17:41 11,6 °C 70 % 1005,4 hPa 0,0 mm 4,1 km/h (1 Bft) O-SO 121 ° 0 min 0,000 mm 0,0 UV-I 0 W/m² 6,3 °C 11,6 °C 6,4 km/h (2 Bft)
06.11.2018 17:42 11,6 °C 70 % 1005,5 hPa 0,0 mm 2,3 km/h (1 Bft) O-SO 117 ° 0 min 0,000 mm 0,0 UV-I 0 W/m² 6,3 °C 11,6 °C 4,8 km/h (1 Bft)
06.11.2018 17:43 11,7 °C 70 % 1005,5 hPa 0,0 mm 0,9 km/h (0 Bft) O-SO 117 ° 0 min 0,000 mm 0,0 UV-I 0 W/m² 6,4 °C 11,7 °C 1,6 km/h (1 Bft)
06.11.2018 17:44 11,7 °C 70 % 1005,5 hPa 0,0 mm 0,4 km/h (0 Bft) O-SO 117 ° 0 min 0,000 mm 0,0 UV-I 0 W/m² 6,4 °C 11,7 °C 1,6 km/h (1 Bft)
06.11.2018 17:45 11,6 °C 70 % 1005,5 hPa 0,0 mm 0,0 km/h (0 Bft) O-SO 117 ° 0 min 0,000 mm 0,0 UV-I 0 W/m² 6,3 °C 11,6 °C 0,0 km/h (0 Bft)
06.11.2018 17:46 11,6 °C 70 % 1005,5 hPa 0,0 mm 0,0 km/h (0 Bft) O-SO 117 ° 0 min 0,000 mm 0,0 UV-I 0 W/m² 6,3 °C 11,6 °C 0,0 km/h (0 Bft)
06.11.2018 17:47 11,4 °C 70 % 1005,6 hPa 0,0 mm 0,0 km/h (0 Bft) O-SO 117 ° 0 min 0,000 mm 0,0 UV-I 0 W/m² 6,1 °C 11,4 °C 0,0 km/h (0 Bft)
06.11.2018 17:48 11,4 °C 70 % 1005,5 hPa 0,0 mm 0,0 km/h (0 Bft) O-SO 117 ° 0 min 0,000 mm 0,0 UV-I 0 W/m² 6,1 °C 11,4 °C 0,0 km/h (0 Bft)
06.11.2018 17:49 11,6 °C 70 % 1005,6 hPa 0,0 mm 0,0 km/h (0 Bft) O-SO 117 ° 0 min 0,000 mm 0,0 UV-I 0 W/m² 6,3 °C 11,6 °C 0,0 km/h (0 Bft)
06.11.2018 17:50 11,7 °C 70 % 1005,5 hPa 0,0 mm 0,0 km/h (0 Bft) O-SO 117 ° 0 min 0,000 mm 0,0 UV-I 0 W/m² 6,4 °C 11,7 °C 0,0 km/h (0 Bft)
06.11.2018 17:51 11,8 °C 69 % 1005,5 hPa 0,0 mm 0,0 km/h (0 Bft) O-SO 117 ° 0 min 0,000 mm 0,0 UV-I 0 W/m² 6,3 °C 11,8 °C 0,0 km/h (0 Bft)
06.11.2018 17:52 11,9 °C 68 % 1005,5 hPa 0,0 mm 0,0 km/h (0 Bft) O-SO 117 ° 0 min 0,000 mm 0,0 UV-I 0 W/m² 6,2 °C 11,9 °C 0,0 km/h (0 Bft)
06.11.2018 17:53 12,1 °C 67 % 1005,5 hPa 0,0 mm 0,0 km/h (0 Bft) O-SO 117 ° 0 min 0,000 mm 0,0 UV-I 0 W/m² 6,2 °C 12,1 °C 0,0 km/h (0 Bft)
06.11.2018 17:54 12,2 °C 67 % 1005,4 hPa 0,0 mm 0,0 km/h (0 Bft) O-SO 117 ° 0 min 0,000 mm 0,0 UV-I 0 W/m² 6,3 °C 12,2 °C 0,0 km/h (0 Bft)
06.11.2018 17:55 12,3 °C 66 % 1005,5 hPa 0,0 mm 0,0 km/h (0 Bft) O-SO 117 ° 0 min 0,000 mm 0,0 UV-I 0 W/m² 6,1 °C 12,3 °C 0,0 km/h (0 Bft)
06.11.2018 17:56 12,4 °C 66 % 1005,5 hPa 0,0 mm 0,0 km/h (0 Bft) O-SO 117 ° 0 min 0,000 mm 0,0 UV-I 0 W/m² 6,2 °C 12,4 °C 0,0 km/h (0 Bft)
06.11.2018 17:57 12,6 °C 66 % 1005,5 hPa 0,0 mm 0,0 km/h (0 Bft) O-SO 117 ° 0 min 0,000 mm 0,0 UV-I 0 W/m² 6,4 °C 12,6 °C 0,0 km/h (0 Bft)
06.11.2018 17:58 12,5 °C 66 % 1005,4 hPa 0,0 mm 0,0 km/h (0 Bft) O-SO 117 ° 0 min 0,000 mm 0,0 UV-I 0 W/m² 6,3 °C 12,5 °C 0,0 km/h (0 Bft)
06.11.2018 17:59 12,4 °C 66 % 1005,5 hPa 0,0 mm 0,0 km/h (0 Bft) O-SO 117 ° 0 min 0,000 mm 0,0 UV-I 0 W/m² 6,2 °C 12,4 °C 0,0 km/h (0 Bft)
06.11.2018 18:00 12,3 °C 66 % 1005,5 hPa 0,0 mm 0,0 km/h (0 Bft) O-SO 117 ° 0 min 0,000 mm 0,0 UV-I 0 W/m² 6,1 °C 12,3 °C 0,0 km/h (0 Bft)
06.11.2018 18:01 12,3 °C 66 % 1005,5 hPa 0,0 mm 0,0 km/h (0 Bft) O-SO 117 ° 0 min 0,000 mm 0,0 UV-I 0 W/m² 6,1 °C 12,3 °C 0,0 km/h (0 Bft)
06.11.2018 18:02 12,4 °C 66 % 1005,6 hPa 0,0 mm 0,0 km/h (0 Bft) O-SO 117 ° 0 min 0,000 mm 0,0 UV-I 0 W/m² 6,2 °C 12,4 °C 0,0 km/h (0 Bft)
06.11.2018 18:03 12,5 °C 66 % 1005,6 hPa 0,0 mm 0,0 km/h (0 Bft) O-SO 117 ° 0 min 0,000 mm 0,0 UV-I 0 W/m² 6,3 °C 12,5 °C 0,0 km/h (0 Bft)
06.11.2018 18:04 12,6 °C 66 % 1005,6 hPa 0,0 mm 0,0 km/h (0 Bft) O-SO 117 ° 0 min 0,000 mm 0,0 UV-I 0 W/m² 6,4 °C 12,6 °C 0,0 km/h (0 Bft)
06.11.2018 18:05 12,7 °C 66 % 1005,6 hPa 0,0 mm 0,0 km/h (0 Bft) O-SO 117 ° 0 min 0,000 mm 0,0 UV-I 0 W/m² 6,5 °C 12,7 °C 0,0 km/h (0 Bft)
06.11.2018 18:06 12,8 °C 65 % 1005,6 hPa 0,0 mm 0,0 km/h (0 Bft) O-SO 117 ° 0 min 0,000 mm 0,0 UV-I 0 W/m² 6,4 °C 12,8 °C 0,0 km/h (0 Bft)
06.11.2018 18:07 12,8 °C 65 % 1005,6 hPa 0,0 mm 0,0 km/h (0 Bft) O-SO 117 ° 0 min 0,000 mm 0,0 UV-I 0 W/m² 6,4 °C 12,8 °C 0,0 km/h (0 Bft)
06.11.2018 18:08 12,8 °C 64 % 1005,6 hPa 0,0 mm 0,0 km/h (0 Bft) O-SO 117 ° 0 min 0,000 mm 0,0 UV-I 0 W/m² 6,2 °C 12,8 °C 0,0 km/h (0 Bft)
06.11.2018 18:09 12,8 °C 64 % 1005,6 hPa 0,0 mm 0,0 km/h (0 Bft) O-SO 117 ° 0 min 0,000 mm 0,0 UV-I 0 W/m² 6,2 °C 12,8 °C 0,0 km/h (0 Bft)
06.11.2018 18:10 12,8 °C 64 % 1005,6 hPa 0,0 mm 0,0 km/h (0 Bft) O-SO 117 ° 0 min 0,000 mm 0,0 UV-I 0 W/m² 6,2 °C 12,8 °C 0,0 km/h (0 Bft)
06.11.2018 18:11 12,9 °C 64 % 1005,6 hPa 0,0 mm 0,0 km/h (0 Bft) O-SO 117 ° 0 min 0,000 mm 0,0 UV-I 0 W/m² 6,3 °C 12,9 °C 0,0 km/h (0 Bft)
06.11.2018 18:12 12,9 °C 64 % 1005,6 hPa 0,0 mm 0,0 km/h (0 Bft) O-SO 117 ° 0 min 0,000 mm 0,0 UV-I 0 W/m² 6,3 °C 12,9 °C 0,0 km/h (0 Bft)
06.11.2018 18:13 12,8 °C 65 % 1005,6 hPa 0,0 mm 0,0 km/h (0 Bft) O-SO 117 ° 0 min 0,000 mm 0,0 UV-I 0 W/m² 6,4 °C 12,8 °C 0,0 km/h (0 Bft)
06.11.2018 18:14 12,8 °C 64 % 1005,6 hPa 0,0 mm 0,0 km/h (0 Bft) O-SO 117 ° 0 min 0,000 mm 0,0 UV-I 0 W/m² 6,2 °C 12,8 °C 0,0 km/h (0 Bft)
06.11.2018 18:15 12,7 °C 64 % 1005,6 hPa 0,0 mm 1,2 km/h (1 Bft) NW 322 ° 0 min 0,000 mm 0,0 UV-I 0 W/m² 6,1 °C 12,7 °C 4,8 km/h (1 Bft)
06.11.2018 18:16 12,6 °C 65 % 1005,6 hPa 0,0 mm 0,1 km/h (0 Bft) NW 322 ° 0 min 0,000 mm 0,0 UV-I 0 W/m² 6,2 °C 12,6 °C 1,6 km/h (1 Bft)
06.11.2018 18:17 12,7 °C 65 % 1005,7 hPa 0,0 mm 0,0 km/h (0 Bft) NW 322 ° 0 min 0,000 mm 0,0 UV-I 0 W/m² 6,3 °C 12,7 °C 0,0 km/h (0 Bft)
06.11.2018 18:18 12,7 °C 65 % 1005,6 hPa 0,0 mm 0,1 km/h (0 Bft) NW 322 ° 0 min 0,000 mm 0,0 UV-I 0 W/m² 6,3 °C 12,7 °C 1,6 km/h (1 Bft)
06.11.2018 18:19 12,7 °C 65 % 1005,6 hPa 0,0 mm 0,0 km/h (0 Bft) NW 322 ° 0 min 0,000 mm 0,0 UV-I 0 W/m² 6,3 °C 12,7 °C 0,0 km/h (0 Bft)
06.11.2018 18:20 12,7 °C 64 % 1005,7 hPa 0,0 mm 0,3 km/h (0 Bft) NW 322 ° 0 min 0,000 mm 0,0 UV-I 0 W/m² 6,1 °C 12,7 °C 1,6 km/h (1 Bft)
06.11.2018 18:21 12,8 °C 64 % 1005,6 hPa 0,0 mm 0,0 km/h (0 Bft) NW 322 ° 0 min 0,000 mm 0,0 UV-I 0 W/m² 6,2 °C 12,8 °C 0,0 km/h (0 Bft)
06.11.2018 18:22 12,9 °C 64 % 1005,6 hPa 0,0 mm 0,0 km/h (0 Bft) NW 322 ° 0 min 0,000 mm 0,0 UV-I 0 W/m² 6,3 °C 12,9 °C 0,0 km/h (0 Bft)
06.11.2018 18:23 12,9 °C 64 % 1005,7 hPa 0,0 mm 1,3 km/h (1 Bft) NW 322 ° 0 min 0,000 mm 0,0 UV-I 0 W/m² 6,3 °C 12,9 °C 3,2 km/h (1 Bft)
06.11.2018 18:24 12,9 °C 64 % 1005,7 hPa 0,0 mm 1,1 km/h (1 Bft) NW 322 ° 0 min 0,000 mm 0,0 UV-I 0 W/m² 6,3 °C 12,9 °C 3,2 km/h (1 Bft)
06.11.2018 18:25 12,9 °C 64 % 1005,7 hPa 0,0 mm 0,0 km/h (0 Bft) NW 322 ° 0 min 0,000 mm 0,0 UV-I 0 W/m² 6,3 °C 12,9 °C 0,0 km/h (0 Bft)
06.11.2018 18:26 12,8 °C 64 % 1005,7 hPa 0,0 mm 0,4 km/h (0 Bft) NW 322 ° 0 min 0,000 mm 0,0 UV-I 0 W/m² 6,2 °C 12,8 °C 1,6 km/h (1 Bft)
06.11.2018 18:27 12,9 °C 64 % 1005,7 hPa 0,0 mm 0,1 km/h (0 Bft) NW 322 ° 0 min 0,000 mm 0,0 UV-I 0 W/m² 6,3 °C 12,9 °C 1,6 km/h (1 Bft)
06.11.2018 18:28 12,9 °C 63 % 1005,7 hPa 0,0 mm 0,0 km/h (0 Bft) NW 322 ° 0 min 0,000 mm 0,0 UV-I 0 W/m² 6,0 °C 12,9 °C 0,0 km/h (0 Bft)
06.11.2018 18:29 12,9 °C 64 % 1005,7 hPa 0,0 mm 0,5 km/h (0 Bft) NW 322 ° 0 min 0,000 mm 0,0 UV-I 0 W/m² 6,3 °C 12,9 °C 3,2 km/h (1 Bft)
06.11.2018 18:30 12,8 °C 64 % 1005,7 hPa 0,0 mm 1,7 km/h (1 Bft) NW 322 ° 0 min 0,000 mm 0,0 UV-I 0 W/m² 6,2 °C 12,8 °C 3,2 km/h (1 Bft)
06.11.2018 18:31 12,8 °C 64 % 1005,7 hPa 0,0 mm 1,9 km/h (1 Bft) NW 322 ° 0 min 0,000 mm 0,0 UV-I 0 W/m² 6,2 °C 12,8 °C 3,2 km/h (1 Bft)
06.11.2018 18:32 12,8 °C 64 % 1005,7 hPa 0,0 mm 0,9 km/h (0 Bft) NW 322 ° 0 min 0,000 mm 0,0 UV-I 0 W/m² 6,2 °C 12,8 °C 1,6 km/h (1 Bft)
06.11.2018 18:33 12,8 °C 64 % 1005,8 hPa 0,0 mm 0,0 km/h (0 Bft) NW 322 ° 0 min 0,000 mm 0,0 UV-I 0 W/m² 6,2 °C 12,8 °C 0,0 km/h (0 Bft)
06.11.2018 18:34 12,8 °C 64 % 1005,8 hPa 0,0 mm 0,0 km/h (0 Bft) NW 322 ° 0 min 0,000 mm 0,0 UV-I 0 W/m² 6,2 °C 12,8 °C 0,0 km/h (0 Bft)
06.11.2018 18:35 12,7 °C 64 % 1005,8 hPa 0,0 mm 0,4 km/h (0 Bft) NW 322 ° 0 min 0,000 mm 0,0 UV-I 0 W/m² 6,1 °C 12,7 °C 1,6 km/h (1 Bft)
06.11.2018 18:36 12,6 °C 65 % 1005,8 hPa 0,0 mm 1,1 km/h (1 Bft) NW 322 ° 0 min 0,000 mm 0,0 UV-I 0 W/m² 6,2 °C 12,6 °C 3,2 km/h (1 Bft)
06.11.2018 18:37 12,6 °C 65 % 1005,8 hPa 0,0 mm 1,8 km/h (1 Bft) NW 322 ° 0 min 0,000 mm 0,0 UV-I 0 W/m² 6,2 °C 12,6 °C 3,2 km/h (1 Bft)
06.11.2018 18:38 12,6 °C 64 % 1005,7 hPa 0,0 mm 1,0 km/h (0 Bft) NW 322 ° 0 min 0,000 mm 0,0 UV-I 0 W/m² 6,0 °C 12,6 °C 1,6 km/h (1 Bft)
06.11.2018 18:39 12,6 °C 65 % 1005,8 hPa 0,0 mm 2,2 km/h (1 Bft) NW 321 ° 0 min 0,000 mm 0,0 UV-I 0 W/m² 6,2 °C 12,6 °C 4,8 km/h (1 Bft)
06.11.2018 18:40 12,4 °C 66 % 1005,8 hPa 0,0 mm 0,8 km/h (0 Bft) NW 321 ° 0 min 0,000 mm 0,0 UV-I 0 W/m² 6,2 °C 12,4 °C 3,2 km/h (1 Bft)
06.11.2018 18:41 12,3 °C 66 % 1005,8 hPa 0,0 mm 1,2 km/h (1 Bft) NW 321 ° 0 min 0,000 mm 0,0 UV-I 0 W/m² 6,1 °C 12,3 °C 3,2 km/h (1 Bft)
06.11.2018 18:42 12,2 °C 66 % 1005,8 hPa 0,0 mm 0,1 km/h (0 Bft) NW 321 ° 0 min 0,000 mm 0,0 UV-I 0 W/m² 6,0 °C 12,2 °C 1,6 km/h (1 Bft)
06.11.2018 18:43 12,2 °C 66 % 1005,8 hPa 0,0 mm 1,4 km/h (1 Bft) NW 321 ° 0 min 0,000 mm 0,0 UV-I 0 W/m² 6,0 °C 12,2 °C 3,2 km/h (1 Bft)
06.11.2018 18:44 12,2 °C 66 % 1005,8 hPa 0,0 mm 1,5 km/h (1 Bft) NW 321 ° 0 min 0,000 mm 0,0 UV-I 0 W/m² 6,0 °C 12,2 °C 3,2 km/h (1 Bft)
06.11.2018 18:45 12,1 °C 67 % 1005,8 hPa 0,0 mm 0,7 km/h (0 Bft) NW 321 ° 0 min 0,000 mm 0,0 UV-I 0 W/m² 6,2 °C 12,1 °C 3,2 km/h (1 Bft)
06.11.2018 18:46 12,1 °C 66 % 1005,8 hPa 0,0 mm 0,1 km/h (0 Bft) NW 321 ° 0 min 0,000 mm 0,0 UV-I 0 W/m² 5,9 °C 12,1 °C 1,6 km/h (1 Bft)
06.11.2018 18:47 12,1 °C 66 % 1005,8 hPa 0,0 mm 0,0 km/h (0 Bft) NW 321 ° 0 min 0,000 mm 0,0 UV-I 0 W/m² 5,9 °C 12,1 °C 0,0 km/h (0 Bft)
06.11.2018 18:48 12,0 °C 67 % 1005,8 hPa 0,0 mm 0,0 km/h (0 Bft) NW 321 ° 0 min 0,000 mm 0,0 UV-I 0 W/m² 6,1 °C 12,0 °C 0,0 km/h (0 Bft)
06.11.2018 18:49 12,0 °C 67 % 1005,9 hPa 0,0 mm 0,2 km/h (0 Bft) NW 321 ° 0 min 0,000 mm 0,0 UV-I 0 W/m² 6,1 °C 12,0 °C 1,6 km/h (1 Bft)
06.11.2018 18:50 12,1 °C 66 % 1005,9 hPa 0,0 mm 0,0 km/h (0 Bft) NW 321 ° 0 min 0,000 mm 0,0 UV-I 0 W/m² 5,9 °C 12,1 °C 0,0 km/h (0 Bft)
06.11.2018 18:51 12,1 °C 66 % 1005,9 hPa 0,0 mm 0,1 km/h (0 Bft) NW 321 ° 0 min 0,000 mm 0,0 UV-I 0 W/m² 5,9 °C 12,1 °C 1,6 km/h (1 Bft)
06.11.2018 18:52 12,2 °C 67 % 1005,9 hPa 0,0 mm 3,1 km/h (1 Bft) SW 217 ° 0 min 0,000 mm 0,0 UV-I 0 W/m² 6,3 °C 12,2 °C 4,8 km/h (1 Bft)
06.11.2018 18:53 12,1 °C 67 % 1005,8 hPa 0,0 mm 3,1 km/h (1 Bft) SW 217 ° 0 min 0,000 mm 0,0 UV-I 0 W/m² 6,2 °C 12,1 °C 4,8 km/h (1 Bft)
06.11.2018 18:54 12,1 °C 67 % 1005,8 hPa 0,0 mm 4,3 km/h (1 Bft) S-SW 204 ° 0 min 0,000 mm 0,0 UV-I 0 W/m² 6,2 °C 12,1 °C 6,4 km/h (2 Bft)
06.11.2018 18:55 12,0 °C 67 % 1005,9 hPa 0,0 mm 3,5 km/h (1 Bft) S-SW 205 ° 0 min 0,000 mm 0,0 UV-I 0 W/m² 6,1 °C 12,0 °C 6,4 km/h (2 Bft)
06.11.2018 18:56 11,9 °C 68 % 1005,8 hPa 0,0 mm 1,5 km/h (1 Bft) S-SW 205 ° 0 min 0,000 mm 0,0 UV-I 0 W/m² 6,2 °C 11,9 °C 3,2 km/h (1 Bft)
06.11.2018 18:57 11,8 °C 68 % 1005,8 hPa 0,0 mm 4,7 km/h (1 Bft) S-SW 204 ° 0 min 0,000 mm 0,0 UV-I 0 W/m² 6,1 °C 11,8 °C 6,4 km/h (2 Bft)
06.11.2018 18:58 11,8 °C 68 % 1005,8 hPa 0,0 mm 1,7 km/h (1 Bft) S-SW 204 ° 0 min 0,000 mm 0,0 UV-I 0 W/m² 6,1 °C 11,8 °C 3,2 km/h (1 Bft)
06.11.2018 18:59 11,7 °C 68 % 1005,8 hPa 0,0 mm 1,6 km/h (1 Bft) S-SW 204 ° 0 min 0,000 mm 0,0 UV-I 0 W/m² 6,0 °C 11,7 °C 3,2 km/h (1 Bft)
06.11.2018 19:00 11,7 °C 68 % 1005,8 hPa 0,0 mm 1,7 km/h (1 Bft) S-SW 204 ° 0 min 0,025 mm 0,0 UV-I 0 W/m² 6,0 °C 11,7 °C 3,2 km/h (1 Bft)
06.11.2018 19:01 11,8 °C 68 % 1005,8 hPa 0,0 mm 0,0 km/h (0 Bft) S-SW 204 ° 0 min 0,000 mm 0,0 UV-I 0 W/m² 6,1 °C 11,8 °C 0,0 km/h (0 Bft)
06.11.2018 19:02 11,8 °C 68 % 1005,8 hPa 0,0 mm 0,0 km/h (0 Bft) S-SW 204 ° 0 min 0,000 mm 0,0 UV-I 0 W/m² 6,1 °C 11,8 °C 0,0 km/h (0 Bft)
06.11.2018 19:03 11,9 °C 67 % 1005,8 hPa 0,0 mm 0,0 km/h (0 Bft) S-SW 204 ° 0 min 0,000 mm 0,0 UV-I 0 W/m² 6,0 °C 11,9 °C 0,0 km/h (0 Bft)
06.11.2018 19:04 11,9 °C 67 % 1005,8 hPa 0,0 mm 0,0 km/h (0 Bft) S-SW 204 ° 0 min 0,000 mm 0,0 UV-I 0 W/m² 6,0 °C 11,9 °C 0,0 km/h (0 Bft)
06.11.2018 19:05 11,9 °C 67 % 1005,8 hPa 0,0 mm 0,0 km/h (0 Bft) S-SW 204 ° 0 min 0,000 mm 0,0 UV-I 0 W/m² 6,0 °C 11,9 °C 0,0 km/h (0 Bft)
06.11.2018 19:06 11,9 °C 68 % 1005,9 hPa 0,0 mm 0,0 km/h (0 Bft) S-SW 204 ° 0 min 0,000 mm 0,0 UV-I 0 W/m² 6,2 °C 11,9 °C 0,0 km/h (0 Bft)
06.11.2018 19:07 11,9 °C 67 % 1005,9 hPa 0,0 mm 0,0 km/h (0 Bft) S-SW 204 ° 0 min 0,000 mm 0,0 UV-I 0 W/m² 6,0 °C 11,9 °C 0,0 km/h (0 Bft)
06.11.2018 19:08 11,9 °C 68 % 1005,9 hPa 0,0 mm 0,0 km/h (0 Bft) S-SW 204 ° 0 min 0,000 mm 0,0 UV-I 0 W/m² 6,2 °C 11,9 °C 0,0 km/h (0 Bft)
06.11.2018 19:09 11,8 °C 68 % 1005,9 hPa 0,0 mm 0,0 km/h (0 Bft) S-SW 204 ° 0 min 0,000 mm 0,0 UV-I 0 W/m² 6,1 °C 11,8 °C 0,0 km/h (0 Bft)
06.11.2018 19:10 11,8 °C 68 % 1005,9 hPa 0,0 mm 0,0 km/h (0 Bft) S-SW 204 ° 0 min 0,000 mm 0,0 UV-I 0 W/m² 6,1 °C 11,8 °C 0,0 km/h (0 Bft)
06.11.2018 19:11 11,8 °C 68 % 1005,9 hPa 0,0 mm 0,0 km/h (0 Bft) S-SW 204 ° 0 min 0,000 mm 0,0 UV-I 0 W/m² 6,1 °C 11,8 °C 0,0 km/h (0 Bft)
06.11.2018 19:12 11,7 °C 68 % 1005,9 hPa 0,0 mm 0,0 km/h (0 Bft) S-SW 204 ° 0 min 0,000 mm 0,0 UV-I 0 W/m² 6,0 °C 11,7 °C 0,0 km/h (0 Bft)
06.11.2018 19:13 11,7 °C 68 % 1005,9 hPa 0,0 mm 0,0 km/h (0 Bft) S-SW 204 ° 0 min 0,000 mm 0,0 UV-I 0 W/m² 6,0 °C 11,7 °C 0,0 km/h (0 Bft)
06.11.2018 19:14 11,7 °C 68 % 1005,9 hPa 0,0 mm 0,0 km/h (0 Bft) S-SW 204 ° 0 min 0,000 mm 0,0 UV-I 0 W/m² 6,0 °C 11,7 °C 0,0 km/h (0 Bft)
06.11.2018 19:15 11,7 °C 69 % 1005,9 hPa 0,0 mm 0,0 km/h (0 Bft) S-SW 204 ° 0 min 0,000 mm 0,0 UV-I 0 W/m² 6,2 °C 11,7 °C 0,0 km/h (0 Bft)
06.11.2018 19:16 11,6 °C 69 % 1005,9 hPa 0,0 mm 0,0 km/h (0 Bft) S-SW 204 ° 0 min 0,000 mm 0,0 UV-I 0 W/m² 6,1 °C 11,6 °C 0,0 km/h (0 Bft)
06.11.2018 19:17 11,6 °C 69 % 1005,9 hPa 0,0 mm 0,0 km/h (0 Bft) S-SW 204 ° 0 min 0,000 mm 0,0 UV-I 0 W/m² 6,1 °C 11,6 °C 0,0 km/h (0 Bft)
06.11.2018 19:18 11,5 °C 69 % 1005,9 hPa 0,0 mm 0,0 km/h (0 Bft) S-SW 204 ° 0 min 0,000 mm 0,0 UV-I 0 W/m² 6,0 °C 11,5 °C 0,0 km/h (0 Bft)
06.11.2018 19:19 11,4 °C 69 % 1005,8 hPa 0,0 mm 0,0 km/h (0 Bft) S-SW 204 ° 0 min 0,000 mm 0,0 UV-I 0 W/m² 5,9 °C 11,4 °C 0,0 km/h (0 Bft)
06.11.2018 19:20 11,4 °C 69 % 1005,9 hPa 0,0 mm 0,0 km/h (0 Bft) S-SW 204 ° 0 min 0,000 mm 0,0 UV-I 0 W/m² 5,9 °C 11,4 °C 0,0 km/h (0 Bft)
06.11.2018 19:21 11,4 °C 69 % 1005,9 hPa 0,0 mm 0,0 km/h (0 Bft) S-SW 204 ° 0 min 0,000 mm 0,0 UV-I 0 W/m² 5,9 °C 11,4 °C 0,0 km/h (0 Bft)
06.11.2018 19:22 11,3 °C 69 % 1005,9 hPa 0,0 mm 0,0 km/h (0 Bft) S-SW 204 ° 0 min 0,000 mm 0,0 UV-I 0 W/m² 5,8 °C 11,3 °C 0,0 km/h (0 Bft)
06.11.2018 19:23 11,3 °C 69 % 1005,9 hPa 0,0 mm 0,0 km/h (0 Bft) S-SW 204 ° 0 min 0,000 mm 0,0 UV-I 0 W/m² 5,8 °C 11,3 °C 0,0 km/h (0 Bft)
06.11.2018 19:24 11,4 °C 69 % 1005,9 hPa 0,0 mm 0,0 km/h (0 Bft) S-SW 204 ° 0 min 0,000 mm 0,0 UV-I 0 W/m² 5,9 °C 11,4 °C 0,0 km/h (0 Bft)
06.11.2018 19:25 11,4 °C 68 % 1006,0 hPa 0,0 mm 0,0 km/h (0 Bft) S-SW 204 ° 0 min 0,000 mm 0,0 UV-I 0 W/m² 5,7 °C 11,4 °C 0,0 km/h (0 Bft)
06.11.2018 19:26 11,4 °C 68 % 1005,9 hPa 0,0 mm 0,0 km/h (0 Bft) S-SW 204 ° 0 min 0,000 mm 0,0 UV-I 0 W/m² 5,7 °C 11,4 °C 0,0 km/h (0 Bft)
06.11.2018 19:27 11,4 °C 69 % 1005,9 hPa 0,0 mm 0,0 km/h (0 Bft) S-SW 204 ° 0 min 0,000 mm 0,0 UV-I 0 W/m² 5,9 °C 11,4 °C 0,0 km/h (0 Bft)
06.11.2018 19:28 11,3 °C 70 % 1005,9 hPa 0,0 mm 0,0 km/h (0 Bft) S-SW 204 ° 0 min 0,000 mm 0,0 UV-I 0 W/m² 6,0 °C 11,3 °C 0,0 km/h (0 Bft)
06.11.2018 19:29 11,3 °C 70 % 1005,9 hPa 0,0 mm 0,0 km/h (0 Bft) S-SW 204 ° 0 min 0,000 mm 0,0 UV-I 0 W/m² 6,0 °C 11,3 °C 0,0 km/h (0 Bft)
06.11.2018 19:30 11,3 °C 70 % 1005,9 hPa 0,0 mm 0,0 km/h (0 Bft) S-SW 204 ° 0 min 0,000 mm 0,0 UV-I 0 W/m² 6,0 °C 11,3 °C 0,0 km/h (0 Bft)
06.11.2018 19:31 11,4 °C 70 % 1005,9 hPa 0,0 mm 0,0 km/h (0 Bft) S-SW 204 ° 0 min 0,000 mm 0,0 UV-I 0 W/m² 6,1 °C 11,4 °C 0,0 km/h (0 Bft)
06.11.2018 19:32 11,4 °C 69 % 1005,9 hPa 0,0 mm 0,0 km/h (0 Bft) S-SW 204 ° 0 min 0,000 mm 0,0 UV-I 0 W/m² 5,9 °C 11,4 °C 0,0 km/h (0 Bft)
06.11.2018 19:33 11,5 °C 69 % 1005,9 hPa 0,0 mm 0,0 km/h (0 Bft) S-SW 204 ° 0 min 0,000 mm 0,0 UV-I 0 W/m² 6,0 °C 11,5 °C 0,0 km/h (0 Bft)
06.11.2018 19:34 11,6 °C 69 % 1005,9 hPa 0,0 mm 0,0 km/h (0 Bft) S-SW 204 ° 0 min 0,000 mm 0,0 UV-I 0 W/m² 6,1 °C 11,6 °C 0,0 km/h (0 Bft)
06.11.2018 19:35 11,5 °C 69 % 1005,9 hPa 0,0 mm 0,5 km/h (0 Bft) S-SW 205 ° 0 min 0,000 mm 0,0 UV-I 0 W/m² 6,0 °C 11,5 °C 1,6 km/h (1 Bft)
06.11.2018 19:36 11,6 °C 69 % 1006,0 hPa 0,0 mm 0,0 km/h (0 Bft) S-SW 205 ° 0 min 0,000 mm 0,0 UV-I 0 W/m² 6,1 °C 11,6 °C 0,0 km/h (0 Bft)
06.11.2018 19:37 11,6 °C 69 % 1005,9 hPa 0,0 mm 0,0 km/h (0 Bft) S-SW 205 ° 0 min 0,000 mm 0,0 UV-I 0 W/m² 6,1 °C 11,6 °C 0,0 km/h (0 Bft)
06.11.2018 19:38 11,6 °C 68 % 1006,0 hPa 0,0 mm 1,1 km/h (1 Bft) S-SW 212 ° 0 min 0,000 mm 0,0 UV-I 0 W/m² 5,9 °C 11,6 °C 4,8 km/h (1 Bft)
06.11.2018 19:39 11,6 °C 68 % 1005,9 hPa 0,0 mm 2,1 km/h (1 Bft) SW 225 ° 0 min 0,000 mm 0,0 UV-I 0 W/m² 5,9 °C 11,6 °C 4,8 km/h (1 Bft)
06.11.2018 19:40 11,6 °C 67 % 1006,0 hPa 0,0 mm 1,3 km/h (1 Bft) W-SW 238 ° 0 min 0,000 mm 0,0 UV-I 0 W/m² 5,7 °C 11,6 °C 3,2 km/h (1 Bft)
06.11.2018 19:41 11,7 °C 67 % 1006,0 hPa 0,0 mm 0,7 km/h (0 Bft) W-SW 238 ° 0 min 0,000 mm 0,0 UV-I 0 W/m² 5,8 °C 11,7 °C 3,2 km/h (1 Bft)
06.11.2018 19:42 11,7 °C 68 % 1006,0 hPa 0,0 mm 0,5 km/h (0 Bft) W-SW 238 ° 0 min 0,000 mm 0,0 UV-I 0 W/m² 6,0 °C 11,7 °C 1,6 km/h (1 Bft)
06.11.2018 19:43 11,7 °C 69 % 1006,0 hPa 0,0 mm 1,5 km/h (1 Bft) W-SW 238 ° 0 min 0,000 mm 0,0 UV-I 0 W/m² 6,2 °C 11,7 °C 3,2 km/h (1 Bft)
06.11.2018 19:44 11,7 °C 69 % 1006,0 hPa 0,0 mm 0,0 km/h (0 Bft) W-SW 238 ° 0 min 0,000 mm 0,0 UV-I 0 W/m² 6,2 °C 11,7 °C 0,0 km/h (0 Bft)
06.11.2018 19:45 11,7 °C 69 % 1006,0 hPa 0,0 mm 0,0 km/h (0 Bft) W-SW 238 ° 0 min 0,000 mm 0,0 UV-I 0 W/m² 6,2 °C 11,7 °C 0,0 km/h (0 Bft)
06.11.2018 19:46 11,7 °C 67 % 1006,1 hPa 0,0 mm 1,0 km/h (0 Bft) W-SW 238 ° 0 min 0,000 mm 0,0 UV-I 0 W/m² 5,8 °C 11,7 °C 3,2 km/h (1 Bft)
06.11.2018 19:47 11,7 °C 67 % 1006,2 hPa 0,0 mm 3,8 km/h (1 Bft) W 269 ° 0 min 0,000 mm 0,0 UV-I 0 W/m² 5,8 °C 11,7 °C 6,4 km/h (2 Bft)
06.11.2018 19:48 11,8 °C 67 % 1006,3 hPa 0,0 mm 9,3 km/h (2 Bft) W-SW 257 ° 0 min 0,000 mm 0,0 UV-I 0 W/m² 5,9 °C 11,8 °C 14,5 km/h (3 Bft)
06.11.2018 19:49 11,8 °C 68 % 1006,5 hPa 0,0 mm 5,6 km/h (1 Bft) W-SW 254 ° 0 min 0,000 mm 0,0 UV-I 0 W/m² 6,1 °C 11,8 °C 6,4 km/h (2 Bft)
06.11.2018 19:50 11,7 °C 67 % 1006,4 hPa 0,0 mm 2,6 km/h (1 Bft) W-SW 249 ° 0 min 0,000 mm 0,0 UV-I 0 W/m² 5,8 °C 11,7 °C 6,4 km/h (2 Bft)
06.11.2018 19:51 11,7 °C 68 % 1006,4 hPa 0,0 mm 0,9 km/h (0 Bft) W-SW 252 ° 0 min 0,000 mm 0,0 UV-I 0 W/m² 6,0 °C 11,7 °C 6,4 km/h (2 Bft)
06.11.2018 19:52 11,7 °C 67 % 1006,5 hPa 0,0 mm 1,1 km/h (1 Bft) W-SW 244 ° 0 min 0,000 mm 0,0 UV-I 0 W/m² 5,8 °C 11,7 °C 4,8 km/h (1 Bft)
06.11.2018 19:53 11,8 °C 67 % 1006,5 hPa 0,0 mm 5,4 km/h (1 Bft) S-SW 197 ° 0 min 0,000 mm 0,0 UV-I 0 W/m² 5,9 °C 11,8 °C 9,7 km/h (2 Bft)
06.11.2018 19:54 11,8 °C 67 % 1006,5 hPa 0,0 mm 1,3 km/h (1 Bft) S 186 ° 0 min 0,000 mm 0,0 UV-I 0 W/m² 5,9 °C 11,8 °C 4,8 km/h (1 Bft)
06.11.2018 19:55 11,8 °C 68 % 1006,6 hPa 0,0 mm 0,1 km/h (0 Bft) S 186 ° 0 min 0,000 mm 0,0 UV-I 0 W/m² 6,1 °C 11,8 °C 1,6 km/h (1 Bft)
06.11.2018 19:56 11,7 °C 68 % 1006,6 hPa 0,0 mm 0,1 km/h (0 Bft) S 186 ° 0 min 0,000 mm 0,0 UV-I 0 W/m² 6,0 °C 11,7 °C 1,6 km/h (1 Bft)
06.11.2018 19:57 11,6 °C 69 % 1006,6 hPa 0,0 mm 0,0 km/h (0 Bft) S 186 ° 0 min 0,000 mm 0,0 UV-I 0 W/m² 6,1 °C 11,6 °C 0,0 km/h (0 Bft)
06.11.2018 19:58 11,5 °C 69 % 1006,6 hPa 0,0 mm 0,6 km/h (0 Bft) S 186 ° 0 min 0,000 mm 0,0 UV-I 0 W/m² 6,0 °C 11,5 °C 3,2 km/h (1 Bft)
06.11.2018 19:59 11,4 °C 69 % 1006,6 hPa 0,0 mm 1,2 km/h (1 Bft) S 186 ° 0 min 0,000 mm 0,0 UV-I 0 W/m² 5,9 °C 11,4 °C 3,2 km/h (1 Bft)
06.11.2018 20:00 11,3 °C 70 % 1006,6 hPa 0,0 mm 1,8 km/h (1 Bft) S 186 ° 0 min 0,026 mm 0,0 UV-I 0 W/m² 6,0 °C 11,3 °C 3,2 km/h (1 Bft)
06.11.2018 20:01 11,4 °C 68 % 1006,6 hPa 0,0 mm 5,7 km/h (1 Bft) SO 142 ° 0 min 0,000 mm 0,0 UV-I 0 W/m² 5,7 °C 11,4 °C 8,0 km/h (2 Bft)
06.11.2018 20:02 11,6 °C 69 % 1006,6 hPa 0,0 mm 5,0 km/h (1 Bft) SO 143 ° 0 min 0,000 mm 0,0 UV-I 0 W/m² 6,1 °C 11,6 °C 6,4 km/h (2 Bft)
06.11.2018 20:03 11,6 °C 68 % 1006,6 hPa 0,0 mm 3,5 km/h (1 Bft) S 176 ° 0 min 0,000 mm 0,0 UV-I 0 W/m² 5,9 °C 11,6 °C 8,0 km/h (2 Bft)
06.11.2018 20:04 11,7 °C 67 % 1006,6 hPa 0,0 mm 4,5 km/h (1 Bft) S 176 ° 0 min 0,000 mm 0,0 UV-I 0 W/m² 5,8 °C 11,7 °C 8,0 km/h (2 Bft)
06.11.2018 20:05 11,9 °C 65 % 1006,6 hPa 0,0 mm 2,1 km/h (1 Bft) SW 217 ° 0 min 0,000 mm 0,0 UV-I 0 W/m² 5,5 °C 11,9 °C 4,8 km/h (1 Bft)
06.11.2018 20:06 12,3 °C 63 % 1006,6 hPa 0,0 mm 1,1 km/h (1 Bft) S 184 ° 0 min 0,000 mm 0,0 UV-I 0 W/m² 5,5 °C 12,3 °C 3,2 km/h (1 Bft)
06.11.2018 20:07 12,5 °C 63 % 1006,6 hPa 0,0 mm 1,7 km/h (1 Bft) SW 219 ° 0 min 0,000 mm 0,0 UV-I 0 W/m² 5,7 °C 12,5 °C 3,2 km/h (1 Bft)
06.11.2018 20:08 12,6 °C 63 % 1006,6 hPa 0,0 mm 2,2 km/h (1 Bft) SW 219 ° 0 min 0,000 mm 0,0 UV-I 0 W/m² 5,7 °C 12,6 °C 4,8 km/h (1 Bft)
06.11.2018 20:09 12,7 °C 61 % 1006,7 hPa 0,0 mm 2,6 km/h (1 Bft) SW 219 ° 0 min 0,000 mm 0,0 UV-I 0 W/m² 5,4 °C 12,7 °C 4,8 km/h (1 Bft)
06.11.2018 20:10 12,8 °C 62 % 1006,7 hPa 0,0 mm 0,9 km/h (0 Bft) SW 219 ° 0 min 0,000 mm 0,0 UV-I 0 W/m² 5,7 °C 12,8 °C 1,6 km/h (1 Bft)
06.11.2018 20:11 12,7 °C 64 % 1006,7 hPa 0,0 mm 2,1 km/h (1 Bft) S-SW 199 ° 0 min 0,000 mm 0,0 UV-I 0 W/m² 6,1 °C 12,7 °C 6,4 km/h (2 Bft)
06.11.2018 20:12 12,6 °C 64 % 1006,8 hPa 0,0 mm 7,4 km/h (2 Bft) S-SW 192 ° 0 min 0,000 mm 0,0 UV-I 0 W/m² 6,0 °C 12,6 °C 9,7 km/h (2 Bft)
06.11.2018 20:13 12,6 °C 63 % 1006,8 hPa 0,0 mm 6,2 km/h (2 Bft) S-SW 206 ° 0 min 0,000 mm 0,0 UV-I 0 W/m² 5,7 °C 12,6 °C 9,7 km/h (2 Bft)
06.11.2018 20:14 12,6 °C 64 % 1006,8 hPa 0,0 mm 3,4 km/h (1 Bft) S 189 ° 0 min 0,000 mm 0,0 UV-I 0 W/m² 6,0 °C 12,6 °C 4,8 km/h (1 Bft)
06.11.2018 20:15 12,6 °C 64 % 1006,9 hPa 0,0 mm 4,2 km/h (1 Bft) S 189 ° 0 min 0,000 mm 0,0 UV-I 0 W/m² 6,0 °C 12,6 °C 8,0 km/h (2 Bft)
06.11.2018 20:16 12,6 °C 63 % 1006,9 hPa 0,0 mm 3,0 km/h (1 Bft) S 190 ° 0 min 0,000 mm 0,0 UV-I 0 W/m² 5,7 °C 12,6 °C 4,8 km/h (1 Bft)
06.11.2018 20:17 12,7 °C 62 % 1006,9 hPa 0,0 mm 2,5 km/h (1 Bft) S 189 ° 0 min 0,000 mm 0,0 UV-I 0 W/m² 5,6 °C 12,7 °C 4,8 km/h (1 Bft)
06.11.2018 20:18 12,7 °C 63 % 1006,9 hPa 0,0 mm 5,8 km/h (2 Bft) S 182 ° 0 min 0,000 mm 0,0 UV-I 0 W/m² 5,8 °C 12,7 °C 8,0 km/h (2 Bft)
06.11.2018 20:19 12,7 °C 63 % 1006,9 hPa 0,0 mm 4,0 km/h (1 Bft) S-SO 158 ° 0 min 0,000 mm 0,0 UV-I 0 W/m² 5,8 °C 12,7 °C 8,0 km/h (2 Bft)
06.11.2018 20:20 12,7 °C 63 % 1006,9 hPa 0,0 mm 3,4 km/h (1 Bft) S-SO 157 ° 0 min 0,000 mm 0,0 UV-I 0 W/m² 5,8 °C 12,7 °C 4,8 km/h (1 Bft)
06.11.2018 20:21 12,7 °C 63 % 1006,9 hPa 0,0 mm 4,6 km/h (1 Bft) SO 143 ° 0 min 0,000 mm 0,0 UV-I 0 W/m² 5,8 °C 12,7 °C 6,4 km/h (2 Bft)
06.11.2018 20:22 12,8 °C 62 % 1006,9 hPa 0,0 mm 0,8 km/h (0 Bft) SO 143 ° 0 min 0,000 mm 0,0 UV-I 0 W/m² 5,7 °C 12,8 °C 3,2 km/h (1 Bft)
06.11.2018 20:23 12,8 °C 63 % 1006,9 hPa 0,0 mm 0,0 km/h (0 Bft) SO 143 ° 0 min 0,000 mm 0,0 UV-I 0 W/m² 5,9 °C 12,8 °C 0,0 km/h (0 Bft)
06.11.2018 20:24 12,8 °C 62 % 1007,0 hPa 0,0 mm 0,0 km/h (0 Bft) SO 143 ° 0 min 0,000 mm 0,0 UV-I 0 W/m² 5,7 °C 12,8 °C 0,0 km/h (0 Bft)
06.11.2018 20:25 12,7 °C 63 % 1007,1 hPa 0,0 mm 0,0 km/h (0 Bft) SO 143 ° 0 min 0,000 mm 0,0 UV-I 0 W/m² 5,8 °C 12,7 °C 0,0 km/h (0 Bft)
06.11.2018 20:26 12,6 °C 64 % 1007,1 hPa 0,0 mm 0,0 km/h (0 Bft) SO 143 ° 0 min 0,000 mm 0,0 UV-I 0 W/m² 6,0 °C 12,6 °C 0,0 km/h (0 Bft)
06.11.2018 20:27 12,4 °C 64 % 1007,1 hPa 0,0 mm 0,0 km/h (0 Bft) SO 143 ° 0 min 0,000 mm 0,0 UV-I 0 W/m² 5,8 °C 12,4 °C 0,0 km/h (0 Bft)
06.11.2018 20:28 12,3 °C 64 % 1007,2 hPa 0,0 mm 0,0 km/h (0 Bft) SO 143 ° 0 min 0,000 mm 0,0 UV-I 0 W/m² 5,7 °C 12,3 °C 0,0 km/h (0 Bft)
06.11.2018 20:29 12,2 °C 65 % 1007,2 hPa 0,0 mm 0,0 km/h (0 Bft) SO 143 ° 0 min 0,000 mm 0,0 UV-I 0 W/m² 5,8 °C 12,2 °C 0,0 km/h (0 Bft)
06.11.2018 20:30 12,2 °C 64 % 1007,2 hPa 0,0 mm 0,0 km/h (0 Bft) SO 143 ° 0 min 0,000 mm 0,0 UV-I 0 W/m² 5,6 °C 12,2 °C 0,0 km/h (0 Bft)
06.11.2018 20:31 12,2 °C 64 % 1007,2 hPa 0,0 mm 0,0 km/h (0 Bft) SO 143 ° 0 min 0,000 mm 0,0 UV-I 0 W/m² 5,6 °C 12,2 °C 0,0 km/h (0 Bft)
06.11.2018 20:32 12,2 °C 64 % 1007,2 hPa 0,0 mm 2,1 km/h (1 Bft) SO 144 ° 0 min 0,000 mm 0,0 UV-I 0 W/m² 5,6 °C 12,2 °C 4,8 km/h (1 Bft)
06.11.2018 20:33 12,3 °C 64 % 1007,2 hPa 0,0 mm 0,4 km/h (0 Bft) SO 144 ° 0 min 0,000 mm 0,0 UV-I 0 W/m² 5,7 °C 12,3 °C 1,6 km/h (1 Bft)
06.11.2018 20:34 12,3 °C 64 % 1007,2 hPa 0,0 mm 1,3 km/h (1 Bft) SO 144 ° 0 min 0,000 mm 0,0 UV-I 0 W/m² 5,7 °C 12,3 °C 3,2 km/h (1 Bft)
06.11.2018 20:35 12,4 °C 64 % 1007,2 hPa 0,0 mm 1,6 km/h (1 Bft) SO 144 ° 0 min 0,000 mm 0,0 UV-I 0 W/m² 5,8 °C 12,4 °C 3,2 km/h (1 Bft)
06.11.2018 20:36 12,4 °C 63 % 1007,2 hPa 0,0 mm 1,1 km/h (1 Bft) SO 144 ° 0 min 0,000 mm 0,0 UV-I 0 W/m² 5,6 °C 12,4 °C 3,2 km/h (1 Bft)
06.11.2018 20:37 12,5 °C 63 % 1007,2 hPa 0,0 mm 0,0 km/h (0 Bft) SO 144 ° 0 min 0,000 mm 0,0 UV-I 0 W/m² 5,7 °C 12,5 °C 0,0 km/h (0 Bft)
06.11.2018 20:38 12,5 °C 63 % 1007,2 hPa 0,0 mm 1,2 km/h (1 Bft) SW 229 ° 0 min 0,000 mm 0,0 UV-I 0 W/m² 5,7 °C 12,5 °C 3,2 km/h (1 Bft)
06.11.2018 20:39 12,5 °C 63 % 1007,2 hPa 0,0 mm 1,0 km/h (0 Bft) SW 231 ° 0 min 0,000 mm 0,0 UV-I 0 W/m² 5,7 °C 12,5 °C 3,2 km/h (1 Bft)
06.11.2018 20:40 12,4 °C 63 % 1007,2 hPa 0,0 mm 1,7 km/h (1 Bft) SW 231 ° 0 min 0,000 mm 0,0 UV-I 0 W/m² 5,6 °C 12,4 °C 3,2 km/h (1 Bft)
06.11.2018 20:41 12,4 °C 63 % 1007,3 hPa 0,0 mm 0,7 km/h (0 Bft) SW 231 ° 0 min 0,000 mm 0,0 UV-I 0 W/m² 5,6 °C 12,4 °C 1,6 km/h (1 Bft)
06.11.2018 20:42 12,3 °C 64 % 1007,2 hPa 0,0 mm 2,5 km/h (1 Bft) W-NW 284 ° 0 min 0,000 mm 0,0 UV-I 0 W/m² 5,7 °C 12,3 °C 4,8 km/h (1 Bft)
06.11.2018 20:43 12,2 °C 64 % 1007,3 hPa 0,0 mm 1,7 km/h (1 Bft) W-NW 284 ° 0 min 0,000 mm 0,0 UV-I 0 W/m² 5,6 °C 12,2 °C 4,8 km/h (1 Bft)
06.11.2018 20:44 12,1 °C 65 % 1007,3 hPa 0,0 mm 0,0 km/h (0 Bft) W-NW 284 ° 0 min 0,000 mm 0,0 UV-I 0 W/m² 5,7 °C 12,1 °C 0,0 km/h (0 Bft)
06.11.2018 20:45 11,9 °C 65 % 1007,4 hPa 0,0 mm 2,2 km/h (1 Bft) N-NW 327 ° 0 min 0,000 mm 0,0 UV-I 0 W/m² 5,5 °C 11,9 °C 4,8 km/h (1 Bft)
06.11.2018 20:46 11,8 °C 66 % 1007,4 hPa 0,0 mm 2,3 km/h (1 Bft) W-NW 302 ° 0 min 0,000 mm 0,0 UV-I 0 W/m² 5,7 °C 11,8 °C 4,8 km/h (1 Bft)
06.11.2018 20:47 11,7 °C 66 % 1007,5 hPa 0,0 mm 3,9 km/h (1 Bft) W-NW 298 ° 0 min 0,000 mm 0,0 UV-I 0 W/m² 5,6 °C 11,7 °C 4,8 km/h (1 Bft)
06.11.2018 20:48 11,6 °C 67 % 1007,5 hPa 0,0 mm 4,6 km/h (1 Bft) NW 304 ° 0 min 0,000 mm 0,0 UV-I 0 W/m² 5,7 °C 11,6 °C 9,7 km/h (2 Bft)
06.11.2018 20:49 11,6 °C 67 % 1007,6 hPa 0,0 mm 3,4 km/h (1 Bft) N-NW 329 ° 0 min 0,000 mm 0,0 UV-I 0 W/m² 5,7 °C 11,6 °C 4,8 km/h (1 Bft)
06.11.2018 20:50 11,7 °C 66 % 1007,5 hPa 0,0 mm 3,1 km/h (1 Bft) N-NW 330 ° 0 min 0,000 mm 0,0 UV-I 0 W/m² 5,6 °C 11,7 °C 6,4 km/h (2 Bft)
06.11.2018 20:51 11,7 °C 66 % 1007,6 hPa 0,0 mm 1,4 km/h (1 Bft) N-NW 330 ° 0 min 0,000 mm 0,0 UV-I 0 W/m² 5,6 °C 11,7 °C 4,8 km/h (1 Bft)
06.11.2018 20:52 11,8 °C 66 % 1007,6 hPa 0,0 mm 1,5 km/h (1 Bft) N-NW 330 ° 0 min 0,000 mm 0,0 UV-I 0 W/m² 5,7 °C 11,8 °C 3,2 km/h (1 Bft)
06.11.2018 20:53 11,8 °C 66 % 1007,6 hPa 0,0 mm 1,9 km/h (1 Bft) NW 319 ° 0 min 0,000 mm 0,0 UV-I 0 W/m² 5,7 °C 11,8 °C 4,8 km/h (1 Bft)
06.11.2018 20:54 11,8 °C 66 % 1007,6 hPa 0,0 mm 0,9 km/h (0 Bft) NW 319 ° 0 min 0,000 mm 0,0 UV-I 0 W/m² 5,7 °C 11,8 °C 3,2 km/h (1 Bft)
06.11.2018 20:55 11,8 °C 66 % 1007,6 hPa 0,0 mm 1,0 km/h (0 Bft) NW 319 ° 0 min 0,000 mm 0,0 UV-I 0 W/m² 5,7 °C 11,8 °C 3,2 km/h (1 Bft)
06.11.2018 20:56 11,8 °C 66 % 1007,6 hPa 0,0 mm 1,7 km/h (1 Bft) NW 321 ° 0 min 0,000 mm 0,0 UV-I 0 W/m² 5,7 °C 11,8 °C 3,2 km/h (1 Bft)
06.11.2018 20:57 11,8 °C 66 % 1007,6 hPa 0,0 mm 0,7 km/h (0 Bft) NW 321 ° 0 min 0,000 mm 0,0 UV-I 0 W/m² 5,7 °C 11,8 °C 1,6 km/h (1 Bft)
06.11.2018 20:58 11,8 °C 66 % 1007,6 hPa 0,0 mm 3,6 km/h (1 Bft) W 267 ° 0 min 0,000 mm 0,0 UV-I 0 W/m² 5,7 °C 11,8 °C 6,4 km/h (2 Bft)
06.11.2018 20:59 11,7 °C 67 % 1007,7 hPa 0,0 mm 4,7 km/h (1 Bft) W 263 ° 0 min 0,000 mm 0,0 UV-I 0 W/m² 5,8 °C 11,7 °C 6,4 km/h (2 Bft)
06.11.2018 21:00 11,7 °C 67 % 1007,7 hPa 0,0 mm 3,3 km/h (1 Bft) W 279 ° 0 min 0,000 mm 0,0 UV-I 0 W/m² 5,8 °C 11,7 °C 4,8 km/h (1 Bft)
06.11.2018 21:01 11,7 °C 67 % 1007,7 hPa 0,0 mm 3,6 km/h (1 Bft) W 276 ° 0 min 0,025 mm 0,0 UV-I 0 W/m² 5,8 °C 11,7 °C 9,7 km/h (2 Bft)
06.11.2018 21:02 11,6 °C 68 % 1007,7 hPa 0,0 mm 6,3 km/h (2 Bft) W-SW 248 ° 0 min 0,000 mm 0,0 UV-I 0 W/m² 5,9 °C 11,6 °C 9,7 km/h (2 Bft)
06.11.2018 21:03 11,6 °C 68 % 1007,7 hPa 0,0 mm 1,7 km/h (1 Bft) W-SW 248 ° 0 min 0,000 mm 0,0 UV-I 0 W/m² 5,9 °C 11,6 °C 6,4 km/h (2 Bft)
06.11.2018 21:04 11,7 °C 68 % 1007,7 hPa 0,0 mm 4,4 km/h (1 Bft) W 266 ° 0 min 0,000 mm 0,0 UV-I 0 W/m² 6,0 °C 11,7 °C 11,3 km/h (2 Bft)
06.11.2018 21:05 11,7 °C 68 % 1007,7 hPa 0,0 mm 6,6 km/h (2 Bft) W-NW 283 ° 0 min 0,000 mm 0,0 UV-I 0 W/m² 6,0 °C 11,7 °C 12,9 km/h (3 Bft)
06.11.2018 21:06 11,7 °C 68 % 1007,7 hPa 0,0 mm 3,3 km/h (1 Bft) W-NW 292 ° 0 min 0,000 mm 0,0 UV-I 0 W/m² 6,0 °C 11,7 °C 6,4 km/h (2 Bft)
06.11.2018 21:07 11,7 °C 68 % 1007,8 hPa 0,0 mm 1,4 km/h (1 Bft) W-NW 292 ° 0 min 0,000 mm 0,0 UV-I 0 W/m² 6,0 °C 11,7 °C 3,2 km/h (1 Bft)
06.11.2018 21:08 11,8 °C 68 % 1007,8 hPa 0,0 mm 4,3 km/h (1 Bft) W-NW 288 ° 0 min 0,000 mm 0,0 UV-I 0 W/m² 6,1 °C 11,8 °C 11,3 km/h (2 Bft)
06.11.2018 21:09 11,7 °C 68 % 1007,8 hPa 0,0 mm 3,6 km/h (1 Bft) N-NW 334 ° 0 min 0,000 mm 0,0 UV-I 0 W/m² 6,0 °C 11,7 °C 8,0 km/h (2 Bft)
06.11.2018 21:10 11,7 °C 68 % 1007,9 hPa 0,0 mm 2,5 km/h (1 Bft) W-NW 302 ° 0 min 0,000 mm 0,0 UV-I 0 W/m² 6,0 °C 11,7 °C 4,8 km/h (1 Bft)
06.11.2018 21:11 11,7 °C 68 % 1007,9 hPa 0,0 mm 7,4 km/h (2 Bft) W-NW 302 ° 0 min 0,000 mm 0,0 UV-I 0 W/m² 6,0 °C 11,7 °C 12,9 km/h (3 Bft)
06.11.2018 21:12 11,7 °C 68 % 1007,8 hPa 0,0 mm 2,9 km/h (1 Bft) W-NW 294 ° 0 min 0,000 mm 0,0 UV-I 0 W/m² 6,0 °C 11,7 °C 6,4 km/h (2 Bft)
06.11.2018 21:13 11,6 °C 69 % 1007,9 hPa 0,0 mm 5,8 km/h (2 Bft) W-NW 282 ° 0 min 0,000 mm 0,0 UV-I 0 W/m² 6,1 °C 11,6 °C 9,7 km/h (2 Bft)
06.11.2018 21:14 11,6 °C 69 % 1007,8 hPa 0,0 mm 3,7 km/h (1 Bft) W-NW 290 ° 0 min 0,000 mm 0,0 UV-I 0 W/m² 6,1 °C 11,6 °C 6,4 km/h (2 Bft)
06.11.2018 21:15 11,7 °C 69 % 1007,9 hPa 0,0 mm 0,8 km/h (0 Bft) W-NW 290 ° 0 min 0,000 mm 0,0 UV-I 0 W/m² 6,2 °C 11,7 °C 3,2 km/h (1 Bft)
06.11.2018 21:16 11,7 °C 69 % 1007,9 hPa 0,0 mm 0,6 km/h (0 Bft) W-NW 290 ° 0 min 0,000 mm 0,0 UV-I 0 W/m² 6,2 °C 11,7 °C 1,6 km/h (1 Bft)
06.11.2018 21:17 11,6 °C 69 % 1007,9 hPa 0,0 mm 0,1 km/h (0 Bft) W-NW 290 ° 0 min 0,000 mm 0,0 UV-I 0 W/m² 6,1 °C 11,6 °C 1,6 km/h (1 Bft)
06.11.2018 21:18 11,6 °C 69 % 1007,9 hPa 0,0 mm 0,6 km/h (0 Bft) W-NW 284 ° 0 min 0,000 mm 0,0 UV-I 0 W/m² 6,1 °C 11,6 °C 1,6 km/h (1 Bft)
06.11.2018 21:19 11,6 °C 69 % 1008,0 hPa 0,0 mm 4,7 km/h (1 Bft) W 278 ° 0 min 0,000 mm 0,0 UV-I 0 W/m² 6,1 °C 11,6 °C 9,7 km/h (2 Bft)
06.11.2018 21:20 11,4 °C 69 % 1007,9 hPa 0,0 mm 4,4 km/h (1 Bft) W-NW 296 ° 0 min 0,000 mm 0,0 UV-I 0 W/m² 5,9 °C 11,4 °C 6,4 km/h (2 Bft)
06.11.2018 21:21 11,3 °C 70 % 1007,9 hPa 0,0 mm 4,2 km/h (1 Bft) W 280 ° 0 min 0,000 mm 0,0 UV-I 0 W/m² 6,0 °C 11,3 °C 6,4 km/h (2 Bft)
06.11.2018 21:22 11,3 °C 70 % 1007,9 hPa 0,0 mm 4,8 km/h (1 Bft) W-NW 300 ° 0 min 0,000 mm 0,0 UV-I 0 W/m² 6,0 °C 11,3 °C 8,0 km/h (2 Bft)
06.11.2018 21:23 11,3 °C 70 % 1008,0 hPa 0,0 mm 2,5 km/h (1 Bft) W-NW 300 ° 0 min 0,000 mm 0,0 UV-I 0 W/m² 6,0 °C 11,3 °C 3,2 km/h (1 Bft)
06.11.2018 21:24 11,3 °C 70 % 1008,0 hPa 0,0 mm 1,1 km/h (1 Bft) W-NW 300 ° 0 min 0,000 mm 0,0 UV-I 0 W/m² 6,0 °C 11,3 °C 1,6 km/h (1 Bft)
06.11.2018 21:25 11,2 °C 70 % 1008,0 hPa 0,0 mm 0,5 km/h (0 Bft) W-NW 289 ° 0 min 0,000 mm 0,0 UV-I 0 W/m² 5,9 °C 11,2 °C 3,2 km/h (1 Bft)
06.11.2018 21:26 11,2 °C 70 % 1008,0 hPa 0,0 mm 2,4 km/h (1 Bft) W-NW 288 ° 0 min 0,000 mm 0,0 UV-I 0 W/m² 5,9 °C 11,2 °C 4,8 km/h (1 Bft)
06.11.2018 21:27 11,2 °C 70 % 1008,0 hPa 0,0 mm 6,1 km/h (2 Bft) NW 309 ° 0 min 0,000 mm 0,0 UV-I 0 W/m² 5,9 °C 11,2 °C 9,7 km/h (2 Bft)
06.11.2018 21:28 11,2 °C 70 % 1008,1 hPa 0,0 mm 4,5 km/h (1 Bft) W 269 ° 0 min 0,000 mm 0,0 UV-I 0 W/m² 5,9 °C 11,2 °C 6,4 km/h (2 Bft)
06.11.2018 21:29 11,2 °C 71 % 1008,0 hPa 0,0 mm 8,1 km/h (2 Bft) W-NW 296 ° 0 min 0,000 mm 0,0 UV-I 0 W/m² 6,1 °C 11,2 °C 12,9 km/h (3 Bft)
06.11.2018 21:30 11,2 °C 71 % 1008,1 hPa 0,0 mm 6,5 km/h (2 Bft) W-NW 290 ° 0 min 0,000 mm 0,0 UV-I 0 W/m² 6,1 °C 11,2 °C 11,3 km/h (2 Bft)
06.11.2018 21:31 11,2 °C 71 % 1008,1 hPa 0,0 mm 5,8 km/h (2 Bft) N-NW 329 ° 0 min 0,000 mm 0,0 UV-I 0 W/m² 6,1 °C 11,2 °C 8,0 km/h (2 Bft)
06.11.2018 21:32 11,2 °C 71 % 1008,1 hPa 0,0 mm 4,0 km/h (1 Bft) W-SW 242 ° 0 min 0,000 mm 0,0 UV-I 0 W/m² 6,1 °C 11,2 °C 6,4 km/h (2 Bft)
06.11.2018 21:33 11,2 °C 71 % 1008,2 hPa 0,0 mm 9,5 km/h (2 Bft) W-SW 257 ° 0 min 0,000 mm 0,0 UV-I 0 W/m² 6,1 °C 11,2 °C 16,1 km/h (3 Bft)
06.11.2018 21:34 11,2 °C 71 % 1008,2 hPa 0,0 mm 6,4 km/h (2 Bft) W-NW 288 ° 0 min 0,000 mm 0,0 UV-I 0 W/m² 6,1 °C 11,2 °C 12,9 km/h (3 Bft)
06.11.2018 21:35 11,2 °C 71 % 1008,3 hPa 0,0 mm 3,6 km/h (1 Bft) W-NW 288 ° 0 min 0,000 mm 0,0 UV-I 0 W/m² 6,1 °C 11,2 °C 8,0 km/h (2 Bft)
06.11.2018 21:36 11,2 °C 72 % 1008,3 hPa 0,0 mm 8,5 km/h (2 Bft) W-SW 255 ° 0 min 0,000 mm 0,0 UV-I 0 W/m² 6,3 °C 11,2 °C 12,9 km/h (3 Bft)
06.11.2018 21:37 11,2 °C 72 % 1008,3 hPa 0,0 mm 9,6 km/h (2 Bft) W-SW 254 ° 0 min 0,000 mm 0,0 UV-I 0 W/m² 6,3 °C 11,2 °C 14,5 km/h (3 Bft)
06.11.2018 21:38 11,1 °C 72 % 1008,3 hPa 0,0 mm 5,6 km/h (1 Bft) W 275 ° 0 min 0,000 mm 0,0 UV-I 0 W/m² 6,2 °C 11,1 °C 14,5 km/h (3 Bft)
06.11.2018 21:39 11,1 °C 72 % 1008,3 hPa 0,0 mm 12,1 km/h (2 Bft) W-NW 287 ° 0 min 0,000 mm 0,0 UV-I 0 W/m² 6,2 °C 11,1 °C 17,7 km/h (3 Bft)
06.11.2018 21:40 11,1 °C 72 % 1008,3 hPa 0,0 mm 5,2 km/h (1 Bft) NW 305 ° 0 min 0,000 mm 0,0 UV-I 0 W/m² 6,2 °C 11,1 °C 9,7 km/h (2 Bft)
06.11.2018 21:41 11,0 °C 72 % 1008,3 hPa 0,0 mm 8,7 km/h (2 Bft) SW 235 ° 0 min 0,000 mm 0,0 UV-I 0 W/m² 6,2 °C 11,0 °C 12,9 km/h (3 Bft)
06.11.2018 21:42 10,9 °C 72 % 1008,3 hPa 0,0 mm 5,9 km/h (2 Bft) W-NW 286 ° 0 min 0,000 mm 0,0 UV-I 0 W/m² 6,1 °C 10,9 °C 9,7 km/h (2 Bft)
06.11.2018 21:43 10,9 °C 72 % 1008,3 hPa 0,0 mm 6,3 km/h (2 Bft) W 267 ° 0 min 0,000 mm 0,0 UV-I 0 W/m² 6,1 °C 10,9 °C 12,9 km/h (3 Bft)
06.11.2018 21:44 10,9 °C 72 % 1008,3 hPa 0,0 mm 8,5 km/h (2 Bft) W-NW 282 ° 0 min 0,000 mm 0,0 UV-I 0 W/m² 6,1 °C 10,9 °C 12,9 km/h (3 Bft)
06.11.2018 21:45 10,8 °C 73 % 1008,4 hPa 0,0 mm 5,6 km/h (1 Bft) W-SW 248 ° 0 min 0,000 mm 0,0 UV-I 0 W/m² 6,2 °C 10,8 °C 14,5 km/h (3 Bft)
06.11.2018 21:46 10,8 °C 73 % 1008,3 hPa 0,0 mm 5,8 km/h (2 Bft) W-NW 291 ° 0 min 0,000 mm 0,0 UV-I 0 W/m² 6,2 °C 10,8 °C 12,9 km/h (3 Bft)
06.11.2018 21:47 10,8 °C 73 % 1008,4 hPa 0,0 mm 6,6 km/h (2 Bft) W-SW 248 ° 0 min 0,000 mm 0,0 UV-I 0 W/m² 6,2 °C 10,8 °C 11,3 km/h (2 Bft)
06.11.2018 21:48 10,8 °C 73 % 1008,4 hPa 0,0 mm 8,4 km/h (2 Bft) W-SW 252 ° 0 min 0,000 mm 0,0 UV-I 0 W/m² 6,2 °C 10,8 °C 14,5 km/h (3 Bft)
06.11.2018 21:49 10,8 °C 73 % 1008,4 hPa 0,0 mm 6,6 km/h (2 Bft) W 271 ° 0 min 0,000 mm 0,0 UV-I 0 W/m² 6,2 °C 10,8 °C 14,5 km/h (3 Bft)
06.11.2018 21:50 10,7 °C 73 % 1008,4 hPa 0,0 mm 1,5 km/h (1 Bft) W 271 ° 0 min 0,000 mm 0,0 UV-I 0 W/m² 6,1 °C 10,7 °C 3,2 km/h (1 Bft)
06.11.2018 21:51 10,7 °C 74 % 1008,5 hPa 0,0 mm 2,3 km/h (1 Bft) W 278 ° 0 min 0,000 mm 0,0 UV-I 0 W/m² 6,3 °C 10,7 °C 4,8 km/h (1 Bft)
06.11.2018 21:52 10,7 °C 74 % 1008,5 hPa 0,0 mm 3,8 km/h (1 Bft) W 277 ° 0 min 0,000 mm 0,0 UV-I 0 W/m² 6,3 °C 10,7 °C 6,4 km/h (2 Bft)
06.11.2018 21:53 10,7 °C 74 % 1008,5 hPa 0,0 mm 8,6 km/h (2 Bft) W 263 ° 0 min 0,000 mm 0,0 UV-I 0 W/m² 6,3 °C 10,7 °C 14,5 km/h (3 Bft)
06.11.2018 21:54 10,6 °C 74 % 1008,5 hPa 0,0 mm 7,0 km/h (2 Bft) W 271 ° 0 min 0,000 mm 0,0 UV-I 0 W/m² 6,2 °C 10,6 °C 11,3 km/h (2 Bft)
06.11.2018 21:55 10,6 °C 74 % 1008,6 hPa 0,0 mm 3,8 km/h (1 Bft) W-NW 292 ° 0 min 0,000 mm 0,0 UV-I 0 W/m² 6,2 °C 10,6 °C 6,4 km/h (2 Bft)
06.11.2018 21:56 10,6 °C 74 % 1008,5 hPa 0,0 mm 3,9 km/h (1 Bft) W-NW 291 ° 0 min 0,000 mm 0,0 UV-I 0 W/m² 6,2 °C 10,6 °C 9,7 km/h (2 Bft)
06.11.2018 21:57 10,5 °C 74 % 1008,6 hPa 0,0 mm 2,6 km/h (1 Bft) W-NW 294 ° 0 min 0,000 mm 0,0 UV-I 0 W/m² 6,1 °C 10,5 °C 6,4 km/h (2 Bft)
06.11.2018 21:58 10,5 °C 75 % 1008,5 hPa 0,0 mm 3,4 km/h (1 Bft) W 276 ° 0 min 0,000 mm 0,0 UV-I 0 W/m² 6,3 °C 10,5 °C 6,4 km/h (2 Bft)
06.11.2018 21:59 10,5 °C 75 % 1008,6 hPa 0,0 mm 3,2 km/h (1 Bft) W-SW 245 ° 0 min 0,000 mm 0,0 UV-I 0 W/m² 6,3 °C 10,5 °C 4,8 km/h (1 Bft)
06.11.2018 22:00 10,5 °C 74 % 1008,6 hPa 0,0 mm 2,0 km/h (1 Bft) W 261 ° 0 min 0,000 mm 0,0 UV-I 0 W/m² 6,1 °C 10,5 °C 6,4 km/h (2 Bft)
06.11.2018 22:01 10,4 °C 75 % 1008,6 hPa 0,0 mm 8,0 km/h (2 Bft) NW 306 ° 0 min 0,025 mm 0,0 UV-I 0 W/m² 6,2 °C 10,4 °C 12,9 km/h (3 Bft)
06.11.2018 22:02 10,4 °C 75 % 1008,6 hPa 0,0 mm 7,2 km/h (2 Bft) NW 310 ° 0 min 0,000 mm 0,0 UV-I 0 W/m² 6,2 °C 10,4 °C 11,3 km/h (2 Bft)
06.11.2018 22:03 10,4 °C 75 % 1008,6 hPa 0,0 mm 2,7 km/h (1 Bft) W-NW 290 ° 0 min 0,000 mm 0,0 UV-I 0 W/m² 6,2 °C 10,4 °C 6,4 km/h (2 Bft)
06.11.2018 22:04 10,5 °C 75 % 1008,6 hPa 0,0 mm 2,3 km/h (1 Bft) W-NW 288 ° 0 min 0,000 mm 0,0 UV-I 0 W/m² 6,3 °C 10,5 °C 4,8 km/h (1 Bft)
06.11.2018 22:05 10,4 °C 75 % 1008,7 hPa 0,0 mm 4,2 km/h (1 Bft) NW 309 ° 0 min 0,000 mm 0,0 UV-I 0 W/m² 6,2 °C 10,4 °C 6,4 km/h (2 Bft)
06.11.2018 22:06 10,4 °C 75 % 1008,6 hPa 0,0 mm 2,2 km/h (1 Bft) NW 309 ° 0 min 0,000 mm 0,0 UV-I 0 W/m² 6,2 °C 10,4 °C 3,2 km/h (1 Bft)
06.11.2018 22:07 10,4 °C 75 % 1008,6 hPa 0,0 mm 0,2 km/h (0 Bft) NW 309 ° 0 min 0,000 mm 0,0 UV-I 0 W/m² 6,2 °C 10,4 °C 1,6 km/h (1 Bft)
06.11.2018 22:08 10,4 °C 75 % 1008,6 hPa 0,0 mm 0,2 km/h (0 Bft) NW 309 ° 0 min 0,000 mm 0,0 UV-I 0 W/m² 6,2 °C 10,4 °C 1,6 km/h (1 Bft)
06.11.2018 22:09 10,4 °C 75 % 1008,6 hPa 0,0 mm 5,2 km/h (1 Bft) W-NW 282 ° 0 min 0,000 mm 0,0 UV-I 0 W/m² 6,2 °C 10,4 °C 9,7 km/h (2 Bft)
06.11.2018 22:10 10,3 °C 75 % 1008,5 hPa 0,0 mm 4,8 km/h (1 Bft) S-SW 197 ° 0 min 0,000 mm 0,0 UV-I 0 W/m² 6,1 °C 10,3 °C 8,0 km/h (2 Bft)
06.11.2018 22:11 10,3 °C 75 % 1008,5 hPa 0,0 mm 5,2 km/h (1 Bft) W-SW 257 ° 0 min 0,000 mm 0,0 UV-I 0 W/m² 6,1 °C 10,3 °C 8,0 km/h (2 Bft)
06.11.2018 22:12 10,3 °C 76 % 1008,5 hPa 0,0 mm 9,0 km/h (2 Bft) W 265 ° 0 min 0,000 mm 0,0 UV-I 0 W/m² 6,3 °C 10,3 °C 14,5 km/h (3 Bft)
06.11.2018 22:13 10,3 °C 76 % 1008,5 hPa 0,0 mm 7,9 km/h (2 Bft) W-SW 248 ° 0 min 0,000 mm 0,0 UV-I 0 W/m² 6,3 °C 10,3 °C 12,9 km/h (3 Bft)
06.11.2018 22:14 10,2 °C 76 % 1008,6 hPa 0,0 mm 8,0 km/h (2 Bft) W 281 ° 0 min 0,000 mm 0,0 UV-I 0 W/m² 6,2 °C 10,2 °C 12,9 km/h (3 Bft)
06.11.2018 22:15 10,3 °C 76 % 1008,6 hPa 0,0 mm 6,2 km/h (2 Bft) NW 306 ° 0 min 0,000 mm 0,0 UV-I 0 W/m² 6,3 °C 10,3 °C 11,3 km/h (2 Bft)
06.11.2018 22:16 10,2 °C 76 % 1008,7 hPa 0,0 mm 6,9 km/h (2 Bft) W 261 ° 0 min 0,000 mm 0,0 UV-I 0 W/m² 6,2 °C 10,2 °C 11,3 km/h (2 Bft)
06.11.2018 22:17 10,2 °C 76 % 1008,7 hPa 0,0 mm 5,9 km/h (2 Bft) W 261 ° 0 min 0,000 mm 0,0 UV-I 0 W/m² 6,2 °C 10,2 °C 9,7 km/h (2 Bft)
06.11.2018 22:18 10,1 °C 76 % 1008,7 hPa 0,0 mm 5,1 km/h (1 Bft) W-NW 287 ° 0 min 0,000 mm 0,0 UV-I 0 W/m² 6,1 °C 10,1 °C 8,0 km/h (2 Bft)
06.11.2018 22:19 10,0 °C 76 % 1008,7 hPa 0,0 mm 3,4 km/h (1 Bft) W 279 ° 0 min 0,000 mm 0,0 UV-I 0 W/m² 6,0 °C 10,0 °C 6,4 km/h (2 Bft)
06.11.2018 22:20 10,0 °C 77 % 1008,7 hPa 0,0 mm 1,2 km/h (1 Bft) W 279 ° 0 min 0,000 mm 0,0 UV-I 0 W/m² 6,2 °C 10,0 °C 3,2 km/h (1 Bft)
06.11.2018 22:21 10,0 °C 77 % 1008,8 hPa 0,0 mm 2,8 km/h (1 Bft) W-SW 252 ° 0 min 0,000 mm 0,0 UV-I 0 W/m² 6,2 °C 10,0 °C 4,8 km/h (1 Bft)
06.11.2018 22:22 10,1 °C 77 % 1008,7 hPa 0,0 mm 3,3 km/h (1 Bft) W-SW 252 ° 0 min 0,000 mm 0,0 UV-I 0 W/m² 6,3 °C 10,1 °C 4,8 km/h (1 Bft)
06.11.2018 22:23 10,1 °C 77 % 1008,8 hPa 0,0 mm 7,9 km/h (2 Bft) W 262 ° 0 min 0,000 mm 0,0 UV-I 0 W/m² 6,3 °C 10,1 °C 19,3 km/h (3 Bft)
06.11.2018 22:24 10,1 °C 77 % 1008,8 hPa 0,0 mm 9,6 km/h (2 Bft) W-NW 294 ° 0 min 0,000 mm 0,0 UV-I 0 W/m² 6,3 °C 10,1 °C 16,1 km/h (3 Bft)
06.11.2018 22:25 10,0 °C 77 % 1008,8 hPa 0,0 mm 3,8 km/h (1 Bft) W-SW 246 ° 0 min 0,000 mm 0,0 UV-I 0 W/m² 6,2 °C 10,0 °C 6,4 km/h (2 Bft)
06.11.2018 22:26 10,0 °C 77 % 1008,8 hPa 0,0 mm 3,0 km/h (1 Bft) W-SW 240 ° 0 min 0,000 mm 0,0 UV-I 0 W/m² 6,2 °C 10,0 °C 4,8 km/h (1 Bft)
06.11.2018 22:27 10,1 °C 77 % 1008,8 hPa 0,0 mm 2,7 km/h (1 Bft) W-SW 239 ° 0 min 0,000 mm 0,0 UV-I 0 W/m² 6,3 °C 10,1 °C 4,8 km/h (1 Bft)
06.11.2018 22:28 10,1 °C 77 % 1008,8 hPa 0,0 mm 2,2 km/h (1 Bft) W-SW 239 ° 0 min 0,000 mm 0,0 UV-I 0 W/m² 6,3 °C 10,1 °C 4,8 km/h (1 Bft)
06.11.2018 22:29 10,1 °C 77 % 1008,8 hPa 0,0 mm 2,9 km/h (1 Bft) W 275 ° 0 min 0,000 mm 0,0 UV-I 0 W/m² 6,3 °C 10,1 °C 6,4 km/h (2 Bft)
06.11.2018 22:30 10,1 °C 77 % 1008,8 hPa 0,0 mm 8,6 km/h (2 Bft) W-SW 256 ° 0 min 0,000 mm 0,0 UV-I 0 W/m² 6,3 °C 10,1 °C 14,5 km/h (3 Bft)
06.11.2018 22:31 10,1 °C 77 % 1008,8 hPa 0,0 mm 2,9 km/h (1 Bft) W-SW 252 ° 0 min 0,000 mm 0,0 UV-I 0 W/m² 6,3 °C 10,1 °C 6,4 km/h (2 Bft)
06.11.2018 22:32 10,0 °C 77 % 1008,8 hPa 0,0 mm 1,1 km/h (1 Bft) W-SW 252 ° 0 min 0,000 mm 0,0 UV-I 0 W/m² 6,2 °C 10,0 °C 3,2 km/h (1 Bft)
06.11.2018 22:33 10,1 °C 77 % 1008,9 hPa 0,0 mm 2,3 km/h (1 Bft) W-SW 252 ° 0 min 0,000 mm 0,0 UV-I 0 W/m² 6,3 °C 10,1 °C 3,2 km/h (1 Bft)
06.11.2018 22:34 10,0 °C 77 % 1008,9 hPa 0,0 mm 5,8 km/h (2 Bft) W-SW 254 ° 0 min 0,000 mm 0,0 UV-I 0 W/m² 6,2 °C 9,5 °C 11,3 km/h (2 Bft)
06.11.2018 22:35 9,9 °C 78 % 1008,9 hPa 0,0 mm 1,7 km/h (1 Bft) W-SW 253 ° 0 min 0,000 mm 0,0 UV-I 0 W/m² 6,2 °C 9,9 °C 4,8 km/h (1 Bft)
06.11.2018 22:36 10,0 °C 78 % 1008,9 hPa 0,0 mm 3,0 km/h (1 Bft) W 259 ° 0 min 0,000 mm 0,0 UV-I 0 W/m² 6,3 °C 10,0 °C 6,4 km/h (2 Bft)
06.11.2018 22:37 10,0 °C 78 % 1008,9 hPa 0,0 mm 2,7 km/h (1 Bft) S-SW 210 ° 0 min 0,000 mm 0,0 UV-I 0 W/m² 6,3 °C 10,0 °C 6,4 km/h (2 Bft)
06.11.2018 22:38 10,0 °C 78 % 1008,9 hPa 0,0 mm 0,6 km/h (0 Bft) SW 216 ° 0 min 0,000 mm 0,0 UV-I 0 W/m² 6,3 °C 10,0 °C 1,6 km/h (1 Bft)
06.11.2018 22:39 10,0 °C 78 % 1008,9 hPa 0,0 mm 0,8 km/h (0 Bft) SW 216 ° 0 min 0,000 mm 0,0 UV-I 0 W/m² 6,3 °C 10,0 °C 3,2 km/h (1 Bft)
06.11.2018 22:40 10,0 °C 78 % 1008,9 hPa 0,0 mm 4,5 km/h (1 Bft) W-SW 244 ° 0 min 0,000 mm 0,0 UV-I 0 W/m² 6,3 °C 10,0 °C 6,4 km/h (2 Bft)
06.11.2018 22:41 10,1 °C 78 % 1008,9 hPa 0,0 mm 6,0 km/h (2 Bft) W 259 ° 0 min 0,000 mm 0,0 UV-I 0 W/m² 6,4 °C 10,1 °C 9,7 km/h (2 Bft)
06.11.2018 22:42 10,0 °C 78 % 1008,8 hPa 0,0 mm 6,0 km/h (2 Bft) W 262 ° 0 min 0,000 mm 0,0 UV-I 0 W/m² 6,3 °C 9,5 °C 9,7 km/h (2 Bft)
06.11.2018 22:43 9,9 °C 78 % 1008,9 hPa 0,0 mm 3,0 km/h (1 Bft) W 262 ° 0 min 0,000 mm 0,0 UV-I 0 W/m² 6,2 °C 9,9 °C 6,4 km/h (2 Bft)
06.11.2018 22:44 9,9 °C 78 % 1008,9 hPa 0,0 mm 3,0 km/h (1 Bft) W 269 ° 0 min 0,000 mm 0,0 UV-I 0 W/m² 6,2 °C 9,9 °C 6,4 km/h (2 Bft)
06.11.2018 22:45 9,9 °C 78 % 1008,8 hPa 0,0 mm 4,0 km/h (1 Bft) W-SW 242 ° 0 min 0,000 mm 0,0 UV-I 0 W/m² 6,2 °C 9,9 °C 6,4 km/h (2 Bft)
06.11.2018 22:46 9,8 °C 78 % 1008,9 hPa 0,0 mm 2,8 km/h (1 Bft) SW 236 ° 0 min 0,000 mm 0,0 UV-I 0 W/m² 6,1 °C 9,8 °C 4,8 km/h (1 Bft)
06.11.2018 22:47 9,8 °C 78 % 1008,9 hPa 0,0 mm 2,9 km/h (1 Bft) W-SW 242 ° 0 min 0,000 mm 0,0 UV-I 0 W/m² 6,1 °C 9,8 °C 4,8 km/h (1 Bft)
06.11.2018 22:48 9,9 °C 78 % 1008,9 hPa 0,0 mm 4,0 km/h (1 Bft) W 261 ° 0 min 0,000 mm 0,0 UV-I 0 W/m² 6,2 °C 9,9 °C 6,4 km/h (2 Bft)
06.11.2018 22:49 9,9 °C 78 % 1008,9 hPa 0,0 mm 6,1 km/h (2 Bft) W 269 ° 0 min 0,000 mm 0,0 UV-I 0 W/m² 6,2 °C 9,3 °C 11,3 km/h (2 Bft)
06.11.2018 22:50 9,9 °C 78 % 1008,9 hPa 0,0 mm 5,0 km/h (1 Bft) W 276 ° 0 min 0,000 mm 0,0 UV-I 0 W/m² 6,2 °C 9,6 °C 6,4 km/h (2 Bft)
06.11.2018 22:51 9,8 °C 78 % 1008,9 hPa 0,0 mm 3,2 km/h (1 Bft) W 276 ° 0 min 0,000 mm 0,0 UV-I 0 W/m² 6,1 °C 9,8 °C 4,8 km/h (1 Bft)
06.11.2018 22:52 9,8 °C 78 % 1008,9 hPa 0,0 mm 3,1 km/h (1 Bft) W 276 ° 0 min 0,000 mm 0,0 UV-I 0 W/m² 6,1 °C 9,8 °C 4,8 km/h (1 Bft)
06.11.2018 22:53 9,8 °C 78 % 1008,9 hPa 0,0 mm 2,4 km/h (1 Bft) W 276 ° 0 min 0,000 mm 0,0 UV-I 0 W/m² 6,1 °C 9,8 °C 4,8 km/h (1 Bft)
06.11.2018 22:54 9,7 °C 79 % 1009,0 hPa 0,0 mm 1,4 km/h (1 Bft) W 276 ° 0 min 0,000 mm 0,0 UV-I 0 W/m² 6,2 °C 9,7 °C 1,6 km/h (1 Bft)
06.11.2018 22:55 9,7 °C 78 % 1009,0 hPa 0,0 mm 1,3 km/h (1 Bft) W 276 ° 0 min 0,000 mm 0,0 UV-I 0 W/m² 6,1 °C 9,7 °C 3,2 km/h (1 Bft)
06.11.2018 22:56 9,6 °C 79 % 1009,0 hPa 0,0 mm 0,0 km/h (0 Bft) W 276 ° 0 min 0,000 mm 0,0 UV-I 0 W/m² 6,1 °C 9,6 °C 0,0 km/h (0 Bft)
06.11.2018 22:57 9,6 °C 79 % 1008,9 hPa 0,0 mm 3,0 km/h (1 Bft) W 276 ° 0 min 0,000 mm 0,0 UV-I 0 W/m² 6,1 °C 9,6 °C 4,8 km/h (1 Bft)
06.11.2018 22:58 9,7 °C 79 % 1009,0 hPa 0,0 mm 0,9 km/h (0 Bft) W 276 ° 0 min 0,000 mm 0,0 UV-I 0 W/m² 6,2 °C 9,7 °C 3,2 km/h (1 Bft)
06.11.2018 22:59 9,7 °C 79 % 1009,0 hPa 0,0 mm 4,2 km/h (1 Bft) W 269 ° 0 min 0,000 mm 0,0 UV-I 0 W/m² 6,2 °C 9,7 °C 9,7 km/h (2 Bft)
06.11.2018 23:00 9,7 °C 79 % 1009,0 hPa 0,0 mm 1,5 km/h (1 Bft) W 269 ° 0 min 0,000 mm 0,0 UV-I 0 W/m² 6,2 °C 9,7 °C 3,2 km/h (1 Bft)
06.11.2018 23:01 9,6 °C 79 % 1009,0 hPa 0,0 mm 2,0 km/h (1 Bft) W-NW 284 ° 0 min 0,026 mm 0,0 UV-I 0 W/m² 6,1 °C 9,6 °C 4,8 km/h (1 Bft)
06.11.2018 23:02 9,6 °C 79 % 1009,0 hPa 0,0 mm 3,3 km/h (1 Bft) W-SW 245 ° 0 min 0,000 mm 0,0 UV-I 0 W/m² 6,1 °C 9,6 °C 4,8 km/h (1 Bft)
06.11.2018 23:03 9,6 °C 79 % 1009,0 hPa 0,0 mm 0,3 km/h (0 Bft) W-SW 245 ° 0 min 0,000 mm 0,0 UV-I 0 W/m² 6,1 °C 9,6 °C 1,6 km/h (1 Bft)
06.11.2018 23:04 9,7 °C 79 % 1009,0 hPa 0,0 mm 0,8 km/h (0 Bft) W-SW 245 ° 0 min 0,000 mm 0,0 UV-I 0 W/m² 6,2 °C 9,7 °C 1,6 km/h (1 Bft)
06.11.2018 23:05 9,7 °C 79 % 1009,1 hPa 0,0 mm 2,5 km/h (1 Bft) SW 228 ° 0 min 0,000 mm 0,0 UV-I 0 W/m² 6,2 °C 9,7 °C 6,4 km/h (2 Bft)
06.11.2018 23:06 9,7 °C 79 % 1009,1 hPa 0,0 mm 2,0 km/h (1 Bft) SW 229 ° 0 min 0,000 mm 0,0 UV-I 0 W/m² 6,2 °C 9,7 °C 4,8 km/h (1 Bft)
06.11.2018 23:07 9,7 °C 79 % 1009,1 hPa 0,0 mm 2,8 km/h (1 Bft) SW 232 ° 0 min 0,000 mm 0,0 UV-I 0 W/m² 6,2 °C 9,7 °C 4,8 km/h (1 Bft)
06.11.2018 23:08 9,7 °C 79 % 1009,1 hPa 0,0 mm 3,2 km/h (1 Bft) SW 229 ° 0 min 0,000 mm 0,0 UV-I 0 W/m² 6,2 °C 9,7 °C 6,4 km/h (2 Bft)
06.11.2018 23:09 9,7 °C 79 % 1009,1 hPa 0,0 mm 1,3 km/h (1 Bft) SW 229 ° 0 min 0,000 mm 0,0 UV-I 0 W/m² 6,2 °C 9,7 °C 3,2 km/h (1 Bft)
06.11.2018 23:10 9,7 °C 79 % 1009,1 hPa 0,0 mm 2,5 km/h (1 Bft) SW 229 ° 0 min 0,000 mm 0,0 UV-I 0 W/m² 6,2 °C 9,7 °C 4,8 km/h (1 Bft)
06.11.2018 23:11 9,7 °C 79 % 1009,1 hPa 0,0 mm 1,5 km/h (1 Bft) SW 232 ° 0 min 0,000 mm 0,0 UV-I 0 W/m² 6,2 °C 9,7 °C 4,8 km/h (1 Bft)
06.11.2018 23:12 9,7 °C 79 % 1009,1 hPa 0,0 mm 2,7 km/h (1 Bft) SW 231 ° 0 min 0,000 mm 0,0 UV-I 0 W/m² 6,2 °C 9,7 °C 3,2 km/h (1 Bft)
06.11.2018 23:13 9,7 °C 79 % 1009,1 hPa 0,0 mm 3,8 km/h (1 Bft) SW 221 ° 0 min 0,000 mm 0,0 UV-I 0 W/m² 6,2 °C 9,7 °C 8,0 km/h (2 Bft)
06.11.2018 23:14 9,8 °C 79 % 1009,1 hPa 0,0 mm 0,9 km/h (0 Bft) SW 225 ° 0 min 0,000 mm 0,0 UV-I 0 W/m² 6,3 °C 9,8 °C 3,2 km/h (1 Bft)
06.11.2018 23:15 9,7 °C 79 % 1009,2 hPa 0,0 mm 3,5 km/h (1 Bft) SW 223 ° 0 min 0,000 mm 0,0 UV-I 0 W/m² 6,2 °C 9,7 °C 8,0 km/h (2 Bft)
06.11.2018 23:16 9,7 °C 79 % 1009,2 hPa 0,0 mm 2,7 km/h (1 Bft) SW 219 ° 0 min 0,000 mm 0,0 UV-I 0 W/m² 6,2 °C 9,7 °C 6,4 km/h (2 Bft)
06.11.2018 23:17 9,7 °C 79 % 1009,3 hPa 0,0 mm 0,9 km/h (0 Bft) SW 219 ° 0 min 0,000 mm 0,0 UV-I 0 W/m² 6,2 °C 9,7 °C 3,2 km/h (1 Bft)
06.11.2018 23:18 9,8 °C 79 % 1009,3 hPa 0,0 mm 0,5 km/h (0 Bft) SW 219 ° 0 min 0,000 mm 0,0 UV-I 0 W/m² 6,3 °C 9,8 °C 3,2 km/h (1 Bft)
06.11.2018 23:19 9,7 °C 79 % 1009,3 hPa 0,0 mm 3,1 km/h (1 Bft) W-SW 250 ° 0 min 0,000 mm 0,0 UV-I 0 W/m² 6,2 °C 9,7 °C 6,4 km/h (2 Bft)
06.11.2018 23:20 9,7 °C 79 % 1009,3 hPa 0,0 mm 3,6 km/h (1 Bft) S-SW 206 ° 0 min 0,000 mm 0,0 UV-I 0 W/m² 6,2 °C 9,7 °C 6,4 km/h (2 Bft)
06.11.2018 23:21 9,7 °C 79 % 1009,3 hPa 0,0 mm 3,2 km/h (1 Bft) S-SW 206 ° 0 min 0,000 mm 0,0 UV-I 0 W/m² 6,2 °C 9,7 °C 4,8 km/h (1 Bft)
06.11.2018 23:22 9,7 °C 80 % 1009,4 hPa 0,0 mm 3,7 km/h (1 Bft) S-SW 206 ° 0 min 0,000 mm 0,0 UV-I 0 W/m² 6,4 °C 9,7 °C 4,8 km/h (1 Bft)
06.11.2018 23:23 9,7 °C 79 % 1009,4 hPa 0,0 mm 1,6 km/h (1 Bft) S-SW 196 ° 0 min 0,000 mm 0,0 UV-I 0 W/m² 6,2 °C 9,7 °C 6,4 km/h (2 Bft)
06.11.2018 23:24 9,7 °C 80 % 1009,4 hPa 0,0 mm 1,8 km/h (1 Bft) S-SW 196 ° 0 min 0,000 mm 0,0 UV-I 0 W/m² 6,4 °C 9,7 °C 4,8 km/h (1 Bft)
06.11.2018 23:25 9,7 °C 80 % 1009,4 hPa 0,0 mm 0,7 km/h (0 Bft) S-SW 196 ° 0 min 0,000 mm 0,0 UV-I 0 W/m² 6,4 °C 9,7 °C 3,2 km/h (1 Bft)
06.11.2018 23:26 9,7 °C 80 % 1009,4 hPa 0,0 mm 0,3 km/h (0 Bft) S-SW 196 ° 0 min 0,000 mm 0,0 UV-I 0 W/m² 6,4 °C 9,7 °C 1,6 km/h (1 Bft)
06.11.2018 23:27 9,7 °C 79 % 1009,4 hPa 0,0 mm 0,2 km/h (0 Bft) S-SW 196 ° 0 min 0,000 mm 0,0 UV-I 0 W/m² 6,2 °C 9,7 °C 1,6 km/h (1 Bft)
06.11.2018 23:28 9,7 °C 80 % 1009,4 hPa 0,0 mm 0,5 km/h (0 Bft) SW 223 ° 0 min 0,000 mm 0,0 UV-I 0 W/m² 6,4 °C 9,7 °C 3,2 km/h (1 Bft)
06.11.2018 23:29 9,7 °C 80 % 1009,4 hPa 0,0 mm 3,7 km/h (1 Bft) SW 236 ° 0 min 0,000 mm 0,0 UV-I 0 W/m² 6,4 °C 9,7 °C 8,0 km/h (2 Bft)
06.11.2018 23:30 9,6 °C 80 % 1009,4 hPa 0,0 mm 1,9 km/h (1 Bft) SW 236 ° 0 min 0,000 mm 0,0 UV-I 0 W/m² 6,3 °C 9,6 °C 4,8 km/h (1 Bft)
06.11.2018 23:31 9,7 °C 80 % 1009,4 hPa 0,0 mm 2,3 km/h (1 Bft) SW 236 ° 0 min 0,000 mm 0,0 UV-I 0 W/m² 6,4 °C 9,7 °C 4,8 km/h (1 Bft)
06.11.2018 23:32 9,7 °C 80 % 1009,4 hPa 0,0 mm 1,3 km/h (1 Bft) SW 236 ° 0 min 0,000 mm 0,0 UV-I 0 W/m² 6,4 °C 9,7 °C 3,2 km/h (1 Bft)
06.11.2018 23:33 9,7 °C 80 % 1009,4 hPa 0,0 mm 1,2 km/h (1 Bft) SW 236 ° 0 min 0,000 mm 0,0 UV-I 0 W/m² 6,4 °C 9,7 °C 3,2 km/h (1 Bft)
06.11.2018 23:34 9,7 °C 80 % 1009,5 hPa 0,0 mm 1,7 km/h (1 Bft) SW 231 ° 0 min 0,000 mm 0,0 UV-I 0 W/m² 6,4 °C 9,7 °C 4,8 km/h (1 Bft)
06.11.2018 23:35 9,7 °C 80 % 1009,5 hPa 0,0 mm 2,7 km/h (1 Bft) SW 214 ° 0 min 0,000 mm 0,0 UV-I 0 W/m² 6,4 °C 9,7 °C 4,8 km/h (1 Bft)
06.11.2018 23:36 9,7 °C 80 % 1009,4 hPa 0,0 mm 1,5 km/h (1 Bft) SW 232 ° 0 min 0,000 mm 0,0 UV-I 0 W/m² 6,4 °C 9,7 °C 3,2 km/h (1 Bft)
06.11.2018 23:37 9,8 °C 79 % 1009,5 hPa 0,0 mm 0,5 km/h (0 Bft) SW 215 ° 0 min 0,000 mm 0,0 UV-I 0 W/m² 6,3 °C 9,8 °C 1,6 km/h (1 Bft)
06.11.2018 23:38 9,8 °C 80 % 1009,5 hPa 0,0 mm 4,0 km/h (1 Bft) SW 234 ° 0 min 0,000 mm 0,0 UV-I 0 W/m² 6,5 °C 9,8 °C 8,0 km/h (2 Bft)
06.11.2018 23:39 9,8 °C 79 % 1009,5 hPa 0,0 mm 3,2 km/h (1 Bft) W-SW 242 ° 0 min 0,000 mm 0,0 UV-I 0 W/m² 6,3 °C 9,8 °C 8,0 km/h (2 Bft)
06.11.2018 23:40 9,8 °C 79 % 1009,5 hPa 0,0 mm 0,2 km/h (0 Bft) W-SW 242 ° 0 min 0,000 mm 0,0 UV-I 0 W/m² 6,3 °C 9,8 °C 1,6 km/h (1 Bft)
06.11.2018 23:41 9,8 °C 79 % 1009,5 hPa 0,0 mm 0,0 km/h (0 Bft) W-SW 242 ° 0 min 0,000 mm 0,0 UV-I 0 W/m² 6,3 °C 9,8 °C 0,0 km/h (0 Bft)
06.11.2018 23:42 9,8 °C 79 % 1009,5 hPa 0,0 mm 1,7 km/h (1 Bft) SW 225 ° 0 min 0,000 mm 0,0 UV-I 0 W/m² 6,3 °C 9,8 °C 3,2 km/h (1 Bft)
06.11.2018 23:43 9,7 °C 79 % 1009,5 hPa 0,0 mm 3,8 km/h (1 Bft) S-SW 208 ° 0 min 0,000 mm 0,0 UV-I 0 W/m² 6,2 °C 9,7 °C 4,8 km/h (1 Bft)
06.11.2018 23:44 9,7 °C 79 % 1009,6 hPa 0,0 mm 1,9 km/h (1 Bft) S-SW 208 ° 0 min 0,000 mm 0,0 UV-I 0 W/m² 6,2 °C 9,7 °C 3,2 km/h (1 Bft)
06.11.2018 23:45 9,7 °C 79 % 1009,6 hPa 0,0 mm 1,9 km/h (1 Bft) S-SW 208 ° 0 min 0,000 mm 0,0 UV-I 0 W/m² 6,2 °C 9,7 °C 4,8 km/h (1 Bft)
06.11.2018 23:46 9,7 °C 79 % 1009,6 hPa 0,0 mm 1,5 km/h (1 Bft) S-SW 208 ° 0 min 0,000 mm 0,0 UV-I 0 W/m² 6,2 °C 9,7 °C 3,2 km/h (1 Bft)
06.11.2018 23:47 9,7 °C 79 % 1009,7 hPa 0,0 mm 1,7 km/h (1 Bft) S-SW 208 ° 0 min 0,000 mm 0,0 UV-I 0 W/m² 6,2 °C 9,7 °C 3,2 km/h (1 Bft)
06.11.2018 23:48 9,7 °C 79 % 1009,7 hPa 0,0 mm 0,0 km/h (0 Bft) S-SW 208 ° 0 min 0,000 mm 0,0 UV-I 0 W/m² 6,2 °C 9,7 °C 0,0 km/h (0 Bft)
06.11.2018 23:49 9,7 °C 79 % 1009,7 hPa 0,0 mm 0,0 km/h (0 Bft) S-SW 208 ° 0 min 0,000 mm 0,0 UV-I 0 W/m² 6,2 °C 9,7 °C 0,0 km/h (0 Bft)
06.11.2018 23:50 9,6 °C 79 % 1009,7 hPa 0,0 mm 0,0 km/h (0 Bft) S-SW 208 ° 0 min 0,000 mm 0,0 UV-I 0 W/m² 6,1 °C 9,6 °C 0,0 km/h (0 Bft)
06.11.2018 23:51 9,6 °C 80 % 1009,7 hPa 0,0 mm 0,0 km/h (0 Bft) S-SW 208 ° 0 min 0,000 mm 0,0 UV-I 0 W/m² 6,3 °C 9,6 °C 0,0 km/h (0 Bft)
06.11.2018 23:52 9,6 °C 80 % 1009,7 hPa 0,0 mm 1,3 km/h (1 Bft) S-SW 208 ° 0 min 0,000 mm 0,0 UV-I 0 W/m² 6,3 °C 9,6 °C 4,8 km/h (1 Bft)
06.11.2018 23:53 9,7 °C 80 % 1009,8 hPa 0,0 mm 0,0 km/h (0 Bft) S-SW 208 ° 0 min 0,000 mm 0,0 UV-I 0 W/m² 6,4 °C 9,7 °C 0,0 km/h (0 Bft)
06.11.2018 23:54 9,6 °C 80 % 1009,8 hPa 0,0 mm 0,0 km/h (0 Bft) S-SW 208 ° 0 min 0,000 mm 0,0 UV-I 0 W/m² 6,3 °C 9,6 °C 0,0 km/h (0 Bft)
06.11.2018 23:55 9,4 °C 80 % 1009,8 hPa 0,0 mm 0,0 km/h (0 Bft) S-SW 208 ° 0 min 0,000 mm 0,0 UV-I 0 W/m² 6,1 °C 9,4 °C 0,0 km/h (0 Bft)
06.11.2018 23:56 9,3 °C 80 % 1009,8 hPa 0,0 mm 0,0 km/h (0 Bft) S-SW 208 ° 0 min 0,000 mm 0,0 UV-I 0 W/m² 6,0 °C 9,3 °C 0,0 km/h (0 Bft)
06.11.2018 23:57 9,2 °C 80 % 1009,8 hPa 0,0 mm 0,3 km/h (0 Bft) S-SW 208 ° 0 min 0,000 mm 0,0 UV-I 0 W/m² 5,9 °C 9,2 °C 1,6 km/h (1 Bft)
06.11.2018 23:58 9,2 °C 81 % 1009,8 hPa 0,0 mm 0,0 km/h (0 Bft) S-SW 208 ° 0 min 0,000 mm 0,0 UV-I 0 W/m² 6,1 °C 9,2 °C 0,0 km/h (0 Bft)
06.11.2018 23:59 9,1 °C 81 % 1009,8 hPa 0,0 mm 0,0 km/h (0 Bft) S-SW 208 ° 0 min 0,000 mm 0,0 UV-I 0 W/m² 6,0 °C 9,1 °C 0,0 km/h (0 Bft)
_ Min-Zeit 23:59 12:26 13:56 - 23:59 - - - - - - 00:43 23:59 23:59
Minimum _ 9,1 °C 37 % 1004,7 hPa - 0,0 km/h (0 Bft) - - - - - - 2,5 °C 9,1 °C 0,0 km/h (0 Bft)
_ Max-Zeit 12:29 23:59 23:59 23:59 21:39 - - 23:59 13:01 12:32 10:45 15:10 12:29 04:57
Maximum _ 20,1 °C 81 % 1009,8 hPa 0,0 mm 12,1 km/h
W-NW (2 Bft)
- - 0 min 0,127 mm 1,8 UV-I 190 W/m² 8,0 °C 20,1 °C 25,7 km/h
O (4 Bft)
Durchschnitt _ 13,5 °C 59 % 1006,4 hPa #0,0 mm 2,1 km/h (1 Bft) S - #0 min. #1,067 mm 1,2 UV-I 36 W/m² 5,3 °C 13,5 °C 4,1 km/h (1 Bft)